﻿<?xml version="1.0" encoding="utf-8"?><gpx creator="Garmin Desktop App" version="1.1" xsi:schemaLocation="http://www.topografix.com/GPX/1/1 http://www.topografix.com/GPX/1/1/gpx.xsd http://www.garmin.com/xmlschemas/WaypointExtension/v1 http://www8.garmin.com/xmlschemas/WaypointExtensionv1.xsd http://www.garmin.com/xmlschemas/TrackPointExtension/v1 http://www.garmin.com/xmlschemas/TrackPointExtensionv1.xsd http://www.garmin.com/xmlschemas/GpxExtensions/v3 http://www8.garmin.com/xmlschemas/GpxExtensionsv3.xsd http://www.garmin.com/xmlschemas/ActivityExtension/v1 http://www8.garmin.com/xmlschemas/ActivityExtensionv1.xsd http://www.garmin.com/xmlschemas/AdventuresExtensions/v1 http://www8.garmin.com/xmlschemas/AdventuresExtensionv1.xsd http://www.garmin.com/xmlschemas/PressureExtension/v1 http://www.garmin.com/xmlschemas/PressureExtensionv1.xsd http://www.garmin.com/xmlschemas/TripExtensions/v1 http://www.garmin.com/xmlschemas/TripExtensionsv1.xsd http://www.garmin.com/xmlschemas/TripMetaDataExtensions/v1 http://www.garmin.com/xmlschemas/TripMetaDataExtensionsv1.xsd http://www.garmin.com/xmlschemas/ViaPointTransportationModeExtensions/v1 http://www.garmin.com/xmlschemas/ViaPointTransportationModeExtensionsv1.xsd http://www.garmin.com/xmlschemas/CreationTimeExtension/v1 http://www.garmin.com/xmlschemas/CreationTimeExtensionsv1.xsd http://www.garmin.com/xmlschemas/AccelerationExtension/v1 http://www.garmin.com/xmlschemas/AccelerationExtensionv1.xsd http://www.garmin.com/xmlschemas/PowerExtension/v1 http://www.garmin.com/xmlschemas/PowerExtensionv1.xsd http://www.garmin.com/xmlschemas/VideoExtension/v1 http://www.garmin.com/xmlschemas/VideoExtensionv1.xsd" xmlns="http://www.topografix.com/GPX/1/1" xmlns:xsi="http://www.w3.org/2001/XMLSchema-instance" xmlns:wptx1="http://www.garmin.com/xmlschemas/WaypointExtension/v1" xmlns:gpxtrx="http://www.garmin.com/xmlschemas/GpxExtensions/v3" xmlns:gpxtpx="http://www.garmin.com/xmlschemas/TrackPointExtension/v1" xmlns:gpxx="http://www.garmin.com/xmlschemas/GpxExtensions/v3" xmlns:trp="http://www.garmin.com/xmlschemas/TripExtensions/v1" xmlns:adv="http://www.garmin.com/xmlschemas/AdventuresExtensions/v1" xmlns:prs="http://www.garmin.com/xmlschemas/PressureExtension/v1" xmlns:tmd="http://www.garmin.com/xmlschemas/TripMetaDataExtensions/v1" xmlns:vptm="http://www.garmin.com/xmlschemas/ViaPointTransportationModeExtensions/v1" xmlns:ctx="http://www.garmin.com/xmlschemas/CreationTimeExtension/v1" xmlns:gpxacc="http://www.garmin.com/xmlschemas/AccelerationExtension/v1" xmlns:gpxpx="http://www.garmin.com/xmlschemas/PowerExtension/v1" xmlns:vidx1="http://www.garmin.com/xmlschemas/VideoExtension/v1">

  <metadata>
    <link href="http://www.garmin.com">
      <text>Garmin International</text>
    </link>
    <time>2021-01-19T20:02:24Z</time>
    <bounds maxlat="46.123092127963901" maxlon="8.683390421792865" minlat="46.109248325228691" minlon="8.65496470592916" />
  </metadata>

  <trk>
    <name>capanna al legn2015-01-06</name>
    <extensions>
      <gpxx:TrackExtension>
        <gpxx:DisplayColor>Yellow</gpxx:DisplayColor>
      </gpxx:TrackExtension>
      <gpxtrkx:TrackStatsExtension xmlns:gpxtrkx="http://www.garmin.com/xmlschemas/TrackStatsExtension/v1">
        <gpxtrkx:Distance>12043</gpxtrkx:Distance>
        <gpxtrkx:TotalElapsedTime>20885</gpxtrkx:TotalElapsedTime>
        <gpxtrkx:MovingTime>14277</gpxtrkx:MovingTime>
        <gpxtrkx:StoppedTime>6561</gpxtrkx:StoppedTime>
        <gpxtrkx:MovingSpeed>1</gpxtrkx:MovingSpeed>
        <gpxtrkx:MaxSpeed>3</gpxtrkx:MaxSpeed>
        <gpxtrkx:MaxElevation>2053</gpxtrkx:MaxElevation>
        <gpxtrkx:MinElevation>946</gpxtrkx:MinElevation>
        <gpxtrkx:Ascent>1121</gpxtrkx:Ascent>
        <gpxtrkx:Descent>1130</gpxtrkx:Descent>
        <gpxtrkx:AvgAscentRate>0</gpxtrkx:AvgAscentRate>
        <gpxtrkx:MaxAscentRate>0</gpxtrkx:MaxAscentRate>
        <gpxtrkx:AvgDescentRate>0</gpxtrkx:AvgDescentRate>
        <gpxtrkx:MaxDescentRate>-1</gpxtrkx:MaxDescentRate>
      </gpxtrkx:TrackStatsExtension>
    </extensions>
    <trkseg>
      <trkpt lat="46.109256120398641" lon="8.682811232283711">
        <ele>955.21000000000004</ele>
        <time>2015-01-06T08:21:29Z</time>
      </trkpt>
      <trkpt lat="46.109248325228691" lon="8.6828170157969">
        <ele>955.69000000000005</ele>
        <time>2015-01-06T08:21:51Z</time>
      </trkpt>
      <trkpt lat="46.109280595555902" lon="8.682829504832625">
        <ele>955.69000000000005</ele>
        <time>2015-01-06T08:22:09Z</time>
      </trkpt>
      <trkpt lat="46.109290570020676" lon="8.682846939191222">
        <ele>956.16999999999996</ele>
        <time>2015-01-06T08:22:26Z</time>
      </trkpt>
      <trkpt lat="46.109289061278105" lon="8.682857165113092">
        <ele>956.64999999999998</ele>
        <time>2015-01-06T08:22:47Z</time>
      </trkpt>
      <trkpt lat="46.109281266108155" lon="8.68290251120925">
        <ele>956.16999999999996</ele>
        <time>2015-01-06T08:23:03Z</time>
      </trkpt>
      <trkpt lat="46.10926148481667" lon="8.682833360508084">
        <ele>956.16999999999996</ele>
        <time>2015-01-06T08:23:26Z</time>
      </trkpt>
      <trkpt lat="46.109265005216002" lon="8.682855572551489">
        <ele>956.16999999999996</ele>
        <time>2015-01-06T08:23:48Z</time>
      </trkpt>
      <trkpt lat="46.109272046014667" lon="8.682839730754495">
        <ele>956.64999999999998</ele>
        <time>2015-01-06T08:24:03Z</time>
      </trkpt>
      <trkpt lat="46.109287133440375" lon="8.682859009131789">
        <ele>957.13</ele>
        <time>2015-01-06T08:24:28Z</time>
      </trkpt>
      <trkpt lat="46.10934698022902" lon="8.682971578091383">
        <ele>956.64999999999998</ele>
        <time>2015-01-06T08:24:52Z</time>
      </trkpt>
      <trkpt lat="46.109315967187285" lon="8.683008374646306">
        <ele>957.13</ele>
        <time>2015-01-06T08:25:14Z</time>
      </trkpt>
      <trkpt lat="46.109288390725851" lon="8.682956993579865">
        <ele>957.13</ele>
        <time>2015-01-06T08:25:39Z</time>
      </trkpt>
      <trkpt lat="46.109288390725851" lon="8.682962441816926">
        <ele>957.61000000000001</ele>
        <time>2015-01-06T08:25:56Z</time>
      </trkpt>
      <trkpt lat="46.109295431524515" lon="8.682936625555158">
        <ele>957.13</ele>
        <time>2015-01-06T08:26:14Z</time>
      </trkpt>
      <trkpt lat="46.109321499243379" lon="8.682961771264672">
        <ele>957.13</ele>
        <time>2015-01-06T08:26:31Z</time>
      </trkpt>
      <trkpt lat="46.109326276928186" lon="8.682966800406575">
        <ele>957.13</ele>
        <time>2015-01-06T08:26:44Z</time>
      </trkpt>
      <trkpt lat="46.109313787892461" lon="8.683069562539458">
        <ele>957.13</ele>
        <time>2015-01-06T08:26:53Z</time>
      </trkpt>
      <trkpt lat="46.109325438737869" lon="8.683278523385525">
        <ele>958.57000000000005</ele>
        <time>2015-01-06T08:27:08Z</time>
      </trkpt>
      <trkpt lat="46.1093894764781" lon="8.683371981605887">
        <ele>960.00999999999999</ele>
        <time>2015-01-06T08:27:20Z</time>
      </trkpt>
      <trkpt lat="46.10943591222167" lon="8.683259496465325">
        <ele>961.46000000000004</ele>
        <time>2015-01-06T08:27:31Z</time>
      </trkpt>
      <trkpt lat="46.109440103173256" lon="8.683064365759492">
        <ele>963.38</ele>
        <time>2015-01-06T08:27:47Z</time>
      </trkpt>
      <trkpt lat="46.109478659927845" lon="8.682840401306748">
        <ele>965.29999999999995</ele>
        <time>2015-01-06T08:28:02Z</time>
      </trkpt>
      <trkpt lat="46.10950481146574" lon="8.682680139318109">
        <ele>967.22000000000003</ele>
        <time>2015-01-06T08:28:16Z</time>
      </trkpt>
      <trkpt lat="46.109489975497127" lon="8.682467071339488">
        <ele>969.63</ele>
        <time>2015-01-06T08:28:32Z</time>
      </trkpt>
      <trkpt lat="46.109481593593955" lon="8.682271018624306">
        <ele>972.02999999999997</ele>
        <time>2015-01-06T08:28:47Z</time>
      </trkpt>
      <trkpt lat="46.10949500463903" lon="8.682098938152194">
        <ele>973.95000000000005</ele>
        <time>2015-01-06T08:28:59Z</time>
      </trkpt>
      <trkpt lat="46.109553594142199" lon="8.681933395564556">
        <ele>975.88</ele>
        <time>2015-01-06T08:29:13Z</time>
      </trkpt>
      <trkpt lat="46.109586115926504" lon="8.681899448856711">
        <ele>976.84000000000003</ele>
        <time>2015-01-06T08:29:18Z</time>
      </trkpt>
      <trkpt lat="46.109724752604961" lon="8.68185100145638">
        <ele>978.75999999999999</ele>
        <time>2015-01-06T08:29:33Z</time>
      </trkpt>
      <trkpt lat="46.109850062057376" lon="8.681853851303458">
        <ele>980.67999999999995</ele>
        <time>2015-01-06T08:29:46Z</time>
      </trkpt>
      <trkpt lat="46.109938994050026" lon="8.681974885985255">
        <ele>983.09000000000003</ele>
        <time>2015-01-06T08:30:03Z</time>
      </trkpt>
      <trkpt lat="46.109880823642015" lon="8.682036157697439">
        <ele>984.04999999999995</ele>
        <time>2015-01-06T08:30:11Z</time>
      </trkpt>
      <trkpt lat="46.109816199168563" lon="8.682122575119138">
        <ele>985.49000000000001</ele>
        <time>2015-01-06T08:30:20Z</time>
      </trkpt>
      <trkpt lat="46.109784934669733" lon="8.68224922567606">
        <ele>985.97000000000003</ele>
        <time>2015-01-06T08:30:30Z</time>
      </trkpt>
      <trkpt lat="46.109780156984925" lon="8.682360034435988">
        <ele>986.92999999999995</ele>
        <time>2015-01-06T08:30:37Z</time>
      </trkpt>
      <trkpt lat="46.109776301309466" lon="8.682440668344498">
        <ele>987.88999999999999</ele>
        <time>2015-01-06T08:30:43Z</time>
      </trkpt>
      <trkpt lat="46.109868921339512" lon="8.682521805167198">
        <ele>989.33000000000004</ele>
        <time>2015-01-06T08:30:57Z</time>
      </trkpt>
      <trkpt lat="46.109924828633666" lon="8.682417282834649">
        <ele>991.25999999999999</ele>
        <time>2015-01-06T08:31:09Z</time>
      </trkpt>
      <trkpt lat="46.110037146136165" lon="8.682380486279726">
        <ele>993.65999999999997</ele>
        <time>2015-01-06T08:31:22Z</time>
      </trkpt>
      <trkpt lat="46.110170837491751" lon="8.682365650311112">
        <ele>995.58000000000004</ele>
        <time>2015-01-06T08:31:37Z</time>
      </trkpt>
      <trkpt lat="46.110207298770547" lon="8.682365817949176">
        <ele>996.53999999999996</ele>
        <time>2015-01-06T08:31:41Z</time>
      </trkpt>
      <trkpt lat="46.110342834144831" lon="8.682378139346838">
        <ele>998.47000000000003</ele>
        <time>2015-01-06T08:31:56Z</time>
      </trkpt>
      <trkpt lat="46.110451882705092" lon="8.682372272014618">
        <ele>1000.87</ele>
        <time>2015-01-06T08:32:09Z</time>
      </trkpt>
      <trkpt lat="46.110575683414936" lon="8.682371350005269">
        <ele>1002.79</ele>
        <time>2015-01-06T08:32:23Z</time>
      </trkpt>
      <trkpt lat="46.110715242102742" lon="8.682357352226973">
        <ele>1004.72</ele>
        <time>2015-01-06T08:32:38Z</time>
      </trkpt>
      <trkpt lat="46.110831499099731" lon="8.682331955060363">
        <ele>1006.64</ele>
        <time>2015-01-06T08:32:52Z</time>
      </trkpt>
      <trkpt lat="46.110942307859659" lon="8.682288033887744">
        <ele>1009.04</ele>
        <time>2015-01-06T08:33:06Z</time>
      </trkpt>
      <trkpt lat="46.111023025587201" lon="8.68217789568007">
        <ele>1010.96</ele>
        <time>2015-01-06T08:33:20Z</time>
      </trkpt>
      <trkpt lat="46.111033167690039" lon="8.682130537927151">
        <ele>1011.9299999999999</ele>
        <time>2015-01-06T08:33:24Z</time>
      </trkpt>
      <trkpt lat="46.111043728888035" lon="8.682077983394265">
        <ele>1012.41</ele>
        <time>2015-01-06T08:33:29Z</time>
      </trkpt>
      <trkpt lat="46.111092008650303" lon="8.68190816603601">
        <ele>1014.33</ele>
        <time>2015-01-06T08:33:43Z</time>
      </trkpt>
      <trkpt lat="46.111177839338779" lon="8.681834656745195">
        <ele>1015.29</ele>
        <time>2015-01-06T08:33:54Z</time>
      </trkpt>
      <trkpt lat="46.111304238438606" lon="8.681828705593944">
        <ele>1017.21</ele>
        <time>2015-01-06T08:34:07Z</time>
      </trkpt>
      <trkpt lat="46.111317481845617" lon="8.681813618168235">
        <ele>1017.6900000000001</ele>
        <time>2015-01-06T08:34:10Z</time>
      </trkpt>
      <trkpt lat="46.11134740523994" lon="8.681667353957892">
        <ele>1020.58</ele>
        <time>2015-01-06T08:34:22Z</time>
      </trkpt>
      <trkpt lat="46.111335167661309" lon="8.681620080024004">
        <ele>1020.1</ele>
        <time>2015-01-06T08:34:26Z</time>
      </trkpt>
      <trkpt lat="46.111349752172828" lon="8.681557215750217">
        <ele>1020.58</ele>
        <time>2015-01-06T08:34:31Z</time>
      </trkpt>
      <trkpt lat="46.111361905932426" lon="8.681529555469751">
        <ele>1020.58</ele>
        <time>2015-01-06T08:34:33Z</time>
      </trkpt>
      <trkpt lat="46.111369449645281" lon="8.681425368413329">
        <ele>1022.02</ele>
        <time>2015-01-06T08:34:41Z</time>
      </trkpt>
      <trkpt lat="46.111387889832258" lon="8.681378681212664">
        <ele>1022.5</ele>
        <time>2015-01-06T08:34:46Z</time>
      </trkpt>
      <trkpt lat="46.111406581476331" lon="8.68124415166676">
        <ele>1023.46</ele>
        <time>2015-01-06T08:34:58Z</time>
      </trkpt>
      <trkpt lat="46.111394595354795" lon="8.681194698438048">
        <ele>1024.9000000000001</ele>
        <time>2015-01-06T08:35:03Z</time>
      </trkpt>
      <trkpt lat="46.11138160340488" lon="8.68103351444006">
        <ele>1026.8299999999999</ele>
        <time>2015-01-06T08:35:15Z</time>
      </trkpt>
      <trkpt lat="46.111377412453294" lon="8.681002836674452">
        <ele>1027.3099999999999</ele>
        <time>2015-01-06T08:35:18Z</time>
      </trkpt>
      <trkpt lat="46.111392751336098" lon="8.680965704843402">
        <ele>1026.3399999999999</ele>
        <time>2015-01-06T08:35:30Z</time>
      </trkpt>
      <trkpt lat="46.111379256471992" lon="8.680979870259762">
        <ele>1026.8299999999999</ele>
        <time>2015-01-06T08:35:41Z</time>
      </trkpt>
      <trkpt lat="46.111377412453294" lon="8.680995628237724">
        <ele>1027.3099999999999</ele>
        <time>2015-01-06T08:35:53Z</time>
      </trkpt>
      <trkpt lat="46.111388728022575" lon="8.680990347638726">
        <ele>1027.3099999999999</ele>
        <time>2015-01-06T08:36:09Z</time>
      </trkpt>
      <trkpt lat="46.111373892053962" lon="8.680980121716857">
        <ele>1027.3099999999999</ele>
        <time>2015-01-06T08:36:21Z</time>
      </trkpt>
      <trkpt lat="46.111403228715062" lon="8.681036867201328">
        <ele>1026.8299999999999</ele>
        <time>2015-01-06T08:36:38Z</time>
      </trkpt>
      <trkpt lat="46.111401384696364" lon="8.681050948798657">
        <ele>1026.8299999999999</ele>
        <time>2015-01-06T08:36:59Z</time>
      </trkpt>
      <trkpt lat="46.111397193744779" lon="8.681037789210677">
        <ele>1026.3399999999999</ele>
        <time>2015-01-06T08:37:20Z</time>
      </trkpt>
      <trkpt lat="46.11142611131072" lon="8.68099881336093">
        <ele>1026.8299999999999</ele>
        <time>2015-01-06T08:37:33Z</time>
      </trkpt>
      <trkpt lat="46.111468188464642" lon="8.681051786988974">
        <ele>1028.27</ele>
        <time>2015-01-06T08:37:47Z</time>
      </trkpt>
      <trkpt lat="46.111464416608214" lon="8.681113477796316">
        <ele>1028.75</ele>
        <time>2015-01-06T08:37:55Z</time>
      </trkpt>
      <trkpt lat="46.111483862623572" lon="8.681155638769269">
        <ele>1029.23</ele>
        <time>2015-01-06T08:37:58Z</time>
      </trkpt>
      <trkpt lat="46.11153800971806" lon="8.68132034316659">
        <ele>1031.1500000000001</ele>
        <time>2015-01-06T08:38:13Z</time>
      </trkpt>
      <trkpt lat="46.111551253125072" lon="8.68134431540966">
        <ele>1031.6300000000001</ele>
        <time>2015-01-06T08:38:19Z</time>
      </trkpt>
      <trkpt lat="46.111641861498356" lon="8.681405587121844">
        <ele>1033.55</ele>
        <time>2015-01-06T08:38:33Z</time>
      </trkpt>
      <trkpt lat="46.111734565347433" lon="8.681504828855395">
        <ele>1035.48</ele>
        <time>2015-01-06T08:38:44Z</time>
      </trkpt>
      <trkpt lat="46.111805392429233" lon="8.681584792211652">
        <ele>1036.4400000000001</ele>
        <time>2015-01-06T08:38:58Z</time>
      </trkpt>
      <trkpt lat="46.111822072416544" lon="8.68159007281065">
        <ele>1036.9200000000001</ele>
        <time>2015-01-06T08:39:00Z</time>
      </trkpt>
      <trkpt lat="46.111978897824883" lon="8.681738851591945">
        <ele>1039.3199999999999</ele>
        <time>2015-01-06T08:39:19Z</time>
      </trkpt>
      <trkpt lat="46.112048383802176" lon="8.681790148839355">
        <ele>1040.76</ele>
        <time>2015-01-06T08:39:28Z</time>
      </trkpt>
      <trkpt lat="46.112166400998831" lon="8.68184169754386">
        <ele>1043.1700000000001</ele>
        <time>2015-01-06T08:39:42Z</time>
      </trkpt>
      <trkpt lat="46.112172268331051" lon="8.681752933189273">
        <ele>1043.6500000000001</ele>
        <time>2015-01-06T08:39:48Z</time>
      </trkpt>
      <trkpt lat="46.112129688262939" lon="8.681578421965241">
        <ele>1045.5699999999999</ele>
        <time>2015-01-06T08:40:01Z</time>
      </trkpt>
      <trkpt lat="46.112118037417531" lon="8.681368790566921">
        <ele>1048.45</ele>
        <time>2015-01-06T08:40:17Z</time>
      </trkpt>
      <trkpt lat="46.112119043245912" lon="8.681360073387623">
        <ele>1048.9400000000001</ele>
        <time>2015-01-06T08:40:18Z</time>
      </trkpt>
      <trkpt lat="46.112149637192488" lon="8.681233003735542">
        <ele>1050.8599999999999</ele>
        <time>2015-01-06T08:40:33Z</time>
      </trkpt>
      <trkpt lat="46.112186182290316" lon="8.681302573531866">
        <ele>1050.3800000000001</ele>
        <time>2015-01-06T08:40:49Z</time>
      </trkpt>
      <trkpt lat="46.112169837579131" lon="8.681297125294805">
        <ele>1050.3800000000001</ele>
        <time>2015-01-06T08:41:13Z</time>
      </trkpt>
      <trkpt lat="46.112147206440568" lon="8.681249683722854">
        <ele>1050.3800000000001</ele>
        <time>2015-01-06T08:41:32Z</time>
      </trkpt>
      <trkpt lat="46.112163383513689" lon="8.681267872452736">
        <ele>1050.3800000000001</ele>
        <time>2015-01-06T08:41:49Z</time>
      </trkpt>
      <trkpt lat="46.112157180905342" lon="8.681255802512169">
        <ele>1050.3800000000001</ele>
        <time>2015-01-06T08:42:16Z</time>
      </trkpt>
      <trkpt lat="46.112210908904672" lon="8.681133259087801">
        <ele>1051.8199999999999</ele>
        <time>2015-01-06T08:42:29Z</time>
      </trkpt>
      <trkpt lat="46.112303277477622" lon="8.681023204699159">
        <ele>1054.22</ele>
        <time>2015-01-06T08:42:43Z</time>
      </trkpt>
      <trkpt lat="46.112355915829539" lon="8.680886495858431">
        <ele>1056.1500000000001</ele>
        <time>2015-01-06T08:42:56Z</time>
      </trkpt>
      <trkpt lat="46.112386593595147" lon="8.680750206112862">
        <ele>1057.5899999999999</ele>
        <time>2015-01-06T08:43:09Z</time>
      </trkpt>
      <trkpt lat="46.112421546131372" lon="8.680622549727559">
        <ele>1059.03</ele>
        <time>2015-01-06T08:43:22Z</time>
      </trkpt>
      <trkpt lat="46.112450296059251" lon="8.680501934140921">
        <ele>1060.95</ele>
        <time>2015-01-06T08:43:35Z</time>
      </trkpt>
      <trkpt lat="46.112538976594806" lon="8.68057468906045">
        <ele>1062.8699999999999</ele>
        <time>2015-01-06T08:43:47Z</time>
      </trkpt>
      <trkpt lat="46.112613072618842" lon="8.680678037926555">
        <ele>1064.3199999999999</ele>
        <time>2015-01-06T08:43:59Z</time>
      </trkpt>
      <trkpt lat="46.112695131450891" lon="8.680700082331896">
        <ele>1066.24</ele>
        <time>2015-01-06T08:44:15Z</time>
      </trkpt>
      <trkpt lat="46.112723462283611" lon="8.680603355169296">
        <ele>1069.5999999999999</ele>
        <time>2015-01-06T08:44:28Z</time>
      </trkpt>
      <trkpt lat="46.112780878320336" lon="8.680536048486829">
        <ele>1070.5699999999999</ele>
        <time>2015-01-06T08:44:43Z</time>
      </trkpt>
      <trkpt lat="46.11272681504488" lon="8.680333625525236">
        <ele>1070.5699999999999</ele>
        <time>2015-01-06T08:44:59Z</time>
      </trkpt>
      <trkpt lat="46.11271801404655" lon="8.680270342156291">
        <ele>1070.5699999999999</ele>
        <time>2015-01-06T08:45:04Z</time>
      </trkpt>
      <trkpt lat="46.112763695418835" lon="8.680042941123247">
        <ele>1071.05</ele>
        <time>2015-01-06T08:45:19Z</time>
      </trkpt>
      <trkpt lat="46.112788002938032" lon="8.679946716874838">
        <ele>1072.01</ele>
        <time>2015-01-06T08:45:27Z</time>
      </trkpt>
      <trkpt lat="46.11289001069963" lon="8.679805481806397">
        <ele>1072.01</ele>
        <time>2015-01-06T08:45:42Z</time>
      </trkpt>
      <trkpt lat="46.112864948809147" lon="8.679768349975348">
        <ele>1072.01</ele>
        <time>2015-01-06T08:45:49Z</time>
      </trkpt>
      <trkpt lat="46.112732347100973" lon="8.679724261164665">
        <ele>1073.45</ele>
        <time>2015-01-06T08:46:06Z</time>
      </trkpt>
      <trkpt lat="46.112651797011495" lon="8.67965703830123">
        <ele>1076.3299999999999</ele>
        <time>2015-01-06T08:46:21Z</time>
      </trkpt>
      <trkpt lat="46.112546604126692" lon="8.679599286988378">
        <ele>1078.74</ele>
        <time>2015-01-06T08:46:37Z</time>
      </trkpt>
      <trkpt lat="46.112580886110663" lon="8.67950364947319">
        <ele>1080.6600000000001</ele>
        <time>2015-01-06T08:46:52Z</time>
      </trkpt>
      <trkpt lat="46.112605025991797" lon="8.679432487115264">
        <ele>1082.5799999999999</ele>
        <time>2015-01-06T08:47:06Z</time>
      </trkpt>
      <trkpt lat="46.112576443701982" lon="8.67932285182178">
        <ele>1084.99</ele>
        <time>2015-01-06T08:47:21Z</time>
      </trkpt>
      <trkpt lat="46.11255532130599" lon="8.679212462157011">
        <ele>1086.4300000000001</ele>
        <time>2015-01-06T08:47:34Z</time>
      </trkpt>
      <trkpt lat="46.112542748451233" lon="8.679099641740322">
        <ele>1088.3499999999999</ele>
        <time>2015-01-06T08:47:47Z</time>
      </trkpt>
      <trkpt lat="46.112602846696973" lon="8.679062509909272">
        <ele>1090.27</ele>
        <time>2015-01-06T08:48:01Z</time>
      </trkpt>
      <trkpt lat="46.112666465342045" lon="8.679126631468535">
        <ele>1092.2</ele>
        <time>2015-01-06T08:48:15Z</time>
      </trkpt>
      <trkpt lat="46.112742321565747" lon="8.679193267598748">
        <ele>1093.6400000000001</ele>
        <time>2015-01-06T08:48:29Z</time>
      </trkpt>
      <trkpt lat="46.112813148647547" lon="8.679223526269198">
        <ele>1095.0799999999999</ele>
        <time>2015-01-06T08:48:43Z</time>
      </trkpt>
      <trkpt lat="46.112886993214488" lon="8.679239451885223">
        <ele>1097.48</ele>
        <time>2015-01-06T08:48:58Z</time>
      </trkpt>
      <trkpt lat="46.113004758954048" lon="8.679250683635473">
        <ele>1098.9200000000001</ele>
        <time>2015-01-06T08:49:16Z</time>
      </trkpt>
      <trkpt lat="46.113083381205797" lon="8.679269459098578">
        <ele>1101.3299999999999</ele>
        <time>2015-01-06T08:49:30Z</time>
      </trkpt>
      <trkpt lat="46.113159991800785" lon="8.679291503503919">
        <ele>1103.73</ele>
        <time>2015-01-06T08:49:44Z</time>
      </trkpt>
      <trkpt lat="46.113163009285927" lon="8.679223358631134">
        <ele>1106.1300000000001</ele>
        <time>2015-01-06T08:49:59Z</time>
      </trkpt>
      <trkpt lat="46.113110790029168" lon="8.679115064442158">
        <ele>1108.0599999999999</ele>
        <time>2015-01-06T08:50:15Z</time>
      </trkpt>
      <trkpt lat="46.113100647926331" lon="8.678992604836822">
        <ele>1109.98</ele>
        <time>2015-01-06T08:50:31Z</time>
      </trkpt>
      <trkpt lat="46.113202823325992" lon="8.679068880155683">
        <ele>1112.8599999999999</ele>
        <time>2015-01-06T08:50:46Z</time>
      </trkpt>
      <trkpt lat="46.113278260454535" lon="8.679084135219455">
        <ele>1114.79</ele>
        <time>2015-01-06T08:51:01Z</time>
      </trkpt>
      <trkpt lat="46.113298796117306" lon="8.679124200716615">
        <ele>1115.75</ele>
        <time>2015-01-06T08:51:23Z</time>
      </trkpt>
      <trkpt lat="46.11330533400178" lon="8.679148089140654">
        <ele>1115.75</ele>
        <time>2015-01-06T08:51:46Z</time>
      </trkpt>
      <trkpt lat="46.113296700641513" lon="8.679159739986062">
        <ele>1115.75</ele>
        <time>2015-01-06T08:52:05Z</time>
      </trkpt>
      <trkpt lat="46.113303825259209" lon="8.679132917895913">
        <ele>1115.75</ele>
        <time>2015-01-06T08:52:30Z</time>
      </trkpt>
      <trkpt lat="46.113290749490261" lon="8.679152363911271">
        <ele>1115.75</ele>
        <time>2015-01-06T08:52:57Z</time>
      </trkpt>
      <trkpt lat="46.113304244354367" lon="8.6791215185076">
        <ele>1115.27</ele>
        <time>2015-01-06T08:53:20Z</time>
      </trkpt>
      <trkpt lat="46.113308016210794" lon="8.6790506914258">
        <ele>1115.75</ele>
        <time>2015-01-06T08:53:44Z</time>
      </trkpt>
      <trkpt lat="46.113279685378075" lon="8.678989754989743">
        <ele>1117.1900000000001</ele>
        <time>2015-01-06T08:53:57Z</time>
      </trkpt>
      <trkpt lat="46.113233584910631" lon="8.678892776370049">
        <ele>1119.1099999999999</ele>
        <time>2015-01-06T08:54:12Z</time>
      </trkpt>
      <trkpt lat="46.11320567317307" lon="8.67875556461513">
        <ele>1120.55</ele>
        <time>2015-01-06T08:54:27Z</time>
      </trkpt>
      <trkpt lat="46.113257808610797" lon="8.678766209632158">
        <ele>1122.48</ele>
        <time>2015-01-06T08:54:40Z</time>
      </trkpt>
      <trkpt lat="46.113341376185417" lon="8.67883519269526">
        <ele>1124.4000000000001</ele>
        <time>2015-01-06T08:54:53Z</time>
      </trkpt>
      <trkpt lat="46.113445898517966" lon="8.67892169393599">
        <ele>1126.8</ele>
        <time>2015-01-06T08:55:09Z</time>
      </trkpt>
      <trkpt lat="46.113509768620133" lon="8.678924795240164">
        <ele>1128.73</ele>
        <time>2015-01-06T08:55:22Z</time>
      </trkpt>
      <trkpt lat="46.113589145243168" lon="8.678882131353021">
        <ele>1130.6500000000001</ele>
        <time>2015-01-06T08:55:38Z</time>
      </trkpt>
      <trkpt lat="46.113578919321299" lon="8.67883712053299">
        <ele>1133.05</ele>
        <time>2015-01-06T08:55:54Z</time>
      </trkpt>
      <trkpt lat="46.113570872694254" lon="8.678750367835164">
        <ele>1135.9400000000001</ele>
        <time>2015-01-06T08:56:10Z</time>
      </trkpt>
      <trkpt lat="46.113685285672545" lon="8.678780877962709">
        <ele>1138.3399999999999</ele>
        <time>2015-01-06T08:56:29Z</time>
      </trkpt>
      <trkpt lat="46.113665169104934" lon="8.678693203255534">
        <ele>1140.26</ele>
        <time>2015-01-06T08:56:44Z</time>
      </trkpt>
      <trkpt lat="46.113614710047841" lon="8.678550207987428">
        <ele>1143.1400000000001</ele>
        <time>2015-01-06T08:57:00Z</time>
      </trkpt>
      <trkpt lat="46.113598197698593" lon="8.678419953212142">
        <ele>1145.0699999999999</ele>
        <time>2015-01-06T08:57:14Z</time>
      </trkpt>
      <trkpt lat="46.113563664257526" lon="8.67829036898911">
        <ele>1147.95</ele>
        <time>2015-01-06T08:57:32Z</time>
      </trkpt>
      <trkpt lat="46.113557545468211" lon="8.678157515823841">
        <ele>1149.8699999999999</ele>
        <time>2015-01-06T08:57:47Z</time>
      </trkpt>
      <trkpt lat="46.113629043102264" lon="8.678164388984442">
        <ele>1151.3199999999999</ele>
        <time>2015-01-06T08:58:01Z</time>
      </trkpt>
      <trkpt lat="46.113705486059189" lon="8.678202023729682">
        <ele>1153.24</ele>
        <time>2015-01-06T08:58:14Z</time>
      </trkpt>
      <trkpt lat="46.113811014220119" lon="8.678260361775756">
        <ele>1155.6400000000001</ele>
        <time>2015-01-06T08:58:30Z</time>
      </trkpt>
      <trkpt lat="46.113886618986726" lon="8.678294643759728">
        <ele>1157.5599999999999</ele>
        <time>2015-01-06T08:58:43Z</time>
      </trkpt>
      <trkpt lat="46.113933054730296" lon="8.678360693156719">
        <ele>1159.49</ele>
        <time>2015-01-06T08:58:57Z</time>
      </trkpt>
      <trkpt lat="46.114003211259842" lon="8.678372763097286">
        <ele>1161.4100000000001</ele>
        <time>2015-01-06T08:59:12Z</time>
      </trkpt>
      <trkpt lat="46.11406272277236" lon="8.678288022056222">
        <ele>1163.8099999999999</ele>
        <time>2015-01-06T08:59:27Z</time>
      </trkpt>
      <trkpt lat="46.114118210971355" lon="8.678256757557392">
        <ele>1165.74</ele>
        <time>2015-01-06T08:59:42Z</time>
      </trkpt>
      <trkpt lat="46.114184092730284" lon="8.678225493058562">
        <ele>1168.1400000000001</ele>
        <time>2015-01-06T08:59:57Z</time>
      </trkpt>
      <trkpt lat="46.114197671413422" lon="8.67818676866591">
        <ele>1170.54</ele>
        <time>2015-01-06T09:00:13Z</time>
      </trkpt>
      <trkpt lat="46.114277467131615" lon="8.67825516499579">
        <ele>1171.98</ele>
        <time>2015-01-06T09:00:27Z</time>
      </trkpt>
      <trkpt lat="46.114343516528606" lon="8.678225157782435">
        <ele>1173.9100000000001</ele>
        <time>2015-01-06T09:00:38Z</time>
      </trkpt>
      <trkpt lat="46.114372182637453" lon="8.678105631843209">
        <ele>1176.3099999999999</ele>
        <time>2015-01-06T09:00:53Z</time>
      </trkpt>
      <trkpt lat="46.114282831549644" lon="8.678146451711655">
        <ele>1178.23</ele>
        <time>2015-01-06T09:01:07Z</time>
      </trkpt>
      <trkpt lat="46.114238742738962" lon="8.678040839731693">
        <ele>1179.6700000000001</ele>
        <time>2015-01-06T09:01:20Z</time>
      </trkpt>
      <trkpt lat="46.114178979769349" lon="8.677937742322683">
        <ele>1181.5999999999999</ele>
        <time>2015-01-06T09:01:34Z</time>
      </trkpt>
      <trkpt lat="46.114264642819762" lon="8.677943777292967">
        <ele>1184</ele>
        <time>2015-01-06T09:01:48Z</time>
      </trkpt>
      <trkpt lat="46.11434318125248" lon="8.677889546379447">
        <ele>1185.9200000000001</ele>
        <time>2015-01-06T09:02:02Z</time>
      </trkpt>
      <trkpt lat="46.114350473508239" lon="8.677883762866259">
        <ele>1186.4000000000001</ele>
        <time>2015-01-06T09:02:03Z</time>
      </trkpt>
      <trkpt lat="46.114379726350307" lon="8.677864316850901">
        <ele>1186.4000000000001</ele>
        <time>2015-01-06T09:02:06Z</time>
      </trkpt>
      <trkpt lat="46.11452498473227" lon="8.677809331566095">
        <ele>1188.8099999999999</ele>
        <time>2015-01-06T09:02:22Z</time>
      </trkpt>
      <trkpt lat="46.114637972787023" lon="8.677788795903325">
        <ele>1191.6900000000001</ele>
        <time>2015-01-06T09:02:36Z</time>
      </trkpt>
      <trkpt lat="46.114719780161977" lon="8.677707994356751">
        <ele>1194.0899999999999</ele>
        <time>2015-01-06T09:02:50Z</time>
      </trkpt>
      <trkpt lat="46.114795049652457" lon="8.677603807300329">
        <ele>1196.5</ele>
        <time>2015-01-06T09:03:03Z</time>
      </trkpt>
      <trkpt lat="46.114879120141268" lon="8.67754764854908">
        <ele>1198.4200000000001</ele>
        <time>2015-01-06T09:03:15Z</time>
      </trkpt>
      <trkpt lat="46.11495497636497" lon="8.677464332431555">
        <ele>1201.3</ele>
        <time>2015-01-06T09:03:28Z</time>
      </trkpt>
      <trkpt lat="46.115044830366969" lon="8.677369197830558">
        <ele>1203.71</ele>
        <time>2015-01-06T09:03:42Z</time>
      </trkpt>
      <trkpt lat="46.115126553922892" lon="8.677268950268626">
        <ele>1205.6300000000001</ele>
        <time>2015-01-06T09:03:55Z</time>
      </trkpt>
      <trkpt lat="46.115176258608699" lon="8.677111370489001">
        <ele>1208.03</ele>
        <time>2015-01-06T09:04:09Z</time>
      </trkpt>
      <trkpt lat="46.115235518664122" lon="8.676987485960126">
        <ele>1210.4400000000001</ele>
        <time>2015-01-06T09:04:22Z</time>
      </trkpt>
      <trkpt lat="46.115308525040746" lon="8.676879359409213">
        <ele>1212.3599999999999</ele>
        <time>2015-01-06T09:04:36Z</time>
      </trkpt>
      <trkpt lat="46.115373652428389" lon="8.676724964752793">
        <ele>1214.28</ele>
        <time>2015-01-06T09:04:51Z</time>
      </trkpt>
      <trkpt lat="46.115419501438737" lon="8.676642151549459">
        <ele>1216.21</ele>
        <time>2015-01-06T09:05:03Z</time>
      </trkpt>
      <trkpt lat="46.115427296608686" lon="8.676642989739776">
        <ele>1216.21</ele>
        <time>2015-01-06T09:05:04Z</time>
      </trkpt>
      <trkpt lat="46.115460321307182" lon="8.676670817658305">
        <ele>1216.21</ele>
        <time>2015-01-06T09:05:07Z</time>
      </trkpt>
      <trkpt lat="46.115486975759268" lon="8.676733765751123">
        <ele>1216.6900000000001</ele>
        <time>2015-01-06T09:05:12Z</time>
      </trkpt>
      <trkpt lat="46.11558822914958" lon="8.676921352744103">
        <ele>1217.6500000000001</ele>
        <time>2015-01-06T09:05:28Z</time>
      </trkpt>
      <trkpt lat="46.115655703470111" lon="8.677028892561793">
        <ele>1219.0899999999999</ele>
        <time>2015-01-06T09:05:41Z</time>
      </trkpt>
      <trkpt lat="46.115714125335217" lon="8.677170965820551">
        <ele>1221.01</ele>
        <time>2015-01-06T09:05:58Z</time>
      </trkpt>
      <trkpt lat="46.115755867213011" lon="8.67725495249033">
        <ele>1222.9300000000001</ele>
        <time>2015-01-06T09:06:13Z</time>
      </trkpt>
      <trkpt lat="46.115778665989637" lon="8.677400881424546">
        <ele>1225.3399999999999</ele>
        <time>2015-01-06T09:06:27Z</time>
      </trkpt>
      <trkpt lat="46.115824179723859" lon="8.677538931369782">
        <ele>1226.78</ele>
        <time>2015-01-06T09:06:39Z</time>
      </trkpt>
      <trkpt lat="46.115926690399647" lon="8.677603472024202">
        <ele>1230.1400000000001</ele>
        <time>2015-01-06T09:06:53Z</time>
      </trkpt>
      <trkpt lat="46.116027692332864" lon="8.677628869190812">
        <ele>1232.0699999999999</ele>
        <time>2015-01-06T09:07:08Z</time>
      </trkpt>
      <trkpt lat="46.116081671789289" lon="8.67765954695642">
        <ele>1233.51</ele>
        <time>2015-01-06T09:07:20Z</time>
      </trkpt>
      <trkpt lat="46.116162221878767" lon="8.677654098719358">
        <ele>1235.4300000000001</ele>
        <time>2015-01-06T09:07:32Z</time>
      </trkpt>
      <trkpt lat="46.116125676780939" lon="8.677559131756425">
        <ele>1236.3900000000001</ele>
        <time>2015-01-06T09:07:43Z</time>
      </trkpt>
      <trkpt lat="46.116068679839373" lon="8.67741328664124">
        <ele>1238.3199999999999</ele>
        <time>2015-01-06T09:07:59Z</time>
      </trkpt>
      <trkpt lat="46.116052754223347" lon="8.677351512014866">
        <ele>1240.24</ele>
        <time>2015-01-06T09:08:09Z</time>
      </trkpt>
      <trkpt lat="46.116147385910153" lon="8.677393086254597">
        <ele>1242.1600000000001</ele>
        <time>2015-01-06T09:08:23Z</time>
      </trkpt>
      <trkpt lat="46.116248052567244" lon="8.677443712949753">
        <ele>1244.0799999999999</ele>
        <time>2015-01-06T09:08:39Z</time>
      </trkpt>
      <trkpt lat="46.116321142762899" lon="8.677387218922377">
        <ele>1246.49</ele>
        <time>2015-01-06T09:08:54Z</time>
      </trkpt>
      <trkpt lat="46.116263056173921" lon="8.677300047129393">
        <ele>1248.8900000000001</ele>
        <time>2015-01-06T09:09:08Z</time>
      </trkpt>
      <trkpt lat="46.116249980404973" lon="8.6772720515728">
        <ele>1248.8900000000001</ele>
        <time>2015-01-06T09:09:11Z</time>
      </trkpt>
      <trkpt lat="46.116199102252722" lon="8.677128134295344">
        <ele>1250.8099999999999</ele>
        <time>2015-01-06T09:09:25Z</time>
      </trkpt>
      <trkpt lat="46.116171777248383" lon="8.677000561729074">
        <ele>1252.25</ele>
        <time>2015-01-06T09:09:38Z</time>
      </trkpt>
      <trkpt lat="46.116146799176931" lon="8.676885142922401">
        <ele>1254.1800000000001</ele>
        <time>2015-01-06T09:09:50Z</time>
      </trkpt>
      <trkpt lat="46.116155348718166" lon="8.676853710785508">
        <ele>1256.0999999999999</ele>
        <time>2015-01-06T09:10:01Z</time>
      </trkpt>
      <trkpt lat="46.116253500804305" lon="8.676891513168812">
        <ele>1258.98</ele>
        <time>2015-01-06T09:10:15Z</time>
      </trkpt>
      <trkpt lat="46.116358023136854" lon="8.676998466253281">
        <ele>1260.9100000000001</ele>
        <time>2015-01-06T09:10:32Z</time>
      </trkpt>
      <trkpt lat="46.116470256820321" lon="8.677014894783497">
        <ele>1262.8299999999999</ele>
        <time>2015-01-06T09:10:49Z</time>
      </trkpt>
      <trkpt lat="46.116467574611306" lon="8.676963094621897">
        <ele>1265.23</ele>
        <time>2015-01-06T09:11:03Z</time>
      </trkpt>
      <trkpt lat="46.116406051442027" lon="8.676843401044607">
        <ele>1267.6400000000001</ele>
        <time>2015-01-06T09:11:17Z</time>
      </trkpt>
      <trkpt lat="46.116358861327171" lon="8.676718259230256">
        <ele>1269.5599999999999</ele>
        <time>2015-01-06T09:11:32Z</time>
      </trkpt>
      <trkpt lat="46.116355927661061" lon="8.676548022776842">
        <ele>1271.48</ele>
        <time>2015-01-06T09:11:47Z</time>
      </trkpt>
      <trkpt lat="46.116334889084101" lon="8.676414750516415">
        <ele>1273.8800000000001</ele>
        <time>2015-01-06T09:12:04Z</time>
      </trkpt>
      <trkpt lat="46.116384845227003" lon="8.676434783264995">
        <ele>1276.29</ele>
        <time>2015-01-06T09:12:19Z</time>
      </trkpt>
      <trkpt lat="46.116487355902791" lon="8.676484571769834">
        <ele>1279.1700000000001</ele>
        <time>2015-01-06T09:12:34Z</time>
      </trkpt>
      <trkpt lat="46.1165767069906" lon="8.676413660869002">
        <ele>1281.5699999999999</ele>
        <time>2015-01-06T09:12:49Z</time>
      </trkpt>
      <trkpt lat="46.116632949560881" lon="8.676309557631612">
        <ele>1283.02</ele>
        <time>2015-01-06T09:13:01Z</time>
      </trkpt>
      <trkpt lat="46.116696568205953" lon="8.676224648952484">
        <ele>1284.9400000000001</ele>
        <time>2015-01-06T09:13:15Z</time>
      </trkpt>
      <trkpt lat="46.116689275950193" lon="8.67619807831943">
        <ele>1286.8599999999999</ele>
        <time>2015-01-06T09:13:28Z</time>
      </trkpt>
      <trkpt lat="46.116613000631332" lon="8.676222302019596">
        <ele>1289.27</ele>
        <time>2015-01-06T09:13:40Z</time>
      </trkpt>
      <trkpt lat="46.116555081680417" lon="8.67614041082561">
        <ele>1291.1900000000001</ele>
        <time>2015-01-06T09:13:52Z</time>
      </trkpt>
      <trkpt lat="46.116566816344857" lon="8.676008060574532">
        <ele>1292.6300000000001</ele>
        <time>2015-01-06T09:14:03Z</time>
      </trkpt>
      <trkpt lat="46.11656304448843" lon="8.675856683403254">
        <ele>1294.55</ele>
        <time>2015-01-06T09:14:17Z</time>
      </trkpt>
      <trkpt lat="46.11654787324369" lon="8.675862886011601">
        <ele>1295.03</ele>
        <time>2015-01-06T09:14:23Z</time>
      </trkpt>
      <trkpt lat="46.116529935970902" lon="8.675750903785229">
        <ele>1296.48</ele>
        <time>2015-01-06T09:14:36Z</time>
      </trkpt>
      <trkpt lat="46.116556841880083" lon="8.675703965127468">
        <ele>1299.8399999999999</ele>
        <time>2015-01-06T09:14:45Z</time>
      </trkpt>
      <trkpt lat="46.116626411676407" lon="8.675748556852341">
        <ele>1300.8</ele>
        <time>2015-01-06T09:14:57Z</time>
      </trkpt>
      <trkpt lat="46.116686426103115" lon="8.675799686461687">
        <ele>1303.2</ele>
        <time>2015-01-06T09:15:10Z</time>
      </trkpt>
      <trkpt lat="46.116634290665388" lon="8.675654428079724">
        <ele>1305.1300000000001</ele>
        <time>2015-01-06T09:15:23Z</time>
      </trkpt>
      <trkpt lat="46.116602690890431" lon="8.675499195232987">
        <ele>1308.97</ele>
        <time>2015-01-06T09:15:37Z</time>
      </trkpt>
      <trkpt lat="46.116562793031335" lon="8.675406994298101">
        <ele>1309.45</ele>
        <time>2015-01-06T09:15:50Z</time>
      </trkpt>
      <trkpt lat="46.116522392258048" lon="8.675242206081748">
        <ele>1311.8599999999999</ele>
        <time>2015-01-06T09:16:05Z</time>
      </trkpt>
      <trkpt lat="46.116457851603627" lon="8.675131816416979">
        <ele>1313.78</ele>
        <time>2015-01-06T09:16:18Z</time>
      </trkpt>
      <trkpt lat="46.116367829963565" lon="8.675004411488771">
        <ele>1316.1800000000001</ele>
        <time>2015-01-06T09:16:34Z</time>
      </trkpt>
      <trkpt lat="46.116363052278757" lon="8.674866445362568">
        <ele>1319.0699999999999</ele>
        <time>2015-01-06T09:16:46Z</time>
      </trkpt>
      <trkpt lat="46.116376044228673" lon="8.674776004627347">
        <ele>1318.5899999999999</ele>
        <time>2015-01-06T09:16:53Z</time>
      </trkpt>
      <trkpt lat="46.116364309564233" lon="8.674663519486785">
        <ele>1320.03</ele>
        <time>2015-01-06T09:17:05Z</time>
      </trkpt>
      <trkpt lat="46.11636565066874" lon="8.67454064078629">
        <ele>1322.4300000000001</ele>
        <time>2015-01-06T09:17:19Z</time>
      </trkpt>
      <trkpt lat="46.116391383111477" lon="8.67445950396359">
        <ele>1324.3499999999999</ele>
        <time>2015-01-06T09:17:31Z</time>
      </trkpt>
      <trkpt lat="46.116371350362897" lon="8.674378534778953">
        <ele>1325.3099999999999</ele>
        <time>2015-01-06T09:17:44Z</time>
      </trkpt>
      <trkpt lat="46.11632508225739" lon="8.674343163147569">
        <ele>1326.28</ele>
        <time>2015-01-06T09:17:51Z</time>
      </trkpt>
      <trkpt lat="46.116296583786607" lon="8.674362106248736">
        <ele>1326.28</ele>
        <time>2015-01-06T09:17:54Z</time>
      </trkpt>
      <trkpt lat="46.11624981276691" lon="8.674363614991307">
        <ele>1326.76</ele>
        <time>2015-01-06T09:18:00Z</time>
      </trkpt>
      <trkpt lat="46.116128861904144" lon="8.674390856176615">
        <ele>1328.2</ele>
        <time>2015-01-06T09:18:15Z</time>
      </trkpt>
      <trkpt lat="46.116070607677102" lon="8.67425724864006">
        <ele>1329.6400000000001</ele>
        <time>2015-01-06T09:18:28Z</time>
      </trkpt>
      <trkpt lat="46.116012437269092" lon="8.674129256978631">
        <ele>1332.04</ele>
        <time>2015-01-06T09:18:43Z</time>
      </trkpt>
      <trkpt lat="46.115942113101482" lon="8.674023896455765">
        <ele>1333.97</ele>
        <time>2015-01-06T09:18:57Z</time>
      </trkpt>
      <trkpt lat="46.115871956571937" lon="8.673913422971964">
        <ele>1335.8900000000001</ele>
        <time>2015-01-06T09:19:10Z</time>
      </trkpt>
      <trkpt lat="46.11585552804172" lon="8.673858102411032">
        <ele>1337.3299999999999</ele>
        <time>2015-01-06T09:19:22Z</time>
      </trkpt>
      <trkpt lat="46.115945130586624" lon="8.673865227028728">
        <ele>1339.25</ele>
        <time>2015-01-06T09:19:36Z</time>
      </trkpt>
      <trkpt lat="46.116019813343883" lon="8.673863802105188">
        <ele>1340.7</ele>
        <time>2015-01-06T09:19:48Z</time>
      </trkpt>
      <trkpt lat="46.116105811670423" lon="8.673913506790996">
        <ele>1342.6199999999999</ele>
        <time>2015-01-06T09:19:59Z</time>
      </trkpt>
      <trkpt lat="46.116150319576263" lon="8.673927923664451">
        <ele>1343.5799999999999</ele>
        <time>2015-01-06T09:20:05Z</time>
      </trkpt>
      <trkpt lat="46.116194827482104" lon="8.673929264768958">
        <ele>1344.54</ele>
        <time>2015-01-06T09:20:11Z</time>
      </trkpt>
      <trkpt lat="46.116291973739862" lon="8.673947956413031">
        <ele>1345.98</ele>
        <time>2015-01-06T09:20:24Z</time>
      </trkpt>
      <trkpt lat="46.116386186331511" lon="8.673964636400342">
        <ele>1348.3900000000001</ele>
        <time>2015-01-06T09:20:38Z</time>
      </trkpt>
      <trkpt lat="46.116439159959555" lon="8.673967905342579">
        <ele>1349.8299999999999</ele>
        <time>2015-01-06T09:20:53Z</time>
      </trkpt>
      <trkpt lat="46.116432286798954" lon="8.673975951969624">
        <ele>1349.3499999999999</ele>
        <time>2015-01-06T09:21:16Z</time>
      </trkpt>
      <trkpt lat="46.116413092240691" lon="8.67395332083106">
        <ele>1349.3499999999999</ele>
        <time>2015-01-06T09:21:39Z</time>
      </trkpt>
      <trkpt lat="46.116432622075081" lon="8.673943849280477">
        <ele>1349.8299999999999</ele>
        <time>2015-01-06T09:21:58Z</time>
      </trkpt>
      <trkpt lat="46.116424575448036" lon="8.673950051888824">
        <ele>1349.8299999999999</ele>
        <time>2015-01-06T09:22:22Z</time>
      </trkpt>
      <trkpt lat="46.116429185494781" lon="8.673912333324552">
        <ele>1350.3099999999999</ele>
        <time>2015-01-06T09:22:46Z</time>
      </trkpt>
      <trkpt lat="46.116486852988601" lon="8.673915015533567">
        <ele>1351.75</ele>
        <time>2015-01-06T09:23:03Z</time>
      </trkpt>
      <trkpt lat="46.116592967882752" lon="8.673880062997341">
        <ele>1353.6700000000001</ele>
        <time>2015-01-06T09:23:19Z</time>
      </trkpt>
      <trkpt lat="46.116702351719141" lon="8.673816025257111">
        <ele>1355.5999999999999</ele>
        <time>2015-01-06T09:23:32Z</time>
      </trkpt>
      <trkpt lat="46.116731772199273" lon="8.673914764076471">
        <ele>1357.04</ele>
        <time>2015-01-06T09:23:43Z</time>
      </trkpt>
      <trkpt lat="46.116761527955532" lon="8.674021130427718">
        <ele>1357.52</ele>
        <time>2015-01-06T09:23:50Z</time>
      </trkpt>
      <trkpt lat="46.116773262619972" lon="8.67406077682972">
        <ele>1358</ele>
        <time>2015-01-06T09:23:53Z</time>
      </trkpt>
      <trkpt lat="46.116855992004275" lon="8.674126574769616">
        <ele>1359.9200000000001</ele>
        <time>2015-01-06T09:24:07Z</time>
      </trkpt>
      <trkpt lat="46.116926483809948" lon="8.674281723797321">
        <ele>1362.8099999999999</ele>
        <time>2015-01-06T09:24:24Z</time>
      </trkpt>
      <trkpt lat="46.116998484358191" lon="8.674365961924195">
        <ele>1365.21</ele>
        <time>2015-01-06T09:24:40Z</time>
      </trkpt>
      <trkpt lat="46.117006614804268" lon="8.674252722412348">
        <ele>1367.1300000000001</ele>
        <time>2015-01-06T09:24:51Z</time>
      </trkpt>
      <trkpt lat="46.117018014192581" lon="8.674186505377293">
        <ele>1368.0899999999999</ele>
        <time>2015-01-06T09:24:57Z</time>
      </trkpt>
      <trkpt lat="46.117032431066036" lon="8.674088018015027">
        <ele>1369.05</ele>
        <time>2015-01-06T09:25:06Z</time>
      </trkpt>
      <trkpt lat="46.116993119940162" lon="8.673956673592329">
        <ele>1371.46</ele>
        <time>2015-01-06T09:25:22Z</time>
      </trkpt>
      <trkpt lat="46.116977110505104" lon="8.673842344433069">
        <ele>1373.3800000000001</ele>
        <time>2015-01-06T09:25:36Z</time>
      </trkpt>
      <trkpt lat="46.117080878466368" lon="8.673972431570292">
        <ele>1375.78</ele>
        <time>2015-01-06T09:25:50Z</time>
      </trkpt>
      <trkpt lat="46.117150783538818" lon="8.674094974994659">
        <ele>1378.1900000000001</ele>
        <time>2015-01-06T09:26:05Z</time>
      </trkpt>
      <trkpt lat="46.117196213454008" lon="8.674279041588306">
        <ele>1380.1099999999999</ele>
        <time>2015-01-06T09:26:20Z</time>
      </trkpt>
      <trkpt lat="46.1172588262707" lon="8.674416756257415">
        <ele>1382.51</ele>
        <time>2015-01-06T09:26:35Z</time>
      </trkpt>
      <trkpt lat="46.117345662787557" lon="8.674498898908496">
        <ele>1384.9200000000001</ele>
        <time>2015-01-06T09:26:50Z</time>
      </trkpt>
      <trkpt lat="46.117427386343479" lon="8.674533097073436">
        <ele>1386.8399999999999</ele>
        <time>2015-01-06T09:27:02Z</time>
      </trkpt>
      <trkpt lat="46.117513133212924" lon="8.674438213929534">
        <ele>1389.72</ele>
        <time>2015-01-06T09:27:16Z</time>
      </trkpt>
      <trkpt lat="46.117564681917429" lon="8.674351964145899">
        <ele>1391.6500000000001</ele>
        <time>2015-01-06T09:27:31Z</time>
      </trkpt>
      <trkpt lat="46.117558311671019" lon="8.674360262230039">
        <ele>1391.6500000000001</ele>
        <time>2015-01-06T09:27:55Z</time>
      </trkpt>
      <trkpt lat="46.117465691640973" lon="8.674400076270104">
        <ele>1392.6099999999999</ele>
        <time>2015-01-06T09:28:18Z</time>
      </trkpt>
      <trkpt lat="46.117429481819272" lon="8.674310138449073">
        <ele>1394.53</ele>
        <time>2015-01-06T09:28:31Z</time>
      </trkpt>
      <trkpt lat="46.117529980838299" lon="8.674260517582297">
        <ele>1396.45</ele>
        <time>2015-01-06T09:28:44Z</time>
      </trkpt>
      <trkpt lat="46.117562670260668" lon="8.674186170101166">
        <ele>1397.8900000000001</ele>
        <time>2015-01-06T09:28:50Z</time>
      </trkpt>
      <trkpt lat="46.117584882304072" lon="8.674150044098496">
        <ele>1399.3399999999999</ele>
        <time>2015-01-06T09:28:53Z</time>
      </trkpt>
      <trkpt lat="46.117642801254988" lon="8.67398651316762">
        <ele>1399.8199999999999</ele>
        <time>2015-01-06T09:29:09Z</time>
      </trkpt>
      <trkpt lat="46.117658978328109" lon="8.673942675814033">
        <ele>1401.26</ele>
        <time>2015-01-06T09:29:13Z</time>
      </trkpt>
      <trkpt lat="46.117669707164168" lon="8.673846032470465">
        <ele>1403.6600000000001</ele>
        <time>2015-01-06T09:29:28Z</time>
      </trkpt>
      <trkpt lat="46.117602065205574" lon="8.673860030248761">
        <ele>1405.5799999999999</ele>
        <time>2015-01-06T09:29:42Z</time>
      </trkpt>
      <trkpt lat="46.117603071033955" lon="8.673856342211366">
        <ele>1405.5799999999999</ele>
        <time>2015-01-06T09:29:43Z</time>
      </trkpt>
      <trkpt lat="46.117604747414589" lon="8.673844607546926">
        <ele>1405.0999999999999</ele>
        <time>2015-01-06T09:29:53Z</time>
      </trkpt>
      <trkpt lat="46.117601562291384" lon="8.673790041357279">
        <ele>1404.6199999999999</ele>
        <time>2015-01-06T09:30:24Z</time>
      </trkpt>
      <trkpt lat="46.117607429623604" lon="8.673824574798346">
        <ele>1405.5799999999999</ele>
        <time>2015-01-06T09:30:53Z</time>
      </trkpt>
      <trkpt lat="46.117599382996559" lon="8.673815438523889">
        <ele>1406.0699999999999</ele>
        <time>2015-01-06T09:31:03Z</time>
      </trkpt>
      <trkpt lat="46.117556635290384" lon="8.673780653625727">
        <ele>1406.0699999999999</ele>
        <time>2015-01-06T09:31:16Z</time>
      </trkpt>
      <trkpt lat="46.117570297792554" lon="8.673793561756611">
        <ele>1405.0999999999999</ele>
        <time>2015-01-06T09:31:30Z</time>
      </trkpt>
      <trkpt lat="46.117594186216593" lon="8.673790376633406">
        <ele>1406.0699999999999</ele>
        <time>2015-01-06T09:31:46Z</time>
      </trkpt>
      <trkpt lat="46.117618996649981" lon="8.673769840970635">
        <ele>1406.55</ele>
        <time>2015-01-06T09:32:03Z</time>
      </trkpt>
      <trkpt lat="46.11762436106801" lon="8.673787191510201">
        <ele>1406.0699999999999</ele>
        <time>2015-01-06T09:32:21Z</time>
      </trkpt>
      <trkpt lat="46.117629641667008" lon="8.673775121569634">
        <ele>1406.0699999999999</ele>
        <time>2015-01-06T09:32:34Z</time>
      </trkpt>
      <trkpt lat="46.117639783769846" lon="8.673766572028399">
        <ele>1406.0699999999999</ele>
        <time>2015-01-06T09:32:52Z</time>
      </trkpt>
      <trkpt lat="46.117613967508078" lon="8.673769338056445">
        <ele>1406.55</ele>
        <time>2015-01-06T09:33:08Z</time>
      </trkpt>
      <trkpt lat="46.117600640282035" lon="8.673766069114208">
        <ele>1406.55</ele>
        <time>2015-01-06T09:33:32Z</time>
      </trkpt>
      <trkpt lat="46.11762092448771" lon="8.673794148489833">
        <ele>1406.55</ele>
        <time>2015-01-06T09:33:58Z</time>
      </trkpt>
      <trkpt lat="46.117620589211583" lon="8.673791885375977">
        <ele>1406.55</ele>
        <time>2015-01-06T09:34:14Z</time>
      </trkpt>
      <trkpt lat="46.117606339976192" lon="8.673767913132906">
        <ele>1406.55</ele>
        <time>2015-01-06T09:34:36Z</time>
      </trkpt>
      <trkpt lat="46.117611285299063" lon="8.673770511522889">
        <ele>1406.55</ele>
        <time>2015-01-06T09:34:53Z</time>
      </trkpt>
      <trkpt lat="46.117606842890382" lon="8.673776546493173">
        <ele>1406.55</ele>
        <time>2015-01-06T09:35:08Z</time>
      </trkpt>
      <trkpt lat="46.11760918982327" lon="8.673772606998682">
        <ele>1406.55</ele>
        <time>2015-01-06T09:35:29Z</time>
      </trkpt>
      <trkpt lat="46.117601143196225" lon="8.673755759373307">
        <ele>1406.55</ele>
        <time>2015-01-06T09:35:46Z</time>
      </trkpt>
      <trkpt lat="46.117616565898061" lon="8.673765063285828">
        <ele>1407.03</ele>
        <time>2015-01-06T09:36:02Z</time>
      </trkpt>
      <trkpt lat="46.117609106004238" lon="8.673775289207697">
        <ele>1406.55</ele>
        <time>2015-01-06T09:36:25Z</time>
      </trkpt>
      <trkpt lat="46.117605501785874" lon="8.673768416047096">
        <ele>1407.03</ele>
        <time>2015-01-06T09:36:41Z</time>
      </trkpt>
      <trkpt lat="46.117612039670348" lon="8.673806888982654">
        <ele>1407.03</ele>
        <time>2015-01-06T09:37:03Z</time>
      </trkpt>
      <trkpt lat="46.117635844275355" lon="8.67369675077498">
        <ele>1407.99</ele>
        <time>2015-01-06T09:37:21Z</time>
      </trkpt>
      <trkpt lat="46.117631904780865" lon="8.673707731068134">
        <ele>1408.47</ele>
        <time>2015-01-06T09:37:38Z</time>
      </trkpt>
      <trkpt lat="46.117653530091047" lon="8.673725333064795">
        <ele>1408.47</ele>
        <time>2015-01-06T09:38:07Z</time>
      </trkpt>
      <trkpt lat="46.11765218898654" lon="8.673727763816714">
        <ele>1407.99</ele>
        <time>2015-01-06T09:38:26Z</time>
      </trkpt>
      <trkpt lat="46.117649087682366" lon="8.673728602007031">
        <ele>1407.99</ele>
        <time>2015-01-06T09:38:39Z</time>
      </trkpt>
      <trkpt lat="46.117634335532784" lon="8.673770511522889">
        <ele>1407.51</ele>
        <time>2015-01-06T09:38:51Z</time>
      </trkpt>
      <trkpt lat="46.117635006085038" lon="8.67378861643374">
        <ele>1407.99</ele>
        <time>2015-01-06T09:39:07Z</time>
      </trkpt>
      <trkpt lat="46.117650847882032" lon="8.673799512907863">
        <ele>1407.51</ele>
        <time>2015-01-06T09:39:24Z</time>
      </trkpt>
      <trkpt lat="46.117648584768176" lon="8.673792472109199">
        <ele>1407.51</ele>
        <time>2015-01-06T09:39:45Z</time>
      </trkpt>
      <trkpt lat="46.117649171501398" lon="8.673799596726894">
        <ele>1407.03</ele>
        <time>2015-01-06T09:40:06Z</time>
      </trkpt>
      <trkpt lat="46.117646740749478" lon="8.673790041357279">
        <ele>1407.51</ele>
        <time>2015-01-06T09:40:26Z</time>
      </trkpt>
      <trkpt lat="46.117630815133452" lon="8.673736397176981">
        <ele>1407.51</ele>
        <time>2015-01-06T09:40:43Z</time>
      </trkpt>
      <trkpt lat="46.117657385766506" lon="8.67367135360837">
        <ele>1408.95</ele>
        <time>2015-01-06T09:40:57Z</time>
      </trkpt>
      <trkpt lat="46.11770692281425" lon="8.673545960336924">
        <ele>1409.9100000000001</ele>
        <time>2015-01-06T09:41:11Z</time>
      </trkpt>
      <trkpt lat="46.117756711319089" lon="8.673451580107212">
        <ele>1412.3099999999999</ele>
        <time>2015-01-06T09:41:25Z</time>
      </trkpt>
      <trkpt lat="46.117809014394879" lon="8.673366755247116">
        <ele>1414.24</ele>
        <time>2015-01-06T09:41:36Z</time>
      </trkpt>
      <trkpt lat="46.117837848141789" lon="8.673255611211062">
        <ele>1416.1600000000001</ele>
        <time>2015-01-06T09:41:49Z</time>
      </trkpt>
      <trkpt lat="46.117859808728099" lon="8.673162907361984">
        <ele>1418.0799999999999</ele>
        <time>2015-01-06T09:42:01Z</time>
      </trkpt>
      <trkpt lat="46.117910100147128" lon="8.673069532960653">
        <ele>1420.49</ele>
        <time>2015-01-06T09:42:14Z</time>
      </trkpt>
      <trkpt lat="46.118026860058308" lon="8.673064084723592">
        <ele>1421.45</ele>
        <time>2015-01-06T09:42:26Z</time>
      </trkpt>
      <trkpt lat="46.118150325492024" lon="8.673024019226432">
        <ele>1421.45</ele>
        <time>2015-01-06T09:42:40Z</time>
      </trkpt>
      <trkpt lat="46.118191312998533" lon="8.673012536019087">
        <ele>1421.9300000000001</ele>
        <time>2015-01-06T09:42:45Z</time>
      </trkpt>
      <trkpt lat="46.118330117315054" lon="8.672839114442468">
        <ele>1423.3699999999999</ele>
        <time>2015-01-06T09:43:03Z</time>
      </trkpt>
      <trkpt lat="46.118462719023228" lon="8.672886472195387">
        <ele>1425.77</ele>
        <time>2015-01-06T09:43:19Z</time>
      </trkpt>
      <trkpt lat="46.118566067889333" lon="8.672893680632114">
        <ele>1428.1800000000001</ele>
        <time>2015-01-06T09:43:33Z</time>
      </trkpt>
      <trkpt lat="46.118614850565791" lon="8.672800725325942">
        <ele>1431.0599999999999</ele>
        <time>2015-01-06T09:43:50Z</time>
      </trkpt>
      <trkpt lat="46.118606133386493" lon="8.672806425020099">
        <ele>1431.0599999999999</ele>
        <time>2015-01-06T09:43:51Z</time>
      </trkpt>
      <trkpt lat="46.118476800620556" lon="8.672775076702237">
        <ele>1433.46</ele>
        <time>2015-01-06T09:44:07Z</time>
      </trkpt>
      <trkpt lat="46.118381163105369" lon="8.672699220478535">
        <ele>1435.3900000000001</ele>
        <time>2015-01-06T09:44:22Z</time>
      </trkpt>
      <trkpt lat="46.118460539728403" lon="8.672689581289887">
        <ele>1437.79</ele>
        <time>2015-01-06T09:44:35Z</time>
      </trkpt>
      <trkpt lat="46.118547795340419" lon="8.672608695924282">
        <ele>1439.71</ele>
        <time>2015-01-06T09:44:50Z</time>
      </trkpt>
      <trkpt lat="46.118565984070301" lon="8.672508783638477">
        <ele>1441.6300000000001</ele>
        <time>2015-01-06T09:45:05Z</time>
      </trkpt>
      <trkpt lat="46.118452325463295" lon="8.672573240473867">
        <ele>1444.52</ele>
        <time>2015-01-06T09:45:20Z</time>
      </trkpt>
      <trkpt lat="46.118416199460626" lon="8.672566870227456">
        <ele>1445</ele>
        <time>2015-01-06T09:45:25Z</time>
      </trkpt>
      <trkpt lat="46.11837487667799" lon="8.672421779483557">
        <ele>1447.4000000000001</ele>
        <time>2015-01-06T09:45:43Z</time>
      </trkpt>
      <trkpt lat="46.118466658517718" lon="8.672425635159016">
        <ele>1449.8099999999999</ele>
        <time>2015-01-06T09:45:57Z</time>
      </trkpt>
      <trkpt lat="46.118471939116716" lon="8.672406608238816">
        <ele>1450.29</ele>
        <time>2015-01-06T09:45:59Z</time>
      </trkpt>
      <trkpt lat="46.118503203615546" lon="8.672253638505936">
        <ele>1451.73</ele>
        <time>2015-01-06T09:46:13Z</time>
      </trkpt>
      <trkpt lat="46.118464814499021" lon="8.672287166118622">
        <ele>1453.6500000000001</ele>
        <time>2015-01-06T09:46:26Z</time>
      </trkpt>
      <trkpt lat="46.118359370157123" lon="8.672289680689573">
        <ele>1455.5699999999999</ele>
        <time>2015-01-06T09:46:41Z</time>
      </trkpt>
      <trkpt lat="46.118259960785508" lon="8.672256907448173">
        <ele>1457.98</ele>
        <time>2015-01-06T09:46:56Z</time>
      </trkpt>
      <trkpt lat="46.118312515318394" lon="8.67217811755836">
        <ele>1459.9000000000001</ele>
        <time>2015-01-06T09:47:06Z</time>
      </trkpt>
      <trkpt lat="46.118403458967805" lon="8.672122713178396">
        <ele>1461.3399999999999</ele>
        <time>2015-01-06T09:47:20Z</time>
      </trkpt>
      <trkpt lat="46.118397926911712" lon="8.672086168080568">
        <ele>1463.26</ele>
        <time>2015-01-06T09:47:33Z</time>
      </trkpt>
      <trkpt lat="46.118402369320393" lon="8.672023639082909">
        <ele>1465.6700000000001</ele>
        <time>2015-01-06T09:47:48Z</time>
      </trkpt>
      <trkpt lat="46.118382252752781" lon="8.672012742608786">
        <ele>1467.5899999999999</ele>
        <time>2015-01-06T09:48:00Z</time>
      </trkpt>
      <trkpt lat="46.118346964940429" lon="8.671977370977402">
        <ele>1469.99</ele>
        <time>2015-01-06T09:48:15Z</time>
      </trkpt>
      <trkpt lat="46.118416031822562" lon="8.671863544732332">
        <ele>1472.4000000000001</ele>
        <time>2015-01-06T09:48:28Z</time>
      </trkpt>
      <trkpt lat="46.118419719859958" lon="8.671733876690269">
        <ele>1474.3199999999999</ele>
        <time>2015-01-06T09:48:42Z</time>
      </trkpt>
      <trkpt lat="46.118398597463965" lon="8.671596329659224">
        <ele>1476.72</ele>
        <time>2015-01-06T09:48:57Z</time>
      </trkpt>
      <trkpt lat="46.11838711425662" lon="8.671498345211148">
        <ele>1478.6500000000001</ele>
        <time>2015-01-06T09:49:10Z</time>
      </trkpt>
      <trkpt lat="46.118391389027238" lon="8.671356271952391">
        <ele>1481.53</ele>
        <time>2015-01-06T09:49:24Z</time>
      </trkpt>
      <trkpt lat="46.118419133126736" lon="8.671213192865253">
        <ele>1483.9300000000001</ele>
        <time>2015-01-06T09:49:39Z</time>
      </trkpt>
      <trkpt lat="46.118445200845599" lon="8.671113615855575">
        <ele>1485.3699999999999</ele>
        <time>2015-01-06T09:49:51Z</time>
      </trkpt>
      <trkpt lat="46.118446541950107" lon="8.67105720564723">
        <ele>1485.8499999999999</ele>
        <time>2015-01-06T09:49:58Z</time>
      </trkpt>
      <trkpt lat="46.11848333850503" lon="8.670947989448905">
        <ele>1488.26</ele>
        <time>2015-01-06T09:50:10Z</time>
      </trkpt>
      <trkpt lat="46.118471436202526" lon="8.670966932550073">
        <ele>1488.74</ele>
        <time>2015-01-06T09:50:13Z</time>
      </trkpt>
      <trkpt lat="46.118417456746101" lon="8.671100791543722">
        <ele>1491.1400000000001</ele>
        <time>2015-01-06T09:50:27Z</time>
      </trkpt>
      <trkpt lat="46.118345959112048" lon="8.671163320541382">
        <ele>1492.5799999999999</ele>
        <time>2015-01-06T09:50:39Z</time>
      </trkpt>
      <trkpt lat="46.118282927200198" lon="8.671189388260245">
        <ele>1494.99</ele>
        <time>2015-01-06T09:50:51Z</time>
      </trkpt>
      <trkpt lat="46.118321567773819" lon="8.671020912006497">
        <ele>1495.95</ele>
        <time>2015-01-06T09:51:05Z</time>
      </trkpt>
      <trkpt lat="46.118333302438259" lon="8.670935416594148">
        <ele>1498.3499999999999</ele>
        <time>2015-01-06T09:51:22Z</time>
      </trkpt>
      <trkpt lat="46.118258954957128" lon="8.671007081866264">
        <ele>1500.76</ele>
        <time>2015-01-06T09:51:36Z</time>
      </trkpt>
      <trkpt lat="46.118292650207877" lon="8.67085880599916">
        <ele>1502.6800000000001</ele>
        <time>2015-01-06T09:51:49Z</time>
      </trkpt>
      <trkpt lat="46.118343276903033" lon="8.670731065794826">
        <ele>1505.0799999999999</ele>
        <time>2015-01-06T09:52:05Z</time>
      </trkpt>
      <trkpt lat="46.118356687948108" lon="8.670641295611858">
        <ele>1507.48</ele>
        <time>2015-01-06T09:52:20Z</time>
      </trkpt>
      <trkpt lat="46.118356436491013" lon="8.670595698058605">
        <ele>1509.4100000000001</ele>
        <time>2015-01-06T09:52:32Z</time>
      </trkpt>
      <trkpt lat="46.118441512808204" lon="8.670491678640246">
        <ele>1510.8499999999999</ele>
        <time>2015-01-06T09:52:46Z</time>
      </trkpt>
      <trkpt lat="46.118420390412211" lon="8.67052361369133">
        <ele>1513.25</ele>
        <time>2015-01-06T09:52:59Z</time>
      </trkpt>
      <trkpt lat="46.118375966325402" lon="8.67052897810936">
        <ele>1514.6900000000001</ele>
        <time>2015-01-06T09:53:10Z</time>
      </trkpt>
      <trkpt lat="46.118348306044936" lon="8.670527637004852">
        <ele>1516.1400000000001</ele>
        <time>2015-01-06T09:53:21Z</time>
      </trkpt>
      <trkpt lat="46.118377223610878" lon="8.670427473261952">
        <ele>1518.0599999999999</ele>
        <time>2015-01-06T09:53:33Z</time>
      </trkpt>
      <trkpt lat="46.118426425382495" lon="8.670304426923394">
        <ele>1519.98</ele>
        <time>2015-01-06T09:53:47Z</time>
      </trkpt>
      <trkpt lat="46.118449727073312" lon="8.670193115249276">
        <ele>1521.9000000000001</ele>
        <time>2015-01-06T09:54:00Z</time>
      </trkpt>
      <trkpt lat="46.118540251627564" lon="8.670048275962472">
        <ele>1524.3099999999999</ele>
        <time>2015-01-06T09:54:17Z</time>
      </trkpt>
      <trkpt lat="46.118529606610537" lon="8.670067051425576">
        <ele>1526.71</ele>
        <time>2015-01-06T09:54:32Z</time>
      </trkpt>
      <trkpt lat="46.118423491716385" lon="8.670095633715391">
        <ele>1529.1099999999999</ele>
        <time>2015-01-06T09:54:47Z</time>
      </trkpt>
      <trkpt lat="46.118470514193177" lon="8.67000469006598">
        <ele>1530.5599999999999</ele>
        <time>2015-01-06T09:54:58Z</time>
      </trkpt>
      <trkpt lat="46.118462886661291" lon="8.670002762228251">
        <ele>1531.04</ele>
        <time>2015-01-06T09:55:00Z</time>
      </trkpt>
      <trkpt lat="46.118404632434249" lon="8.670003181323409">
        <ele>1532.48</ele>
        <time>2015-01-06T09:55:08Z</time>
      </trkpt>
      <trkpt lat="46.118467748165131" lon="8.669921038672328">
        <ele>1534.4000000000001</ele>
        <time>2015-01-06T09:55:22Z</time>
      </trkpt>
      <trkpt lat="46.118524242192507" lon="8.669787012040615">
        <ele>1536.8</ele>
        <time>2015-01-06T09:55:39Z</time>
      </trkpt>
      <trkpt lat="46.118591129779816" lon="8.669716352596879">
        <ele>1538.73</ele>
        <time>2015-01-06T09:55:51Z</time>
      </trkpt>
      <trkpt lat="46.118615018203855" lon="8.669710485264659">
        <ele>1538.73</ele>
        <time>2015-01-06T09:55:56Z</time>
      </trkpt>
      <trkpt lat="46.118644271045923" lon="8.669730182737112">
        <ele>1539.21</ele>
        <time>2015-01-06T09:56:07Z</time>
      </trkpt>
      <trkpt lat="46.118664303794503" lon="8.669719705358148">
        <ele>1539.21</ele>
        <time>2015-01-06T09:56:21Z</time>
      </trkpt>
      <trkpt lat="46.118702189996839" lon="8.669724063947797">
        <ele>1540.1700000000001</ele>
        <time>2015-01-06T09:56:27Z</time>
      </trkpt>
      <trkpt lat="46.118752984330058" lon="8.669697996228933">
        <ele>1541.6099999999999</ele>
        <time>2015-01-06T09:56:38Z</time>
      </trkpt>
      <trkpt lat="46.118688443675637" lon="8.669657930731773">
        <ele>1543.53</ele>
        <time>2015-01-06T09:56:50Z</time>
      </trkpt>
      <trkpt lat="46.118776286020875" lon="8.669668827205896">
        <ele>1544.98</ele>
        <time>2015-01-06T09:57:04Z</time>
      </trkpt>
      <trkpt lat="46.118844347074628" lon="8.669664803892374">
        <ele>1547.8599999999999</ele>
        <time>2015-01-06T09:57:17Z</time>
      </trkpt>
      <trkpt lat="46.118883155286312" lon="8.669653572142124">
        <ele>1548.8199999999999</ele>
        <time>2015-01-06T09:57:28Z</time>
      </trkpt>
      <trkpt lat="46.118899080902338" lon="8.669653823599219">
        <ele>1549.3</ele>
        <time>2015-01-06T09:57:30Z</time>
      </trkpt>
      <trkpt lat="46.118931686505675" lon="8.669567909091711">
        <ele>1550.74</ele>
        <time>2015-01-06T09:57:43Z</time>
      </trkpt>
      <trkpt lat="46.118984995409846" lon="8.66941737011075">
        <ele>1552.1900000000001</ele>
        <time>2015-01-06T09:57:58Z</time>
      </trkpt>
      <trkpt lat="46.118991700932384" lon="8.669391302391887">
        <ele>1552.6700000000001</ele>
        <time>2015-01-06T09:58:01Z</time>
      </trkpt>
      <trkpt lat="46.119020786136389" lon="8.669335646554828">
        <ele>1553.1500000000001</ele>
        <time>2015-01-06T09:58:07Z</time>
      </trkpt>
      <trkpt lat="46.119110053405166" lon="8.669210756197572">
        <ele>1555.55</ele>
        <time>2015-01-06T09:58:24Z</time>
      </trkpt>
      <trkpt lat="46.119129415601492" lon="8.669197512790561">
        <ele>1556.03</ele>
        <time>2015-01-06T09:58:28Z</time>
      </trkpt>
      <trkpt lat="46.119162775576115" lon="8.669197596609592">
        <ele>1556.99</ele>
        <time>2015-01-06T09:58:32Z</time>
      </trkpt>
      <trkpt lat="46.119241984561086" lon="8.669124003499746">
        <ele>1558.4300000000001</ele>
        <time>2015-01-06T09:58:46Z</time>
      </trkpt>
      <trkpt lat="46.119246343150735" lon="8.669077316299081">
        <ele>1559.4000000000001</ele>
        <time>2015-01-06T09:59:00Z</time>
      </trkpt>
      <trkpt lat="46.119157578796148" lon="8.669065497815609">
        <ele>1561.8</ele>
        <time>2015-01-06T09:59:16Z</time>
      </trkpt>
      <trkpt lat="46.119211474433541" lon="8.668971788138151">
        <ele>1563.24</ele>
        <time>2015-01-06T09:59:27Z</time>
      </trkpt>
      <trkpt lat="46.119278613477945" lon="8.668877324089408">
        <ele>1565.1600000000001</ele>
        <time>2015-01-06T09:59:41Z</time>
      </trkpt>
      <trkpt lat="46.119277188554406" lon="8.668829631060362">
        <ele>1567.5699999999999</ele>
        <time>2015-01-06T09:59:53Z</time>
      </trkpt>
      <trkpt lat="46.119178785011172" lon="8.66883834823966">
        <ele>1569.01</ele>
        <time>2015-01-06T10:00:08Z</time>
      </trkpt>
      <trkpt lat="46.119116591289639" lon="8.668900961056352">
        <ele>1570.45</ele>
        <time>2015-01-06T10:00:19Z</time>
      </trkpt>
      <trkpt lat="46.119119273498654" lon="8.668810939416289">
        <ele>1572.8499999999999</ele>
        <time>2015-01-06T10:00:32Z</time>
      </trkpt>
      <trkpt lat="46.119148023426533" lon="8.668727707117796">
        <ele>1573.3299999999999</ele>
        <time>2015-01-06T10:00:46Z</time>
      </trkpt>
      <trkpt lat="46.119203176349401" lon="8.668675990775228">
        <ele>1574.78</ele>
        <time>2015-01-06T10:00:56Z</time>
      </trkpt>
      <trkpt lat="46.119252294301987" lon="8.668621173128486">
        <ele>1577.1800000000001</ele>
        <time>2015-01-06T10:01:07Z</time>
      </trkpt>
      <trkpt lat="46.119329575449228" lon="8.668577671051025">
        <ele>1577.1800000000001</ele>
        <time>2015-01-06T10:01:19Z</time>
      </trkpt>
      <trkpt lat="46.119375508278608" lon="8.668526457622647">
        <ele>1578.6199999999999</ele>
        <time>2015-01-06T10:01:32Z</time>
      </trkpt>
      <trkpt lat="46.119347764179111" lon="8.66852511651814">
        <ele>1579.5799999999999</ele>
        <time>2015-01-06T10:01:39Z</time>
      </trkpt>
      <trkpt lat="46.119283558800817" lon="8.668528804555535">
        <ele>1581.03</ele>
        <time>2015-01-06T10:01:50Z</time>
      </trkpt>
      <trkpt lat="46.119236117228866" lon="8.668466610834003">
        <ele>1582.47</ele>
        <time>2015-01-06T10:02:03Z</time>
      </trkpt>
      <trkpt lat="46.11923829652369" lon="8.668417828157544">
        <ele>1583.9100000000001</ele>
        <time>2015-01-06T10:02:13Z</time>
      </trkpt>
      <trkpt lat="46.119245588779449" lon="8.668381785973907">
        <ele>1584.8699999999999</ele>
        <time>2015-01-06T10:02:24Z</time>
      </trkpt>
      <trkpt lat="46.119302837178111" lon="8.668380361050367">
        <ele>1587.27</ele>
        <time>2015-01-06T10:02:36Z</time>
      </trkpt>
      <trkpt lat="46.119333179667592" lon="8.668350270017982">
        <ele>1587.75</ele>
        <time>2015-01-06T10:02:43Z</time>
      </trkpt>
      <trkpt lat="46.119414651766419" lon="8.668247340247035">
        <ele>1589.2</ele>
        <time>2015-01-06T10:02:59Z</time>
      </trkpt>
      <trkpt lat="46.119390595704317" lon="8.668243149295449">
        <ele>1589.2</ele>
        <time>2015-01-06T10:03:11Z</time>
      </trkpt>
      <trkpt lat="46.119323372840881" lon="8.668210878968239">
        <ele>1590.1600000000001</ele>
        <time>2015-01-06T10:03:23Z</time>
      </trkpt>
      <trkpt lat="46.119273919612169" lon="8.668203670531511">
        <ele>1592.0799999999999</ele>
        <time>2015-01-06T10:03:35Z</time>
      </trkpt>
      <trkpt lat="46.119198482483625" lon="8.668211214244366">
        <ele>1593.52</ele>
        <time>2015-01-06T10:03:48Z</time>
      </trkpt>
      <trkpt lat="46.119173085317016" lon="8.66813569329679">
        <ele>1595.9300000000001</ele>
        <time>2015-01-06T10:04:03Z</time>
      </trkpt>
      <trkpt lat="46.119110891595483" lon="8.668154217302799">
        <ele>1598.3299999999999</ele>
        <time>2015-01-06T10:04:21Z</time>
      </trkpt>
      <trkpt lat="46.119043501093984" lon="8.668165113776922">
        <ele>1601.21</ele>
        <time>2015-01-06T10:04:37Z</time>
      </trkpt>
      <trkpt lat="46.118995724245906" lon="8.668160922825337">
        <ele>1602.1700000000001</ele>
        <time>2015-01-06T10:04:49Z</time>
      </trkpt>
      <trkpt lat="46.118942750617862" lon="8.668178357183933">
        <ele>1604.0999999999999</ele>
        <time>2015-01-06T10:05:03Z</time>
      </trkpt>
      <trkpt lat="46.11892556771636" lon="8.668191181495786">
        <ele>1603.6199999999999</ele>
        <time>2015-01-06T10:05:12Z</time>
      </trkpt>
      <trkpt lat="46.118938894942403" lon="8.668177099898458">
        <ele>1603.6199999999999</ele>
        <time>2015-01-06T10:05:39Z</time>
      </trkpt>
      <trkpt lat="46.118942247703671" lon="8.668186822906137">
        <ele>1603.6199999999999</ele>
        <time>2015-01-06T10:06:18Z</time>
      </trkpt>
      <trkpt lat="46.118900841102004" lon="8.668163940310478">
        <ele>1605.0599999999999</ele>
        <time>2015-01-06T10:06:26Z</time>
      </trkpt>
      <trkpt lat="46.118823559954762" lon="8.668163940310478">
        <ele>1607.46</ele>
        <time>2015-01-06T10:06:39Z</time>
      </trkpt>
      <trkpt lat="46.118808556348085" lon="8.668053634464741">
        <ele>1610.3499999999999</ele>
        <time>2015-01-06T10:06:53Z</time>
      </trkpt>
      <trkpt lat="46.118808221071959" lon="8.668045168742538">
        <ele>1610.3499999999999</ele>
        <time>2015-01-06T10:06:54Z</time>
      </trkpt>
      <trkpt lat="46.118808891624212" lon="8.667888259515166">
        <ele>1612.75</ele>
        <time>2015-01-06T10:07:10Z</time>
      </trkpt>
      <trkpt lat="46.118789194151759" lon="8.667791448533535">
        <ele>1614.1900000000001</ele>
        <time>2015-01-06T10:07:24Z</time>
      </trkpt>
      <trkpt lat="46.118752481415868" lon="8.667930755764246">
        <ele>1615.6300000000001</ele>
        <time>2015-01-06T10:07:38Z</time>
      </trkpt>
      <trkpt lat="46.118739238008857" lon="8.667959840968251">
        <ele>1615.6300000000001</ele>
        <time>2015-01-06T10:07:41Z</time>
      </trkpt>
      <trkpt lat="46.118674529716372" lon="8.668079786002636">
        <ele>1616.5899999999999</ele>
        <time>2015-01-06T10:07:54Z</time>
      </trkpt>
      <trkpt lat="46.118581825867295" lon="8.66808146238327">
        <ele>1618.52</ele>
        <time>2015-01-06T10:08:07Z</time>
      </trkpt>
      <trkpt lat="46.118467999622226" lon="8.668046090751886">
        <ele>1620.4400000000001</ele>
        <time>2015-01-06T10:08:22Z</time>
      </trkpt>
      <trkpt lat="46.11840907484293" lon="8.667990854009986">
        <ele>1622.8399999999999</ele>
        <time>2015-01-06T10:08:34Z</time>
      </trkpt>
      <trkpt lat="46.118425754830241" lon="8.667942322790623">
        <ele>1624.28</ele>
        <time>2015-01-06T10:08:44Z</time>
      </trkpt>
      <trkpt lat="46.118358867242932" lon="8.66794852539897">
        <ele>1625.73</ele>
        <time>2015-01-06T10:08:55Z</time>
      </trkpt>
      <trkpt lat="46.11836071126163" lon="8.667872585356236">
        <ele>1627.6500000000001</ele>
        <time>2015-01-06T10:09:07Z</time>
      </trkpt>
      <trkpt lat="46.118440590798855" lon="8.667796896770597">
        <ele>1630.05</ele>
        <time>2015-01-06T10:09:22Z</time>
      </trkpt>
      <trkpt lat="46.118479650467634" lon="8.667697655037046">
        <ele>1631.01</ele>
        <time>2015-01-06T10:09:36Z</time>
      </trkpt>
      <trkpt lat="46.118474705144763" lon="8.667613500729203">
        <ele>1633.4200000000001</ele>
        <time>2015-01-06T10:09:48Z</time>
      </trkpt>
      <trkpt lat="46.118435142561793" lon="8.667518114671111">
        <ele>1635.8199999999999</ele>
        <time>2015-01-06T10:10:03Z</time>
      </trkpt>
      <trkpt lat="46.118408320471644" lon="8.667370760813355">
        <ele>1638.7</ele>
        <time>2015-01-06T10:10:21Z</time>
      </trkpt>
      <trkpt lat="46.118349311873317" lon="8.667262131348252">
        <ele>1641.5899999999999</ele>
        <time>2015-01-06T10:10:39Z</time>
      </trkpt>
      <trkpt lat="46.11831771209836" lon="8.667137073352933">
        <ele>1643.99</ele>
        <time>2015-01-06T10:10:54Z</time>
      </trkpt>
      <trkpt lat="46.118271108716726" lon="8.667083512991667">
        <ele>1646.8800000000001</ele>
        <time>2015-01-06T10:11:08Z</time>
      </trkpt>
      <trkpt lat="46.11825954169035" lon="8.666994832456112">
        <ele>1648.3199999999999</ele>
        <time>2015-01-06T10:11:24Z</time>
      </trkpt>
      <trkpt lat="46.118242274969816" lon="8.666984606534243">
        <ele>1649.76</ele>
        <time>2015-01-06T10:11:39Z</time>
      </trkpt>
      <trkpt lat="46.118218721821904" lon="8.666969938203692">
        <ele>1650.24</ele>
        <time>2015-01-06T10:11:56Z</time>
      </trkpt>
      <trkpt lat="46.118171028792858" lon="8.667002208530903">
        <ele>1651.6800000000001</ele>
        <time>2015-01-06T10:12:06Z</time>
      </trkpt>
      <trkpt lat="46.118147559463978" lon="8.667029701173306">
        <ele>1653.5999999999999</ele>
        <time>2015-01-06T10:12:20Z</time>
      </trkpt>
      <trkpt lat="46.118091065436602" lon="8.667093487456441">
        <ele>1655.53</ele>
        <time>2015-01-06T10:12:33Z</time>
      </trkpt>
      <trkpt lat="46.118059465661645" lon="8.666948899626732">
        <ele>1656.97</ele>
        <time>2015-01-06T10:12:48Z</time>
      </trkpt>
      <trkpt lat="46.118054101243615" lon="8.666802383959293">
        <ele>1659.3699999999999</ele>
        <time>2015-01-06T10:13:04Z</time>
      </trkpt>
      <trkpt lat="46.118001714348793" lon="8.666709931567311">
        <ele>1661.78</ele>
        <time>2015-01-06T10:13:20Z</time>
      </trkpt>
      <trkpt lat="46.11800255253911" lon="8.666666932404041">
        <ele>1663.7</ele>
        <time>2015-01-06T10:13:36Z</time>
      </trkpt>
      <trkpt lat="46.117995847016573" lon="8.66652712225914">
        <ele>1664.6600000000001</ele>
        <time>2015-01-06T10:13:50Z</time>
      </trkpt>
      <trkpt lat="46.117953937500715" lon="8.666563164442778">
        <ele>1666.5799999999999</ele>
        <time>2015-01-06T10:14:04Z</time>
      </trkpt>
      <trkpt lat="46.117909848690033" lon="8.666657041758299">
        <ele>1668.02</ele>
        <time>2015-01-06T10:14:18Z</time>
      </trkpt>
      <trkpt lat="46.117871794849634" lon="8.666717559099197">
        <ele>1669.95</ele>
        <time>2015-01-06T10:14:32Z</time>
      </trkpt>
      <trkpt lat="46.117864334955812" lon="8.666640529409051">
        <ele>1670.4300000000001</ele>
        <time>2015-01-06T10:14:39Z</time>
      </trkpt>
      <trkpt lat="46.117845559492707" lon="8.666473226621747">
        <ele>1672.3499999999999</ele>
        <time>2015-01-06T10:14:55Z</time>
      </trkpt>
      <trkpt lat="46.117885205894709" lon="8.666383372619748">
        <ele>1673.79</ele>
        <time>2015-01-06T10:15:11Z</time>
      </trkpt>
      <trkpt lat="46.117876237258315" lon="8.666264601051807">
        <ele>1675.72</ele>
        <time>2015-01-06T10:15:25Z</time>
      </trkpt>
      <trkpt lat="46.11786232329905" lon="8.666175333783031">
        <ele>1678.5999999999999</ele>
        <time>2015-01-06T10:15:39Z</time>
      </trkpt>
      <trkpt lat="46.117865927517414" lon="8.666081456467509">
        <ele>1681</ele>
        <time>2015-01-06T10:15:53Z</time>
      </trkpt>
      <trkpt lat="46.117822928354144" lon="8.666061172261834">
        <ele>1683.4100000000001</ele>
        <time>2015-01-06T10:16:06Z</time>
      </trkpt>
      <trkpt lat="46.11783005297184" lon="8.665895545855165">
        <ele>1684.3699999999999</ele>
        <time>2015-01-06T10:16:22Z</time>
      </trkpt>
      <trkpt lat="46.117840362712741" lon="8.665821868926287">
        <ele>1685.3299999999999</ele>
        <time>2015-01-06T10:16:29Z</time>
      </trkpt>
      <trkpt lat="46.117874477058649" lon="8.66568909958005">
        <ele>1687.73</ele>
        <time>2015-01-06T10:16:46Z</time>
      </trkpt>
      <trkpt lat="46.117885960265994" lon="8.665631096810103">
        <ele>1688.6900000000001</ele>
        <time>2015-01-06T10:16:59Z</time>
      </trkpt>
      <trkpt lat="46.117948656901717" lon="8.665568986907601">
        <ele>1692.54</ele>
        <time>2015-01-06T10:17:14Z</time>
      </trkpt>
      <trkpt lat="46.117904568091035" lon="8.665517019107938">
        <ele>1693.5</ele>
        <time>2015-01-06T10:17:31Z</time>
      </trkpt>
      <trkpt lat="46.117925019934773" lon="8.66541744209826">
        <ele>1695.9000000000001</ele>
        <time>2015-01-06T10:17:47Z</time>
      </trkpt>
      <trkpt lat="46.11797958612442" lon="8.665371844545007">
        <ele>1697.8299999999999</ele>
        <time>2015-01-06T10:17:59Z</time>
      </trkpt>
      <trkpt lat="46.118025267496705" lon="8.665265142917633">
        <ele>1699.27</ele>
        <time>2015-01-06T10:18:13Z</time>
      </trkpt>
      <trkpt lat="46.118028117343783" lon="8.665160955861211">
        <ele>1701.1900000000001</ele>
        <time>2015-01-06T10:18:28Z</time>
      </trkpt>
      <trkpt lat="46.118083102628589" lon="8.665077807381749">
        <ele>1704.0699999999999</ele>
        <time>2015-01-06T10:18:43Z</time>
      </trkpt>
      <trkpt lat="46.11814328469336" lon="8.665010584518313">
        <ele>1706</ele>
        <time>2015-01-06T10:18:56Z</time>
      </trkpt>
      <trkpt lat="46.118155270814896" lon="8.664999855682254">
        <ele>1706</ele>
        <time>2015-01-06T10:18:58Z</time>
      </trkpt>
      <trkpt lat="46.118228528648615" lon="8.66496155038476">
        <ele>1706.48</ele>
        <time>2015-01-06T10:19:12Z</time>
      </trkpt>
      <trkpt lat="46.118227019906044" lon="8.664928860962391">
        <ele>1707.4400000000001</ele>
        <time>2015-01-06T10:19:28Z</time>
      </trkpt>
      <trkpt lat="46.118235401809216" lon="8.664913102984428">
        <ele>1707.4400000000001</ele>
        <time>2015-01-06T10:19:39Z</time>
      </trkpt>
      <trkpt lat="46.118270270526409" lon="8.664856860414147">
        <ele>1708.8800000000001</ele>
        <time>2015-01-06T10:19:51Z</time>
      </trkpt>
      <trkpt lat="46.118285190314054" lon="8.664836240932345">
        <ele>1709.3599999999999</ele>
        <time>2015-01-06T10:19:55Z</time>
      </trkpt>
      <trkpt lat="46.118363561108708" lon="8.664841772988439">
        <ele>1708.4000000000001</ele>
        <time>2015-01-06T10:20:09Z</time>
      </trkpt>
      <trkpt lat="46.118438579142094" lon="8.664858536794782">
        <ele>1707.4400000000001</ele>
        <time>2015-01-06T10:20:24Z</time>
      </trkpt>
      <trkpt lat="46.118480572476983" lon="8.664867673069239">
        <ele>1706.96</ele>
        <time>2015-01-06T10:20:36Z</time>
      </trkpt>
      <trkpt lat="46.118554417043924" lon="8.664862727746368">
        <ele>1706.96</ele>
        <time>2015-01-06T10:20:49Z</time>
      </trkpt>
      <trkpt lat="46.118598505854607" lon="8.664818303659558">
        <ele>1709.8399999999999</ele>
        <time>2015-01-06T10:21:01Z</time>
      </trkpt>
      <trkpt lat="46.118621975183487" lon="8.664805898442864">
        <ele>1711.76</ele>
        <time>2015-01-06T10:21:10Z</time>
      </trkpt>
      <trkpt lat="46.11863530240953" lon="8.664787793532014">
        <ele>1713.21</ele>
        <time>2015-01-06T10:21:21Z</time>
      </trkpt>
      <trkpt lat="46.118664052337408" lon="8.664746470749378">
        <ele>1715.1300000000001</ele>
        <time>2015-01-06T10:21:32Z</time>
      </trkpt>
      <trkpt lat="46.118653155863285" lon="8.664688467979431">
        <ele>1717.05</ele>
        <time>2015-01-06T10:21:43Z</time>
      </trkpt>
      <trkpt lat="46.118658436462283" lon="8.664661897346377">
        <ele>1718.01</ele>
        <time>2015-01-06T10:21:53Z</time>
      </trkpt>
      <trkpt lat="46.118656843900681" lon="8.664706237614155">
        <ele>1718.49</ele>
        <time>2015-01-06T10:22:06Z</time>
      </trkpt>
      <trkpt lat="46.118660196661949" lon="8.664644379168749">
        <ele>1718.97</ele>
        <time>2015-01-06T10:22:22Z</time>
      </trkpt>
      <trkpt lat="46.118672266602516" lon="8.664603307843208">
        <ele>1720.9000000000001</ele>
        <time>2015-01-06T10:22:35Z</time>
      </trkpt>
      <trkpt lat="46.118733454495668" lon="8.664596015587449">
        <ele>1722.3399999999999</ele>
        <time>2015-01-06T10:22:46Z</time>
      </trkpt>
      <trkpt lat="46.118731694296002" lon="8.664580257609487">
        <ele>1723.78</ele>
        <time>2015-01-06T10:22:52Z</time>
      </trkpt>
      <trkpt lat="46.118715181946754" lon="8.664498617872596">
        <ele>1725.22</ele>
        <time>2015-01-06T10:23:05Z</time>
      </trkpt>
      <trkpt lat="46.118768574669957" lon="8.664481686428189">
        <ele>1727.6300000000001</ele>
        <time>2015-01-06T10:23:17Z</time>
      </trkpt>
      <trkpt lat="46.118761198595166" lon="8.664415888488293">
        <ele>1729.0699999999999</ele>
        <time>2015-01-06T10:23:29Z</time>
      </trkpt>
      <trkpt lat="46.118749463930726" lon="8.664339948445559">
        <ele>1730.99</ele>
        <time>2015-01-06T10:23:42Z</time>
      </trkpt>
      <trkpt lat="46.118737393990159" lon="8.664275407791138">
        <ele>1730.99</ele>
        <time>2015-01-06T10:23:54Z</time>
      </trkpt>
      <trkpt lat="46.118769999593496" lon="8.664253195747733">
        <ele>1729.55</ele>
        <time>2015-01-06T10:24:07Z</time>
      </trkpt>
      <trkpt lat="46.118782991543412" lon="8.664234168827534">
        <ele>1728.1099999999999</ele>
        <time>2015-01-06T10:24:16Z</time>
      </trkpt>
      <trkpt lat="46.11878483556211" lon="8.664222601801157">
        <ele>1728.1099999999999</ele>
        <time>2015-01-06T10:24:28Z</time>
      </trkpt>
      <trkpt lat="46.118793468922377" lon="8.664228888228536">
        <ele>1727.6300000000001</ele>
        <time>2015-01-06T10:24:38Z</time>
      </trkpt>
      <trkpt lat="46.118842167779803" lon="8.664295440539718">
        <ele>1729.0699999999999</ele>
        <time>2015-01-06T10:24:50Z</time>
      </trkpt>
      <trkpt lat="46.118868235498667" lon="8.664368949830532">
        <ele>1730.99</ele>
        <time>2015-01-06T10:25:01Z</time>
      </trkpt>
      <trkpt lat="46.118938224390149" lon="8.664419744163752">
        <ele>1732.4300000000001</ele>
        <time>2015-01-06T10:25:13Z</time>
      </trkpt>
      <trkpt lat="46.118958676233888" lon="8.664465509355068">
        <ele>1732.9100000000001</ele>
        <time>2015-01-06T10:25:27Z</time>
      </trkpt>
      <trkpt lat="46.118945516645908" lon="8.664485542103648">
        <ele>1732.9100000000001</ele>
        <time>2015-01-06T10:25:44Z</time>
      </trkpt>
      <trkpt lat="46.119025396183133" lon="8.664563577622175">
        <ele>1732.9100000000001</ele>
        <time>2015-01-06T10:25:57Z</time>
      </trkpt>
      <trkpt lat="46.119124889373779" lon="8.664578665047884">
        <ele>1735.3199999999999</ele>
        <time>2015-01-06T10:26:12Z</time>
      </trkpt>
      <trkpt lat="46.119205774739385" lon="8.664554357528687">
        <ele>1736.28</ele>
        <time>2015-01-06T10:26:26Z</time>
      </trkpt>
      <trkpt lat="46.119215246289968" lon="8.664557375013828">
        <ele>1736.28</ele>
        <time>2015-01-06T10:26:27Z</time>
      </trkpt>
      <trkpt lat="46.119255060330033" lon="8.664587885141373">
        <ele>1736.28</ele>
        <time>2015-01-06T10:26:31Z</time>
      </trkpt>
      <trkpt lat="46.119269728660583" lon="8.664722666144371">
        <ele>1734.8399999999999</ele>
        <time>2015-01-06T10:26:46Z</time>
      </trkpt>
      <trkpt lat="46.119277272373438" lon="8.664665836840868">
        <ele>1735.3199999999999</ele>
        <time>2015-01-06T10:27:06Z</time>
      </trkpt>
      <trkpt lat="46.119323875755072" lon="8.664599033072591">
        <ele>1735.3199999999999</ele>
        <time>2015-01-06T10:27:14Z</time>
      </trkpt>
      <trkpt lat="46.119346842169762" lon="8.664595847949386">
        <ele>1735.8</ele>
        <time>2015-01-06T10:27:16Z</time>
      </trkpt>
      <trkpt lat="46.119496040046215" lon="8.664655108004808">
        <ele>1736.28</ele>
        <time>2015-01-06T10:27:32Z</time>
      </trkpt>
      <trkpt lat="46.119571141898632" lon="8.664624011144042">
        <ele>1736.76</ele>
        <time>2015-01-06T10:27:46Z</time>
      </trkpt>
      <trkpt lat="46.119597628712654" lon="8.664581347256899">
        <ele>1738.6800000000001</ele>
        <time>2015-01-06T10:27:57Z</time>
      </trkpt>
      <trkpt lat="46.119562089443207" lon="8.664551004767418">
        <ele>1741.0799999999999</ele>
        <time>2015-01-06T10:28:08Z</time>
      </trkpt>
      <trkpt lat="46.119568459689617" lon="8.664496941491962">
        <ele>1743.01</ele>
        <time>2015-01-06T10:28:19Z</time>
      </trkpt>
      <trkpt lat="46.119527807459235" lon="8.664484452456236">
        <ele>1744.45</ele>
        <time>2015-01-06T10:28:30Z</time>
      </trkpt>
      <trkpt lat="46.119497381150723" lon="8.664449416100979">
        <ele>1745.8900000000001</ele>
        <time>2015-01-06T10:28:39Z</time>
      </trkpt>
      <trkpt lat="46.119498806074262" lon="8.664380265399814">
        <ele>1747.3299999999999</ele>
        <time>2015-01-06T10:28:52Z</time>
      </trkpt>
      <trkpt lat="46.119554042816162" lon="8.664359813556075">
        <ele>1748.78</ele>
        <time>2015-01-06T10:29:04Z</time>
      </trkpt>
      <trkpt lat="46.119546834379435" lon="8.664321424439549">
        <ele>1750.22</ele>
        <time>2015-01-06T10:29:14Z</time>
      </trkpt>
      <trkpt lat="46.119557060301304" lon="8.664263170212507">
        <ele>1752.6199999999999</ele>
        <time>2015-01-06T10:29:28Z</time>
      </trkpt>
      <trkpt lat="46.119570806622505" lon="8.664200557395816">
        <ele>1754.54</ele>
        <time>2015-01-06T10:29:39Z</time>
      </trkpt>
      <trkpt lat="46.119607016444206" lon="8.664115061983466">
        <ele>1755.5</ele>
        <time>2015-01-06T10:29:51Z</time>
      </trkpt>
      <trkpt lat="46.119617410004139" lon="8.664061417803168">
        <ele>1756.95</ele>
        <time>2015-01-06T10:30:02Z</time>
      </trkpt>
      <trkpt lat="46.119646998122334" lon="8.663983214646578">
        <ele>1757.9100000000001</ele>
        <time>2015-01-06T10:30:14Z</time>
      </trkpt>
      <trkpt lat="46.119670635089278" lon="8.663953542709351">
        <ele>1758.3900000000001</ele>
        <time>2015-01-06T10:30:19Z</time>
      </trkpt>
      <trkpt lat="46.119730984792113" lon="8.66394180804491">
        <ele>1758.3900000000001</ele>
        <time>2015-01-06T10:30:28Z</time>
      </trkpt>
      <trkpt lat="46.119817150756717" lon="8.663995703682303">
        <ele>1759.3499999999999</ele>
        <time>2015-01-06T10:30:40Z</time>
      </trkpt>
      <trkpt lat="46.119855623692274" lon="8.664103159680963">
        <ele>1757.9100000000001</ele>
        <time>2015-01-06T10:30:52Z</time>
      </trkpt>
      <trkpt lat="46.119878590106964" lon="8.664167784154415">
        <ele>1756.95</ele>
        <time>2015-01-06T10:31:04Z</time>
      </trkpt>
      <trkpt lat="46.119922259822488" lon="8.664262918755412">
        <ele>1756.47</ele>
        <time>2015-01-06T10:31:15Z</time>
      </trkpt>
      <trkpt lat="46.119983028620481" lon="8.664295608177781">
        <ele>1756.95</ele>
        <time>2015-01-06T10:31:24Z</time>
      </trkpt>
      <trkpt lat="46.120013622567058" lon="8.6643136292696">
        <ele>1756.95</ele>
        <time>2015-01-06T10:31:38Z</time>
      </trkpt>
      <trkpt lat="46.120057459920645" lon="8.664327040314674">
        <ele>1757.4300000000001</ele>
        <time>2015-01-06T10:31:51Z</time>
      </trkpt>
      <trkpt lat="46.120076319202781" lon="8.664343971759081">
        <ele>1758.8699999999999</ele>
        <time>2015-01-06T10:31:54Z</time>
      </trkpt>
      <trkpt lat="46.120155109092593" lon="8.664373392239213">
        <ele>1761.27</ele>
        <time>2015-01-06T10:32:08Z</time>
      </trkpt>
      <trkpt lat="46.120251836255193" lon="8.664448661729693">
        <ele>1763.2</ele>
        <time>2015-01-06T10:32:23Z</time>
      </trkpt>
      <trkpt lat="46.120372451841831" lon="8.664442710578442">
        <ele>1765.5999999999999</ele>
        <time>2015-01-06T10:32:39Z</time>
      </trkpt>
      <trkpt lat="46.120452163740993" lon="8.664508927613497">
        <ele>1767.52</ele>
        <time>2015-01-06T10:32:54Z</time>
      </trkpt>
      <trkpt lat="46.120556183159351" lon="8.664571791887283">
        <ele>1769.4400000000001</ele>
        <time>2015-01-06T10:33:10Z</time>
      </trkpt>
      <trkpt lat="46.120648635551333" lon="8.664676984772086">
        <ele>1770.8900000000001</ele>
        <time>2015-01-06T10:33:26Z</time>
      </trkpt>
      <trkpt lat="46.120729437097907" lon="8.664773376658559">
        <ele>1772.8099999999999</ele>
        <time>2015-01-06T10:33:41Z</time>
      </trkpt>
      <trkpt lat="46.120818620547652" lon="8.664855267852545">
        <ele>1773.77</ele>
        <time>2015-01-06T10:33:55Z</time>
      </trkpt>
      <trkpt lat="46.120901266112924" lon="8.664930369704962">
        <ele>1775.6900000000001</ele>
        <time>2015-01-06T10:34:11Z</time>
      </trkpt>
      <trkpt lat="46.12096413038671" lon="8.665011003613472">
        <ele>1778.0999999999999</ele>
        <time>2015-01-06T10:34:24Z</time>
      </trkpt>
      <trkpt lat="46.121024983003736" lon="8.66512767970562">
        <ele>1780.02</ele>
        <time>2015-01-06T10:34:41Z</time>
      </trkpt>
      <trkpt lat="46.121017104014754" lon="8.6651995126158">
        <ele>1780.5</ele>
        <time>2015-01-06T10:34:59Z</time>
      </trkpt>
      <trkpt lat="46.121045518666506" lon="8.665325324982405">
        <ele>1781.9400000000001</ele>
        <time>2015-01-06T10:35:14Z</time>
      </trkpt>
      <trkpt lat="46.121095474809408" lon="8.665451724082232">
        <ele>1783.8599999999999</ele>
        <time>2015-01-06T10:35:28Z</time>
      </trkpt>
      <trkpt lat="46.121103605255485" lon="8.665473768487573">
        <ele>1783.8599999999999</ele>
        <time>2015-01-06T10:35:30Z</time>
      </trkpt>
      <trkpt lat="46.121187843382359" lon="8.665616093203425">
        <ele>1785.3099999999999</ele>
        <time>2015-01-06T10:35:45Z</time>
      </trkpt>
      <trkpt lat="46.121199326589704" lon="8.665646351873875">
        <ele>1785.79</ele>
        <time>2015-01-06T10:35:48Z</time>
      </trkpt>
      <trkpt lat="46.121251964941621" lon="8.665719106793404">
        <ele>1786.27</ele>
        <time>2015-01-06T10:35:56Z</time>
      </trkpt>
      <trkpt lat="46.121395630761981" lon="8.6658039316535">
        <ele>1787.71</ele>
        <time>2015-01-06T10:36:13Z</time>
      </trkpt>
      <trkpt lat="46.121477019041777" lon="8.665980538353324">
        <ele>1789.1500000000001</ele>
        <time>2015-01-06T10:36:29Z</time>
      </trkpt>
      <trkpt lat="46.121564693748951" lon="8.666096795350313">
        <ele>1789.6300000000001</ele>
        <time>2015-01-06T10:36:42Z</time>
      </trkpt>
      <trkpt lat="46.12164381891489" lon="8.666188661009073">
        <ele>1790.5899999999999</ele>
        <time>2015-01-06T10:36:53Z</time>
      </trkpt>
      <trkpt lat="46.121754627674818" lon="8.666341127827764">
        <ele>1791.55</ele>
        <time>2015-01-06T10:37:10Z</time>
      </trkpt>
      <trkpt lat="46.121856635436416" lon="8.666476663202047">
        <ele>1792.52</ele>
        <time>2015-01-06T10:37:26Z</time>
      </trkpt>
      <trkpt lat="46.121882535517216" lon="8.666514130309224">
        <ele>1792.52</ele>
        <time>2015-01-06T10:37:30Z</time>
      </trkpt>
      <trkpt lat="46.122012538835406" lon="8.666640529409051">
        <ele>1793.96</ele>
        <time>2015-01-06T10:37:45Z</time>
      </trkpt>
      <trkpt lat="46.122105745598674" lon="8.666798695921898">
        <ele>1794.9200000000001</ele>
        <time>2015-01-06T10:38:01Z</time>
      </trkpt>
      <trkpt lat="46.122160144150257" lon="8.666945798322558">
        <ele>1794.9200000000001</ele>
        <time>2015-01-06T10:38:13Z</time>
      </trkpt>
      <trkpt lat="46.122216135263443" lon="8.667027102783322">
        <ele>1794.4400000000001</ele>
        <time>2015-01-06T10:38:27Z</time>
      </trkpt>
      <trkpt lat="46.122221332043409" lon="8.667039256542921">
        <ele>1794.4400000000001</ele>
        <time>2015-01-06T10:38:28Z</time>
      </trkpt>
      <trkpt lat="46.122249327600002" lon="8.667087620124221">
        <ele>1792.52</ele>
        <time>2015-01-06T10:38:41Z</time>
      </trkpt>
      <trkpt lat="46.122288135811687" lon="8.667153082787991">
        <ele>1792.03</ele>
        <time>2015-01-06T10:38:55Z</time>
      </trkpt>
      <trkpt lat="46.122292075306177" lon="8.667150903493166">
        <ele>1792.03</ele>
        <time>2015-01-06T10:38:59Z</time>
      </trkpt>
      <trkpt lat="46.122300457209349" lon="8.667149478569627">
        <ele>1792.03</ele>
        <time>2015-01-06T10:39:13Z</time>
      </trkpt>
      <trkpt lat="46.122291069477797" lon="8.66716037504375">
        <ele>1791.55</ele>
        <time>2015-01-06T10:39:49Z</time>
      </trkpt>
      <trkpt lat="46.122292829677463" lon="8.667150065302849">
        <ele>1791.55</ele>
        <time>2015-01-06T10:40:16Z</time>
      </trkpt>
      <trkpt lat="46.122292745858431" lon="8.667136821895838">
        <ele>1792.03</ele>
        <time>2015-01-06T10:40:47Z</time>
      </trkpt>
      <trkpt lat="46.122283022850752" lon="8.667149310931563">
        <ele>1792.52</ele>
        <time>2015-01-06T10:41:28Z</time>
      </trkpt>
      <trkpt lat="46.122288974002004" lon="8.66713983938098">
        <ele>1792.52</ele>
        <time>2015-01-06T10:41:51Z</time>
      </trkpt>
      <trkpt lat="46.122289560735226" lon="8.667142018675804">
        <ele>1792.52</ele>
        <time>2015-01-06T10:42:19Z</time>
      </trkpt>
      <trkpt lat="46.122288974002004" lon="8.667139420285821">
        <ele>1792.03</ele>
        <time>2015-01-06T10:42:59Z</time>
      </trkpt>
      <trkpt lat="46.122291572391987" lon="8.667137240990996">
        <ele>1792.52</ele>
        <time>2015-01-06T10:43:35Z</time>
      </trkpt>
      <trkpt lat="46.122293584048748" lon="8.667134223505855">
        <ele>1792.52</ele>
        <time>2015-01-06T10:44:10Z</time>
      </trkpt>
      <trkpt lat="46.122286962345243" lon="8.667130535468459">
        <ele>1792.52</ele>
        <time>2015-01-06T10:44:47Z</time>
      </trkpt>
      <trkpt lat="46.122286627069116" lon="8.667140929028392">
        <ele>1792.52</ele>
        <time>2015-01-06T10:45:20Z</time>
      </trkpt>
      <trkpt lat="46.122288974002004" lon="8.667146293446422">
        <ele>1792.52</ele>
        <time>2015-01-06T10:45:51Z</time>
      </trkpt>
      <trkpt lat="46.122271288186312" lon="8.667140929028392">
        <ele>1793</ele>
        <time>2015-01-06T10:46:03Z</time>
      </trkpt>
      <trkpt lat="46.12227464094758" lon="8.667141264304519">
        <ele>1792.52</ele>
        <time>2015-01-06T10:46:23Z</time>
      </trkpt>
      <trkpt lat="46.122289644554257" lon="8.667160291224718">
        <ele>1792.52</ele>
        <time>2015-01-06T10:46:42Z</time>
      </trkpt>
      <trkpt lat="46.122257290408015" lon="8.66711544804275">
        <ele>1793</ele>
        <time>2015-01-06T10:46:57Z</time>
      </trkpt>
      <trkpt lat="46.122270114719868" lon="8.667129697278142">
        <ele>1793</ele>
        <time>2015-01-06T10:47:24Z</time>
      </trkpt>
      <trkpt lat="46.122284028679132" lon="8.667145622894168">
        <ele>1793</ele>
        <time>2015-01-06T10:47:38Z</time>
      </trkpt>
      <trkpt lat="46.122281681746244" lon="8.667143611237407">
        <ele>1792.52</ele>
        <time>2015-01-06T10:47:51Z</time>
      </trkpt>
      <trkpt lat="46.12226776778698" lon="8.667147299274802">
        <ele>1793.48</ele>
        <time>2015-01-06T10:48:17Z</time>
      </trkpt>
      <trkpt lat="46.122270952910185" lon="8.667148137465119">
        <ele>1793</ele>
        <time>2015-01-06T10:48:37Z</time>
      </trkpt>
      <trkpt lat="46.122261565178633" lon="8.667129362002015">
        <ele>1793</ele>
        <time>2015-01-06T10:48:59Z</time>
      </trkpt>
      <trkpt lat="46.122235329821706" lon="8.667116621509194">
        <ele>1793</ele>
        <time>2015-01-06T10:49:02Z</time>
      </trkpt>
      <trkpt lat="46.122216051444411" lon="8.667099187150598">
        <ele>1793</ele>
        <time>2015-01-06T10:49:04Z</time>
      </trkpt>
      <trkpt lat="46.122245220467448" lon="8.667015032842755">
        <ele>1795.8800000000001</ele>
        <time>2015-01-06T10:49:16Z</time>
      </trkpt>
      <trkpt lat="46.122252009809017" lon="8.666978320106864">
        <ele>1797.8</ele>
        <time>2015-01-06T10:49:27Z</time>
      </trkpt>
      <trkpt lat="46.122241197153926" lon="8.666903888806701">
        <ele>1799.24</ele>
        <time>2015-01-06T10:49:41Z</time>
      </trkpt>
      <trkpt lat="46.122258799150586" lon="8.666831804439426">
        <ele>1801.1700000000001</ele>
        <time>2015-01-06T10:49:53Z</time>
      </trkpt>
      <trkpt lat="46.122263995930552" lon="8.666784865781665">
        <ele>1802.1300000000001</ele>
        <time>2015-01-06T10:50:08Z</time>
      </trkpt>
      <trkpt lat="46.122302887961268" lon="8.666751757264137">
        <ele>1804.05</ele>
        <time>2015-01-06T10:50:20Z</time>
      </trkpt>
      <trkpt lat="46.122313952073455" lon="8.666679924353957">
        <ele>1805.97</ele>
        <time>2015-01-06T10:50:34Z</time>
      </trkpt>
      <trkpt lat="46.122342282906175" lon="8.666607504710555">
        <ele>1808.8599999999999</ele>
        <time>2015-01-06T10:50:51Z</time>
      </trkpt>
      <trkpt lat="46.12229710444808" lon="8.666511783376336">
        <ele>1811.26</ele>
        <time>2015-01-06T10:51:06Z</time>
      </trkpt>
      <trkpt lat="46.122281765565276" lon="8.666399298235774">
        <ele>1814.1500000000001</ele>
        <time>2015-01-06T10:51:25Z</time>
      </trkpt>
      <trkpt lat="46.122271288186312" lon="8.666295614093542">
        <ele>1817.03</ele>
        <time>2015-01-06T10:51:43Z</time>
      </trkpt>
      <trkpt lat="46.122225187718868" lon="8.666190085932612">
        <ele>1819.4300000000001</ele>
        <time>2015-01-06T10:52:01Z</time>
      </trkpt>
      <trkpt lat="46.122179087251425" lon="8.666050862520933">
        <ele>1822.3199999999999</ele>
        <time>2015-01-06T10:52:18Z</time>
      </trkpt>
      <trkpt lat="46.122139943763614" lon="8.665938377380371">
        <ele>1825.2</ele>
        <time>2015-01-06T10:52:36Z</time>
      </trkpt>
      <trkpt lat="46.122149918228388" lon="8.66586696356535">
        <ele>1827.5999999999999</ele>
        <time>2015-01-06T10:52:49Z</time>
      </trkpt>
      <trkpt lat="46.122182188555598" lon="8.665808122605085">
        <ele>1830.01</ele>
        <time>2015-01-06T10:53:05Z</time>
      </trkpt>
      <trkpt lat="46.122176824137568" lon="8.665728159248829">
        <ele>1832.4100000000001</ele>
        <time>2015-01-06T10:53:20Z</time>
      </trkpt>
      <trkpt lat="46.122130136936903" lon="8.665640568360686">
        <ele>1833.8499999999999</ele>
        <time>2015-01-06T10:53:35Z</time>
      </trkpt>
      <trkpt lat="46.122110690921545" lon="8.665539063513279">
        <ele>1835.77</ele>
        <time>2015-01-06T10:53:50Z</time>
      </trkpt>
      <trkpt lat="46.122082527726889" lon="8.665426829829812">
        <ele>1838.1800000000001</ele>
        <time>2015-01-06T10:54:06Z</time>
      </trkpt>
      <trkpt lat="46.122068865224719" lon="8.665344435721636">
        <ele>1840.5799999999999</ele>
        <time>2015-01-06T10:54:22Z</time>
      </trkpt>
      <trkpt lat="46.122058890759945" lon="8.665239661931992">
        <ele>1843.47</ele>
        <time>2015-01-06T10:54:40Z</time>
      </trkpt>
      <trkpt lat="46.122030057013035" lon="8.66515701636672">
        <ele>1845.8699999999999</ele>
        <time>2015-01-06T10:54:55Z</time>
      </trkpt>
      <trkpt lat="46.122017735615373" lon="8.665079148486257">
        <ele>1847.3099999999999</ele>
        <time>2015-01-06T10:55:07Z</time>
      </trkpt>
      <trkpt lat="46.122016310691833" lon="8.665016200393438">
        <ele>1849.23</ele>
        <time>2015-01-06T10:55:19Z</time>
      </trkpt>
      <trkpt lat="46.122007928788662" lon="8.664962388575077">
        <ele>1850.6800000000001</ele>
        <time>2015-01-06T10:55:30Z</time>
      </trkpt>
      <trkpt lat="46.122000887989998" lon="8.664883347228169">
        <ele>1853.0799999999999</ele>
        <time>2015-01-06T10:55:41Z</time>
      </trkpt>
      <trkpt lat="46.121986974030733" lon="8.664822075515986">
        <ele>1854.52</ele>
        <time>2015-01-06T10:55:53Z</time>
      </trkpt>
      <trkpt lat="46.122015137225389" lon="8.664779746904969">
        <ele>1856.9200000000001</ele>
        <time>2015-01-06T10:56:06Z</time>
      </trkpt>
      <trkpt lat="46.122026955708861" lon="8.664728282019496">
        <ele>1859.3299999999999</ele>
        <time>2015-01-06T10:56:18Z</time>
      </trkpt>
      <trkpt lat="46.1220180708915" lon="8.664673632010818">
        <ele>1861.73</ele>
        <time>2015-01-06T10:56:31Z</time>
      </trkpt>
      <trkpt lat="46.122005078941584" lon="8.66462828591466">
        <ele>1863.6500000000001</ele>
        <time>2015-01-06T10:56:43Z</time>
      </trkpt>
      <trkpt lat="46.121973562985659" lon="8.664589310064912">
        <ele>1865.0899999999999</ele>
        <time>2015-01-06T10:56:55Z</time>
      </trkpt>
      <trkpt lat="46.121928803622723" lon="8.664523847401142">
        <ele>1867.02</ele>
        <time>2015-01-06T10:57:09Z</time>
      </trkpt>
      <trkpt lat="46.121906340122223" lon="8.664457630366087">
        <ele>1869.4200000000001</ele>
        <time>2015-01-06T10:57:22Z</time>
      </trkpt>
      <trkpt lat="46.121887899935246" lon="8.664400884881616">
        <ele>1871.8199999999999</ele>
        <time>2015-01-06T10:57:37Z</time>
      </trkpt>
      <trkpt lat="46.121864011511207" lon="8.664313461631537">
        <ele>1873.75</ele>
        <time>2015-01-06T10:57:51Z</time>
      </trkpt>
      <trkpt lat="46.121842721477151" lon="8.664243305101991">
        <ele>1876.1500000000001</ele>
        <time>2015-01-06T10:58:05Z</time>
      </trkpt>
      <trkpt lat="46.121815228834748" lon="8.664161916822195">
        <ele>1878.0699999999999</ele>
        <time>2015-01-06T10:58:18Z</time>
      </trkpt>
      <trkpt lat="46.121816905215383" lon="8.664083546027541">
        <ele>1880.96</ele>
        <time>2015-01-06T10:58:33Z</time>
      </trkpt>
      <trkpt lat="46.121794274076819" lon="8.664021268486977">
        <ele>1883.3599999999999</ele>
        <time>2015-01-06T10:58:47Z</time>
      </trkpt>
      <trkpt lat="46.121806846931577" lon="8.66395203396678">
        <ele>1885.76</ele>
        <time>2015-01-06T10:59:02Z</time>
      </trkpt>
      <trkpt lat="46.121803326532245" lon="8.663896126672626">
        <ele>1887.21</ele>
        <time>2015-01-06T10:59:17Z</time>
      </trkpt>
      <trkpt lat="46.121790166944265" lon="8.663853462785482">
        <ele>1889.1300000000001</ele>
        <time>2015-01-06T10:59:29Z</time>
      </trkpt>
      <trkpt lat="46.121825454756618" lon="8.663789425045252">
        <ele>1892.01</ele>
        <time>2015-01-06T10:59:44Z</time>
      </trkpt>
      <trkpt lat="46.121815396472812" lon="8.663729410618544">
        <ele>1894.4200000000001</ele>
        <time>2015-01-06T11:00:00Z</time>
      </trkpt>
      <trkpt lat="46.121783712878823" lon="8.663673335686326">
        <ele>1896.8199999999999</ele>
        <time>2015-01-06T11:00:13Z</time>
      </trkpt>
      <trkpt lat="46.121761165559292" lon="8.663561772555113">
        <ele>1899.22</ele>
        <time>2015-01-06T11:00:28Z</time>
      </trkpt>
      <trkpt lat="46.121754040941596" lon="8.663474265486002">
        <ele>1902.1099999999999</ele>
        <time>2015-01-06T11:00:43Z</time>
      </trkpt>
      <trkpt lat="46.121730403974652" lon="8.663373431190848">
        <ele>1904.03</ele>
        <time>2015-01-06T11:00:57Z</time>
      </trkpt>
      <trkpt lat="46.121728224679828" lon="8.663251055404544">
        <ele>1906.9100000000001</ele>
        <time>2015-01-06T11:01:12Z</time>
      </trkpt>
      <trkpt lat="46.121728057041764" lon="8.663196740671992">
        <ele>1908.3499999999999</ele>
        <time>2015-01-06T11:01:23Z</time>
      </trkpt>
      <trkpt lat="46.121741635724902" lon="8.663236135616899">
        <ele>1908.3499999999999</ele>
        <time>2015-01-06T11:01:47Z</time>
      </trkpt>
      <trkpt lat="46.121753789484501" lon="8.663136139512062">
        <ele>1910.28</ele>
        <time>2015-01-06T11:01:58Z</time>
      </trkpt>
      <trkpt lat="46.121778348460793" lon="8.663012003526092">
        <ele>1912.2</ele>
        <time>2015-01-06T11:02:11Z</time>
      </trkpt>
      <trkpt lat="46.121798297390342" lon="8.662948133423924">
        <ele>1914.1199999999999</ele>
        <time>2015-01-06T11:02:24Z</time>
      </trkpt>
      <trkpt lat="46.121793603524566" lon="8.662840677425265">
        <ele>1916.04</ele>
        <time>2015-01-06T11:02:36Z</time>
      </trkpt>
      <trkpt lat="46.121770218014717" lon="8.662740597501397">
        <ele>1917.49</ele>
        <time>2015-01-06T11:02:50Z</time>
      </trkpt>
      <trkpt lat="46.121764183044434" lon="8.662676140666008">
        <ele>1919.4100000000001</ele>
        <time>2015-01-06T11:03:01Z</time>
      </trkpt>
      <trkpt lat="46.121769463643432" lon="8.662608582526445">
        <ele>1921.8099999999999</ele>
        <time>2015-01-06T11:03:15Z</time>
      </trkpt>
      <trkpt lat="46.121754543855786" lon="8.662489727139473">
        <ele>1923.74</ele>
        <time>2015-01-06T11:03:31Z</time>
      </trkpt>
      <trkpt lat="46.121742557734251" lon="8.662374811246991">
        <ele>1925.6600000000001</ele>
        <time>2015-01-06T11:03:45Z</time>
      </trkpt>
      <trkpt lat="46.121710622683167" lon="8.662241119891405">
        <ele>1928.0599999999999</ele>
        <time>2015-01-06T11:04:02Z</time>
      </trkpt>
      <trkpt lat="46.121708694845438" lon="8.662121677771211">
        <ele>1930.95</ele>
        <time>2015-01-06T11:04:18Z</time>
      </trkpt>
      <trkpt lat="46.121685057878494" lon="8.66199410520494">
        <ele>1933.3499999999999</ele>
        <time>2015-01-06T11:04:36Z</time>
      </trkpt>
      <trkpt lat="46.12167558632791" lon="8.66188614629209">
        <ele>1936.23</ele>
        <time>2015-01-06T11:04:53Z</time>
      </trkpt>
      <trkpt lat="46.121655385941267" lon="8.661792352795601">
        <ele>1937.6700000000001</ele>
        <time>2015-01-06T11:05:05Z</time>
      </trkpt>
      <trkpt lat="46.121644321829081" lon="8.661660673096776">
        <ele>1939.5999999999999</ele>
        <time>2015-01-06T11:05:21Z</time>
      </trkpt>
      <trkpt lat="46.121639460325241" lon="8.661602754145861">
        <ele>1939.1199999999999</ele>
        <time>2015-01-06T11:05:25Z</time>
      </trkpt>
      <trkpt lat="46.121592689305544" lon="8.661365630105138">
        <ele>1937.1900000000001</ele>
        <time>2015-01-06T11:05:42Z</time>
      </trkpt>
      <trkpt lat="46.121584307402372" lon="8.66126898676157">
        <ele>1937.6700000000001</ele>
        <time>2015-01-06T11:05:57Z</time>
      </trkpt>
      <trkpt lat="46.121598724275827" lon="8.661172594875097">
        <ele>1939.5999999999999</ele>
        <time>2015-01-06T11:06:07Z</time>
      </trkpt>
      <trkpt lat="46.121575506404042" lon="8.661128003150225">
        <ele>1939.1199999999999</ele>
        <time>2015-01-06T11:06:12Z</time>
      </trkpt>
      <trkpt lat="46.121572991833091" lon="8.661103276535869">
        <ele>1939.1199999999999</ele>
        <time>2015-01-06T11:06:14Z</time>
      </trkpt>
      <trkpt lat="46.121574081480503" lon="8.661036556586623">
        <ele>1940.0799999999999</ele>
        <time>2015-01-06T11:06:20Z</time>
      </trkpt>
      <trkpt lat="46.121544744819403" lon="8.66099875420332">
        <ele>1939.5999999999999</ele>
        <time>2015-01-06T11:06:30Z</time>
      </trkpt>
      <trkpt lat="46.121513228863478" lon="8.660960448905826">
        <ele>1939.1199999999999</ele>
        <time>2015-01-06T11:06:35Z</time>
      </trkpt>
      <trkpt lat="46.121433265507221" lon="8.660820219665766">
        <ele>1940.5599999999999</ele>
        <time>2015-01-06T11:06:50Z</time>
      </trkpt>
      <trkpt lat="46.12136579118669" lon="8.660670183598995">
        <ele>1938.6400000000001</ele>
        <time>2015-01-06T11:07:02Z</time>
      </trkpt>
      <trkpt lat="46.121280547231436" lon="8.660482009872794">
        <ele>1938.1600000000001</ele>
        <time>2015-01-06T11:07:17Z</time>
      </trkpt>
      <trkpt lat="46.121240481734276" lon="8.660330129787326">
        <ele>1940.5599999999999</ele>
        <time>2015-01-06T11:07:32Z</time>
      </trkpt>
      <trkpt lat="46.121212653815746" lon="8.660229044035077">
        <ele>1941.52</ele>
        <time>2015-01-06T11:07:44Z</time>
      </trkpt>
      <trkpt lat="46.121198991313577" lon="8.660118402913213">
        <ele>1943.9200000000001</ele>
        <time>2015-01-06T11:07:57Z</time>
      </trkpt>
      <trkpt lat="46.121164206415415" lon="8.660050677135587">
        <ele>1944.4000000000001</ele>
        <time>2015-01-06T11:08:05Z</time>
      </trkpt>
      <trkpt lat="46.121124476194382" lon="8.65996140986681">
        <ele>1945.8499999999999</ele>
        <time>2015-01-06T11:08:16Z</time>
      </trkpt>
      <trkpt lat="46.121104527264833" lon="8.659924948588014">
        <ele>1945.8499999999999</ele>
        <time>2015-01-06T11:08:20Z</time>
      </trkpt>
      <trkpt lat="46.121065299957991" lon="8.659771140664816">
        <ele>1948.25</ele>
        <time>2015-01-06T11:08:37Z</time>
      </trkpt>
      <trkpt lat="46.121063958853483" lon="8.659661756828427">
        <ele>1950.6500000000001</ele>
        <time>2015-01-06T11:08:53Z</time>
      </trkpt>
      <trkpt lat="46.121039483696222" lon="8.659584559500217">
        <ele>1951.1300000000001</ele>
        <time>2015-01-06T11:09:09Z</time>
      </trkpt>
      <trkpt lat="46.121000172570348" lon="8.659472325816751">
        <ele>1952.0899999999999</ele>
        <time>2015-01-06T11:09:24Z</time>
      </trkpt>
      <trkpt lat="46.120963795110583" lon="8.659388003870845">
        <ele>1953.54</ele>
        <time>2015-01-06T11:09:39Z</time>
      </trkpt>
      <trkpt lat="46.12094996497035" lon="8.659403845667839">
        <ele>1953.54</ele>
        <time>2015-01-06T11:09:58Z</time>
      </trkpt>
      <trkpt lat="46.12095532938838" lon="8.6594058573246">
        <ele>1953.54</ele>
        <time>2015-01-06T11:10:19Z</time>
      </trkpt>
      <trkpt lat="46.120968069881201" lon="8.659406779333949">
        <ele>1953.54</ele>
        <time>2015-01-06T11:10:38Z</time>
      </trkpt>
      <trkpt lat="46.120954491198063" lon="8.659412311390042">
        <ele>1953.54</ele>
        <time>2015-01-06T11:10:54Z</time>
      </trkpt>
      <trkpt lat="46.120922053232789" lon="8.659398984164">
        <ele>1954.02</ele>
        <time>2015-01-06T11:11:09Z</time>
      </trkpt>
      <trkpt lat="46.120917275547981" lon="8.659395379945636">
        <ele>1954.02</ele>
        <time>2015-01-06T11:11:10Z</time>
      </trkpt>
      <trkpt lat="46.120892046019435" lon="8.659362271428108">
        <ele>1954.98</ele>
        <time>2015-01-06T11:11:14Z</time>
      </trkpt>
      <trkpt lat="46.120852483436465" lon="8.65932228974998">
        <ele>1955.9400000000001</ele>
        <time>2015-01-06T11:11:19Z</time>
      </trkpt>
      <trkpt lat="46.120769502595067" lon="8.659275434911251">
        <ele>1955.46</ele>
        <time>2015-01-06T11:11:33Z</time>
      </trkpt>
      <trkpt lat="46.120763216167688" lon="8.65924559533596">
        <ele>1955.46</ele>
        <time>2015-01-06T11:11:37Z</time>
      </trkpt>
      <trkpt lat="46.120754666626453" lon="8.659200752153993">
        <ele>1955.46</ele>
        <time>2015-01-06T11:11:41Z</time>
      </trkpt>
      <trkpt lat="46.120687695220113" lon="8.659079046919942">
        <ele>1955.9400000000001</ele>
        <time>2015-01-06T11:11:54Z</time>
      </trkpt>
      <trkpt lat="46.120648719370365" lon="8.659024816006422">
        <ele>1954.98</ele>
        <time>2015-01-06T11:12:02Z</time>
      </trkpt>
      <trkpt lat="46.120604211464524" lon="8.658903781324625">
        <ele>1954.5</ele>
        <time>2015-01-06T11:12:15Z</time>
      </trkpt>
      <trkpt lat="46.120608067139983" lon="8.658910654485226">
        <ele>1954.98</ele>
        <time>2015-01-06T11:12:21Z</time>
      </trkpt>
      <trkpt lat="46.120617790147662" lon="8.658932950347662">
        <ele>1954.5</ele>
        <time>2015-01-06T11:12:23Z</time>
      </trkpt>
      <trkpt lat="46.120572276413441" lon="8.658940494060516">
        <ele>1952.5699999999999</ele>
        <time>2015-01-06T11:12:33Z</time>
      </trkpt>
      <trkpt lat="46.120498264208436" lon="8.658876875415444">
        <ele>1951.1300000000001</ele>
        <time>2015-01-06T11:12:43Z</time>
      </trkpt>
      <trkpt lat="46.120419558137655" lon="8.658763384446502">
        <ele>1953.0599999999999</ele>
        <time>2015-01-06T11:12:56Z</time>
      </trkpt>
      <trkpt lat="46.120383851230145" lon="8.658694233745337">
        <ele>1954.02</ele>
        <time>2015-01-06T11:13:03Z</time>
      </trkpt>
      <trkpt lat="46.120327357202768" lon="8.658608822152019">
        <ele>1954.98</ele>
        <time>2015-01-06T11:13:12Z</time>
      </trkpt>
      <trkpt lat="46.120317466557026" lon="8.658556519076228">
        <ele>1955.9400000000001</ele>
        <time>2015-01-06T11:13:17Z</time>
      </trkpt>
      <trkpt lat="46.120230797678232" lon="8.65848233923316">
        <ele>1956.9000000000001</ele>
        <time>2015-01-06T11:13:31Z</time>
      </trkpt>
      <trkpt lat="46.120183439925313" lon="8.658398184925318">
        <ele>1959.78</ele>
        <time>2015-01-06T11:13:45Z</time>
      </trkpt>
      <trkpt lat="46.120157707482576" lon="8.658317634835839">
        <ele>1962.1900000000001</ele>
        <time>2015-01-06T11:13:58Z</time>
      </trkpt>
      <trkpt lat="46.120111271739006" lon="8.658225350081921">
        <ele>1963.6300000000001</ele>
        <time>2015-01-06T11:14:13Z</time>
      </trkpt>
      <trkpt lat="46.120094424113631" lon="8.658165670931339">
        <ele>1966.51</ele>
        <time>2015-01-06T11:14:26Z</time>
      </trkpt>
      <trkpt lat="46.120060812681913" lon="8.658115211874247">
        <ele>1968.9200000000001</ele>
        <time>2015-01-06T11:14:41Z</time>
      </trkpt>
      <trkpt lat="46.120052514597774" lon="8.658043965697289">
        <ele>1971.8</ele>
        <time>2015-01-06T11:14:53Z</time>
      </trkpt>
      <trkpt lat="46.120023261755705" lon="8.65798001177609">
        <ele>1972.28</ele>
        <time>2015-01-06T11:15:04Z</time>
      </trkpt>
      <trkpt lat="46.119968611747026" lon="8.657915974035859">
        <ele>1973.72</ele>
        <time>2015-01-06T11:15:18Z</time>
      </trkpt>
      <trkpt lat="46.119925612583756" lon="8.657826958224177">
        <ele>1976.1300000000001</ele>
        <time>2015-01-06T11:15:35Z</time>
      </trkpt>
      <trkpt lat="46.119887307286263" lon="8.657735511660576">
        <ele>1978.53</ele>
        <time>2015-01-06T11:15:50Z</time>
      </trkpt>
      <trkpt lat="46.119844727218151" lon="8.657648004591465">
        <ele>1980.9300000000001</ele>
        <time>2015-01-06T11:16:06Z</time>
      </trkpt>
      <trkpt lat="46.119772978127003" lon="8.65758715197444">
        <ele>1982.3800000000001</ele>
        <time>2015-01-06T11:16:21Z</time>
      </trkpt>
      <trkpt lat="46.119736768305302" lon="8.657504757866263">
        <ele>1983.8199999999999</ele>
        <time>2015-01-06T11:16:35Z</time>
      </trkpt>
      <trkpt lat="46.119705084711313" lon="8.657433595508337">
        <ele>1985.74</ele>
        <time>2015-01-06T11:16:50Z</time>
      </trkpt>
      <trkpt lat="46.119670383632183" lon="8.657407024875283">
        <ele>1987.1800000000001</ele>
        <time>2015-01-06T11:17:03Z</time>
      </trkpt>
      <trkpt lat="46.119661079719663" lon="8.657362768426538">
        <ele>1988.1400000000001</ele>
        <time>2015-01-06T11:17:21Z</time>
      </trkpt>
      <trkpt lat="46.119615733623505" lon="8.657289007678628">
        <ele>1990.0699999999999</ele>
        <time>2015-01-06T11:17:34Z</time>
      </trkpt>
      <trkpt lat="46.11959544941783" lon="8.657242655754089">
        <ele>1991.99</ele>
        <time>2015-01-06T11:17:48Z</time>
      </trkpt>
      <trkpt lat="46.119572399184108" lon="8.657180545851588">
        <ele>1993.4300000000001</ele>
        <time>2015-01-06T11:18:00Z</time>
      </trkpt>
      <trkpt lat="46.119553288444877" lon="8.657140480354428">
        <ele>1995.8299999999999</ele>
        <time>2015-01-06T11:18:15Z</time>
      </trkpt>
      <trkpt lat="46.119529316201806" lon="8.657092954963446">
        <ele>1997.28</ele>
        <time>2015-01-06T11:18:25Z</time>
      </trkpt>
      <trkpt lat="46.119513139128685" lon="8.657043250277638">
        <ele>1998.72</ele>
        <time>2015-01-06T11:18:39Z</time>
      </trkpt>
      <trkpt lat="46.119504673406482" lon="8.656988767907023">
        <ele>2000.1600000000001</ele>
        <time>2015-01-06T11:19:01Z</time>
      </trkpt>
      <trkpt lat="46.119477683678269" lon="8.656893130391836">
        <ele>2002.5599999999999</ele>
        <time>2015-01-06T11:19:16Z</time>
      </trkpt>
      <trkpt lat="46.119453962892294" lon="8.656809311360121">
        <ele>2004.01</ele>
        <time>2015-01-06T11:19:32Z</time>
      </trkpt>
      <trkpt lat="46.119445078074932" lon="8.656720044091344">
        <ele>2005.9300000000001</ele>
        <time>2015-01-06T11:19:45Z</time>
      </trkpt>
      <trkpt lat="46.119439797475934" lon="8.656665394082665">
        <ele>2006.8900000000001</ele>
        <time>2015-01-06T11:20:01Z</time>
      </trkpt>
      <trkpt lat="46.119420183822513" lon="8.656584843993187">
        <ele>2008.8099999999999</ele>
        <time>2015-01-06T11:20:19Z</time>
      </trkpt>
      <trkpt lat="46.119415909051895" lon="8.656574450433254">
        <ele>2008.8099999999999</ele>
        <time>2015-01-06T11:20:20Z</time>
      </trkpt>
      <trkpt lat="46.119393277913332" lon="8.656447799876332">
        <ele>2007.8499999999999</ele>
        <time>2015-01-06T11:20:33Z</time>
      </trkpt>
      <trkpt lat="46.119386404752731" lon="8.656408991664648">
        <ele>2010.25</ele>
        <time>2015-01-06T11:20:39Z</time>
      </trkpt>
      <trkpt lat="46.119361845776439" lon="8.656326178461313">
        <ele>2013.1400000000001</ele>
        <time>2015-01-06T11:20:53Z</time>
      </trkpt>
      <trkpt lat="46.119329323992133" lon="8.656275635585189">
        <ele>2015.0599999999999</ele>
        <time>2015-01-06T11:21:05Z</time>
      </trkpt>
      <trkpt lat="46.119283307343721" lon="8.656202713027597">
        <ele>2017.46</ele>
        <time>2015-01-06T11:21:21Z</time>
      </trkpt>
      <trkpt lat="46.119239302352071" lon="8.656121995300055">
        <ele>2019.8699999999999</ele>
        <time>2015-01-06T11:21:40Z</time>
      </trkpt>
      <trkpt lat="46.119224969297647" lon="8.656073044985533">
        <ele>2021.3099999999999</ele>
        <time>2015-01-06T11:21:51Z</time>
      </trkpt>
      <trkpt lat="46.119186664000154" lon="8.656046725809574">
        <ele>2023.23</ele>
        <time>2015-01-06T11:22:04Z</time>
      </trkpt>
      <trkpt lat="46.119182389229536" lon="8.656052844598889">
        <ele>2023.23</ele>
        <time>2015-01-06T11:22:22Z</time>
      </trkpt>
      <trkpt lat="46.119140479713678" lon="8.656000792980194">
        <ele>2024.1900000000001</ele>
        <time>2015-01-06T11:22:39Z</time>
      </trkpt>
      <trkpt lat="46.119098570197821" lon="8.655917979776859">
        <ele>2026.1199999999999</ele>
        <time>2015-01-06T11:22:52Z</time>
      </trkpt>
      <trkpt lat="46.119045428931713" lon="8.655786970630288">
        <ele>2027.5599999999999</ele>
        <time>2015-01-06T11:23:08Z</time>
      </trkpt>
      <trkpt lat="46.118996059522033" lon="8.655670965090394">
        <ele>2029.48</ele>
        <time>2015-01-06T11:23:24Z</time>
      </trkpt>
      <trkpt lat="46.118979379534721" lon="8.655599132180214">
        <ele>2031.4000000000001</ele>
        <time>2015-01-06T11:23:36Z</time>
      </trkpt>
      <trkpt lat="46.118976194411516" lon="8.655532998964191">
        <ele>2033.8099999999999</ele>
        <time>2015-01-06T11:23:49Z</time>
      </trkpt>
      <trkpt lat="46.11896756105125" lon="8.65547826513648">
        <ele>2035.25</ele>
        <time>2015-01-06T11:24:05Z</time>
      </trkpt>
      <trkpt lat="46.118954066187143" lon="8.655378855764866">
        <ele>2037.6500000000001</ele>
        <time>2015-01-06T11:24:20Z</time>
      </trkpt>
      <trkpt lat="46.11896513029933" lon="8.655330408364534">
        <ele>2038.6099999999999</ele>
        <time>2015-01-06T11:24:32Z</time>
      </trkpt>
      <trkpt lat="46.118981726467609" lon="8.655275506898761">
        <ele>2041.5</ele>
        <time>2015-01-06T11:24:49Z</time>
      </trkpt>
      <trkpt lat="46.118969405069947" lon="8.655282463878393">
        <ele>2041.98</ele>
        <time>2015-01-06T11:25:10Z</time>
      </trkpt>
      <trkpt lat="46.118984324857593" lon="8.655217001214624">
        <ele>2042.46</ele>
        <time>2015-01-06T11:25:28Z</time>
      </trkpt>
      <trkpt lat="46.118998071178794" lon="8.655181042850018">
        <ele>2043.9000000000001</ele>
        <time>2015-01-06T11:25:38Z</time>
      </trkpt>
      <trkpt lat="46.119021037593484" lon="8.655146760866046">
        <ele>2044.8599999999999</ele>
        <time>2015-01-06T11:25:49Z</time>
      </trkpt>
      <trkpt lat="46.11902086995542" lon="8.655119268223643">
        <ele>2045.8199999999999</ele>
        <time>2015-01-06T11:25:59Z</time>
      </trkpt>
      <trkpt lat="46.119019109755754" lon="8.655066881328821">
        <ele>2046.3</ele>
        <time>2015-01-06T11:26:15Z</time>
      </trkpt>
      <trkpt lat="46.119035370647907" lon="8.655037041753531">
        <ele>2047.75</ele>
        <time>2015-01-06T11:26:24Z</time>
      </trkpt>
      <trkpt lat="46.119044255465269" lon="8.655009213835001">
        <ele>2048.71</ele>
        <time>2015-01-06T11:26:33Z</time>
      </trkpt>
      <trkpt lat="46.119073005393147" lon="8.654980966821313">
        <ele>2051.1100000000001</ele>
        <time>2015-01-06T11:26:47Z</time>
      </trkpt>
      <trkpt lat="46.11910586245358" lon="8.654986750334501">
        <ele>2052.0700000000002</ele>
        <time>2015-01-06T11:27:00Z</time>
      </trkpt>
      <trkpt lat="46.119096977636218" lon="8.654974512755871">
        <ele>2052.0700000000002</ele>
        <time>2015-01-06T11:27:19Z</time>
      </trkpt>
      <trkpt lat="46.119089098647237" lon="8.654969902709127">
        <ele>2052.0700000000002</ele>
        <time>2015-01-06T11:27:45Z</time>
      </trkpt>
      <trkpt lat="46.119100833311677" lon="8.65496470592916">
        <ele>2052.0700000000002</ele>
        <time>2015-01-06T11:28:06Z</time>
      </trkpt>
      <trkpt lat="46.119095301255584" lon="8.654980547726154">
        <ele>2052.0700000000002</ele>
        <time>2015-01-06T11:28:32Z</time>
      </trkpt>
      <trkpt lat="46.1190633662045" lon="8.655023630708456">
        <ele>2051.1100000000001</ele>
        <time>2015-01-06T11:28:41Z</time>
      </trkpt>
      <trkpt lat="46.119041154161096" lon="8.655074927955866">
        <ele>2049.1900000000001</ele>
        <time>2015-01-06T11:28:53Z</time>
      </trkpt>
      <trkpt lat="46.119019696488976" lon="8.655172241851687">
        <ele>2045.8199999999999</ele>
        <time>2015-01-06T11:29:04Z</time>
      </trkpt>
      <trkpt lat="46.119012488052249" lon="8.655204679816961">
        <ele>2044.8599999999999</ele>
        <time>2015-01-06T11:29:08Z</time>
      </trkpt>
      <trkpt lat="46.118996310979128" lon="8.655262598767877">
        <ele>2042.46</ele>
        <time>2015-01-06T11:29:21Z</time>
      </trkpt>
      <trkpt lat="46.118967058137059" lon="8.655355554074049">
        <ele>2040.54</ele>
        <time>2015-01-06T11:29:34Z</time>
      </trkpt>
      <trkpt lat="46.118958760052919" lon="8.655430153012276">
        <ele>2037.6500000000001</ele>
        <time>2015-01-06T11:29:45Z</time>
      </trkpt>
      <trkpt lat="46.118981726467609" lon="8.655551774427295">
        <ele>2034.29</ele>
        <time>2015-01-06T11:29:59Z</time>
      </trkpt>
      <trkpt lat="46.11898273229599" lon="8.655613465234637">
        <ele>2031.8800000000001</ele>
        <time>2015-01-06T11:30:06Z</time>
      </trkpt>
      <trkpt lat="46.119011649861932" lon="8.655760819092393">
        <ele>2028.52</ele>
        <time>2015-01-06T11:30:14Z</time>
      </trkpt>
      <trkpt lat="46.119023971259594" lon="8.655780600383878">
        <ele>2028.04</ele>
        <time>2015-01-06T11:30:33Z</time>
      </trkpt>
      <trkpt lat="46.119013242423534" lon="8.655789066106081">
        <ele>2028.04</ele>
        <time>2015-01-06T11:30:50Z</time>
      </trkpt>
      <trkpt lat="46.119116591289639" lon="8.655662499368191">
        <ele>2023.71</ele>
        <time>2015-01-06T11:31:26Z</time>
      </trkpt>
      <trkpt lat="46.119067808613181" lon="8.655739696696401">
        <ele>2022.75</ele>
        <time>2015-01-06T11:31:27Z</time>
      </trkpt>
      <trkpt lat="46.11904626712203" lon="8.655767692252994">
        <ele>2029.48</ele>
        <time>2015-01-06T11:31:28Z</time>
      </trkpt>
      <trkpt lat="46.119044590741396" lon="8.655768865719438">
        <ele>2028.04</ele>
        <time>2015-01-06T11:31:29Z</time>
      </trkpt>
      <trkpt lat="46.119001172482967" lon="8.655772972851992">
        <ele>2027.0799999999999</ele>
        <time>2015-01-06T11:31:31Z</time>
      </trkpt>
      <trkpt lat="46.119012739509344" lon="8.655773978680372">
        <ele>2029.96</ele>
        <time>2015-01-06T11:31:34Z</time>
      </trkpt>
      <trkpt lat="46.119072670117021" lon="8.65578998811543">
        <ele>2027.0799999999999</ele>
        <time>2015-01-06T11:31:48Z</time>
      </trkpt>
      <trkpt lat="46.119113238528371" lon="8.655900880694389">
        <ele>2026.1199999999999</ele>
        <time>2015-01-06T11:31:58Z</time>
      </trkpt>
      <trkpt lat="46.11919429153204" lon="8.65602258592844">
        <ele>2023.23</ele>
        <time>2015-01-06T11:32:14Z</time>
      </trkpt>
      <trkpt lat="46.119240811094642" lon="8.656139429658651">
        <ele>2020.3499999999999</ele>
        <time>2015-01-06T11:32:27Z</time>
      </trkpt>
      <trkpt lat="46.119292443618178" lon="8.656216962262988">
        <ele>2016.98</ele>
        <time>2015-01-06T11:32:36Z</time>
      </trkpt>
      <trkpt lat="46.119350949302316" lon="8.656286532059312">
        <ele>2013.6199999999999</ele>
        <time>2015-01-06T11:32:46Z</time>
      </trkpt>
      <trkpt lat="46.119393613189459" lon="8.656400023028255">
        <ele>2010.25</ele>
        <time>2015-01-06T11:32:59Z</time>
      </trkpt>
      <trkpt lat="46.119463853538036" lon="8.656465066596866">
        <ele>2008.3299999999999</ele>
        <time>2015-01-06T11:33:07Z</time>
      </trkpt>
      <trkpt lat="46.119531411677599" lon="8.65663287229836">
        <ele>2006.8900000000001</ele>
        <time>2015-01-06T11:33:18Z</time>
      </trkpt>
      <trkpt lat="46.119562173262239" lon="8.656670171767473">
        <ele>2008.3299999999999</ele>
        <time>2015-01-06T11:33:22Z</time>
      </trkpt>
      <trkpt lat="46.119612716138363" lon="8.656810903921723">
        <ele>2006.8900000000001</ele>
        <time>2015-01-06T11:33:35Z</time>
      </trkpt>
      <trkpt lat="46.119623947888613" lon="8.656826997175813">
        <ele>2006.4100000000001</ele>
        <time>2015-01-06T11:33:37Z</time>
      </trkpt>
      <trkpt lat="46.119677340611815" lon="8.656889274716377">
        <ele>2005.45</ele>
        <time>2015-01-06T11:33:45Z</time>
      </trkpt>
      <trkpt lat="46.119692511856556" lon="8.656992120668292">
        <ele>2003.04</ele>
        <time>2015-01-06T11:33:56Z</time>
      </trkpt>
      <trkpt lat="46.119691086933017" lon="8.657016512006521">
        <ele>2002.5599999999999</ele>
        <time>2015-01-06T11:33:58Z</time>
      </trkpt>
      <trkpt lat="46.119687566533685" lon="8.657044759020209">
        <ele>2001.1199999999999</ele>
        <time>2015-01-06T11:34:02Z</time>
      </trkpt>
      <trkpt lat="46.119694020599127" lon="8.657107120379806">
        <ele>1999.6800000000001</ele>
        <time>2015-01-06T11:34:08Z</time>
      </trkpt>
      <trkpt lat="46.119704330340028" lon="8.657199237495661">
        <ele>1997.28</ele>
        <time>2015-01-06T11:34:15Z</time>
      </trkpt>
      <trkpt lat="46.119768368080258" lon="8.657285403460264">
        <ele>1994.3900000000001</ele>
        <time>2015-01-06T11:34:28Z</time>
      </trkpt>
      <trkpt lat="46.119778174906969" lon="8.657318679615855">
        <ele>1992.47</ele>
        <time>2015-01-06T11:34:36Z</time>
      </trkpt>
      <trkpt lat="46.119778174906969" lon="8.657325049862266">
        <ele>1992.47</ele>
        <time>2015-01-06T11:34:37Z</time>
      </trkpt>
      <trkpt lat="46.119796698912978" lon="8.657386573031545">
        <ele>1990.55</ele>
        <time>2015-01-06T11:34:44Z</time>
      </trkpt>
      <trkpt lat="46.119858138263226" lon="8.657425716519356">
        <ele>1988.6199999999999</ele>
        <time>2015-01-06T11:34:53Z</time>
      </trkpt>
      <trkpt lat="46.119851600378752" lon="8.65749821998179">
        <ele>1986.7</ele>
        <time>2015-01-06T11:35:02Z</time>
      </trkpt>
      <trkpt lat="46.119875321164727" lon="8.657524874433875">
        <ele>1984.3</ele>
        <time>2015-01-06T11:35:12Z</time>
      </trkpt>
      <trkpt lat="46.119892504066229" lon="8.657581536099315">
        <ele>1983.8199999999999</ele>
        <time>2015-01-06T11:35:23Z</time>
      </trkpt>
      <trkpt lat="46.119907340034842" lon="8.657640879973769">
        <ele>1981.4100000000001</ele>
        <time>2015-01-06T11:35:34Z</time>
      </trkpt>
      <trkpt lat="46.119922176003456" lon="8.657694775611162">
        <ele>1979.01</ele>
        <time>2015-01-06T11:35:43Z</time>
      </trkpt>
      <trkpt lat="46.119944388046861" lon="8.657780941575766">
        <ele>1977.0899999999999</ele>
        <time>2015-01-06T11:35:54Z</time>
      </trkpt>
      <trkpt lat="46.119978921487927" lon="8.657867778092623">
        <ele>1973.72</ele>
        <time>2015-01-06T11:36:04Z</time>
      </trkpt>
      <trkpt lat="46.120006581768394" lon="8.657920500263572">
        <ele>1972.28</ele>
        <time>2015-01-06T11:36:10Z</time>
      </trkpt>
      <trkpt lat="46.12005720846355" lon="8.658026028424501">
        <ele>1970.8399999999999</ele>
        <time>2015-01-06T11:36:19Z</time>
      </trkpt>
      <trkpt lat="46.120064668357372" lon="8.658108003437519">
        <ele>1968.4400000000001</ele>
        <time>2015-01-06T11:36:32Z</time>
      </trkpt>
      <trkpt lat="46.120104817673564" lon="8.658174723386765">
        <ele>1965.0699999999999</ele>
        <time>2015-01-06T11:36:43Z</time>
      </trkpt>
      <trkpt lat="46.120133986696601" lon="8.658253932371736">
        <ele>1962.6700000000001</ele>
        <time>2015-01-06T11:36:51Z</time>
      </trkpt>
      <trkpt lat="46.120201461017132" lon="8.658371111378074">
        <ele>1959.78</ele>
        <time>2015-01-06T11:37:03Z</time>
      </trkpt>
      <trkpt lat="46.120242280885577" lon="8.658436741679907">
        <ele>1957.3800000000001</ele>
        <time>2015-01-06T11:37:11Z</time>
      </trkpt>
      <trkpt lat="46.120337499305606" lon="8.658558027818799">
        <ele>1955.46</ele>
        <time>2015-01-06T11:37:23Z</time>
      </trkpt>
      <trkpt lat="46.12036406993866" lon="8.658617539331317">
        <ele>1954.5</ele>
        <time>2015-01-06T11:37:28Z</time>
      </trkpt>
      <trkpt lat="46.120386365801096" lon="8.658675039187074">
        <ele>1953.54</ele>
        <time>2015-01-06T11:37:33Z</time>
      </trkpt>
      <trkpt lat="46.12049407325685" lon="8.658834714442492">
        <ele>1950.6500000000001</ele>
        <time>2015-01-06T11:37:48Z</time>
      </trkpt>
      <trkpt lat="46.120540928095579" lon="8.658883329480887">
        <ele>1950.6500000000001</ele>
        <time>2015-01-06T11:37:57Z</time>
      </trkpt>
      <trkpt lat="46.120568085461855" lon="8.658924652263522">
        <ele>1950.6500000000001</ele>
        <time>2015-01-06T11:38:02Z</time>
      </trkpt>
      <trkpt lat="46.120634973049164" lon="8.658956587314606">
        <ele>1952.5699999999999</ele>
        <time>2015-01-06T11:38:16Z</time>
      </trkpt>
      <trkpt lat="46.120669506490231" lon="8.659033197909594">
        <ele>1954.02</ele>
        <time>2015-01-06T11:38:27Z</time>
      </trkpt>
      <trkpt lat="46.120680822059512" lon="8.65908382460475">
        <ele>1953.0599999999999</ele>
        <time>2015-01-06T11:38:35Z</time>
      </trkpt>
      <trkpt lat="46.120694819837809" lon="8.65910142660141">
        <ele>1952.5699999999999</ele>
        <time>2015-01-06T11:38:37Z</time>
      </trkpt>
      <trkpt lat="46.120705213397741" lon="8.659143252298236">
        <ele>1952.0899999999999</ele>
        <time>2015-01-06T11:38:41Z</time>
      </trkpt>
      <trkpt lat="46.120747039094567" lon="8.65921919234097">
        <ele>1951.1300000000001</ele>
        <time>2015-01-06T11:38:48Z</time>
      </trkpt>
      <trkpt lat="46.120783248916268" lon="8.659293120726943">
        <ele>1949.6900000000001</ele>
        <time>2015-01-06T11:38:56Z</time>
      </trkpt>
      <trkpt lat="46.120817782357335" lon="8.659429159015417">
        <ele>1946.8099999999999</ele>
        <time>2015-01-06T11:39:09Z</time>
      </trkpt>
      <trkpt lat="46.120877377688885" lon="8.659541979432106">
        <ele>1945.8499999999999</ele>
        <time>2015-01-06T11:39:22Z</time>
      </trkpt>
      <trkpt lat="46.120952228084207" lon="8.659612722694874">
        <ele>1946.3299999999999</ele>
        <time>2015-01-06T11:39:33Z</time>
      </trkpt>
      <trkpt lat="46.121018026024103" lon="8.659757226705551">
        <ele>1946.3299999999999</ele>
        <time>2015-01-06T11:39:45Z</time>
      </trkpt>
      <trkpt lat="46.121084745973349" lon="8.659835513681173">
        <ele>1946.8099999999999</ele>
        <time>2015-01-06T11:39:58Z</time>
      </trkpt>
      <trkpt lat="46.121161775663495" lon="8.66000977344811">
        <ele>1944.8800000000001</ele>
        <time>2015-01-06T11:40:11Z</time>
      </trkpt>
      <trkpt lat="46.121177282184362" lon="8.660054448992014">
        <ele>1944.4000000000001</ele>
        <time>2015-01-06T11:40:23Z</time>
      </trkpt>
      <trkpt lat="46.121222209185362" lon="8.660183697938919">
        <ele>1942.96</ele>
        <time>2015-01-06T11:40:39Z</time>
      </trkpt>
      <trkpt lat="46.121268225833774" lon="8.660356532782316">
        <ele>1939.5999999999999</ele>
        <time>2015-01-06T11:40:51Z</time>
      </trkpt>
      <trkpt lat="46.121344082057476" lon="8.660535737872124">
        <ele>1937.6700000000001</ele>
        <time>2015-01-06T11:41:04Z</time>
      </trkpt>
      <trkpt lat="46.12137358635664" lon="8.660589382052422">
        <ele>1937.6700000000001</ele>
        <time>2015-01-06T11:41:08Z</time>
      </trkpt>
      <trkpt lat="46.121436366811395" lon="8.6607994325459">
        <ele>1939.1199999999999</ele>
        <time>2015-01-06T11:41:23Z</time>
      </trkpt>
      <trkpt lat="46.121445083990693" lon="8.660815777257085">
        <ele>1939.5999999999999</ele>
        <time>2015-01-06T11:41:25Z</time>
      </trkpt>
      <trkpt lat="46.121475342661142" lon="8.660890208557248">
        <ele>1940.0799999999999</ele>
        <time>2015-01-06T11:41:33Z</time>
      </trkpt>
      <trkpt lat="46.121535189449787" lon="8.660980565473437">
        <ele>1939.1199999999999</ele>
        <time>2015-01-06T11:41:42Z</time>
      </trkpt>
      <trkpt lat="46.121555138379335" lon="8.661064468324184">
        <ele>1940.0799999999999</ele>
        <time>2015-01-06T11:41:51Z</time>
      </trkpt>
      <trkpt lat="46.121569639071822" lon="8.661102019250393">
        <ele>1939.5999999999999</ele>
        <time>2015-01-06T11:41:54Z</time>
      </trkpt>
      <trkpt lat="46.121591348201036" lon="8.661248618736863">
        <ele>1939.5999999999999</ele>
        <time>2015-01-06T11:42:07Z</time>
      </trkpt>
      <trkpt lat="46.121585061773658" lon="8.661286002025008">
        <ele>1938.6400000000001</ele>
        <time>2015-01-06T11:42:10Z</time>
      </trkpt>
      <trkpt lat="46.121585229411721" lon="8.661375688388944">
        <ele>1937.1900000000001</ele>
        <time>2015-01-06T11:42:16Z</time>
      </trkpt>
      <trkpt lat="46.12158858217299" lon="8.661380549892783">
        <ele>1937.1900000000001</ele>
        <time>2015-01-06T11:42:28Z</time>
      </trkpt>
      <trkpt lat="46.121612722054124" lon="8.661542236804962">
        <ele>1937.6700000000001</ele>
        <time>2015-01-06T11:42:39Z</time>
      </trkpt>
      <trkpt lat="46.121646501123905" lon="8.661635611206293">
        <ele>1939.1199999999999</ele>
        <time>2015-01-06T11:42:48Z</time>
      </trkpt>
      <trkpt lat="46.121679190546274" lon="8.661826718598604">
        <ele>1937.1900000000001</ele>
        <time>2015-01-06T11:43:02Z</time>
      </trkpt>
      <trkpt lat="46.121692769229412" lon="8.661882625892758">
        <ele>1935.75</ele>
        <time>2015-01-06T11:43:07Z</time>
      </trkpt>
      <trkpt lat="46.121695451438427" lon="8.661952866241336">
        <ele>1934.3099999999999</ele>
        <time>2015-01-06T11:43:12Z</time>
      </trkpt>
      <trkpt lat="46.121722357347608" lon="8.662131065502763">
        <ele>1930.95</ele>
        <time>2015-01-06T11:43:24Z</time>
      </trkpt>
      <trkpt lat="46.121740713715553" lon="8.662283783778548">
        <ele>1928.0599999999999</ele>
        <time>2015-01-06T11:43:34Z</time>
      </trkpt>
      <trkpt lat="46.121756471693516" lon="8.662338266149163">
        <ele>1926.6199999999999</ele>
        <time>2015-01-06T11:43:37Z</time>
      </trkpt>
      <trkpt lat="46.121773235499859" lon="8.662479165941477">
        <ele>1924.22</ele>
        <time>2015-01-06T11:43:45Z</time>
      </trkpt>
      <trkpt lat="46.121794860810041" lon="8.662610510364175">
        <ele>1921.8099999999999</ele>
        <time>2015-01-06T11:43:55Z</time>
      </trkpt>
      <trkpt lat="46.121776755899191" lon="8.662672201171517">
        <ele>1920.3699999999999</ele>
        <time>2015-01-06T11:43:59Z</time>
      </trkpt>
      <trkpt lat="46.121783880516887" lon="8.662775969132781">
        <ele>1917.49</ele>
        <time>2015-01-06T11:44:05Z</time>
      </trkpt>
      <trkpt lat="46.121803829446435" lon="8.662863643839955">
        <ele>1915.5599999999999</ele>
        <time>2015-01-06T11:44:11Z</time>
      </trkpt>
      <trkpt lat="46.121800728142262" lon="8.663020050153136">
        <ele>1912.2</ele>
        <time>2015-01-06T11:44:21Z</time>
      </trkpt>
      <trkpt lat="46.121782707050443" lon="8.663151059299707">
        <ele>1909.8</ele>
        <time>2015-01-06T11:44:28Z</time>
      </trkpt>
      <trkpt lat="46.121786646544933" lon="8.663185592740774">
        <ele>1908.8299999999999</ele>
        <time>2015-01-06T11:44:30Z</time>
      </trkpt>
      <trkpt lat="46.121786898002028" lon="8.663237560540438">
        <ele>1907.8699999999999</ele>
        <time>2015-01-06T11:44:33Z</time>
      </trkpt>
      <trkpt lat="46.121783629059792" lon="8.663275614380837">
        <ele>1906.9100000000001</ele>
        <time>2015-01-06T11:44:35Z</time>
      </trkpt>
      <trkpt lat="46.12180064432323" lon="8.663402684032917">
        <ele>1904.03</ele>
        <time>2015-01-06T11:44:43Z</time>
      </trkpt>
      <trkpt lat="46.121790921315551" lon="8.663430009037256">
        <ele>1903.0699999999999</ele>
        <time>2015-01-06T11:44:45Z</time>
      </trkpt>
      <trkpt lat="46.121775330975652" lon="8.66357090882957">
        <ele>1899.7</ele>
        <time>2015-01-06T11:44:54Z</time>
      </trkpt>
      <trkpt lat="46.121774492785335" lon="8.663602257147431">
        <ele>1898.74</ele>
        <time>2015-01-06T11:44:56Z</time>
      </trkpt>
      <trkpt lat="46.121806763112545" lon="8.66369454190135">
        <ele>1895.3800000000001</ele>
        <time>2015-01-06T11:45:04Z</time>
      </trkpt>
      <trkpt lat="46.121808271855116" lon="8.663709629327059">
        <ele>1894.9000000000001</ele>
        <time>2015-01-06T11:45:06Z</time>
      </trkpt>
      <trkpt lat="46.121880859136581" lon="8.663819683715701">
        <ele>1891.05</ele>
        <time>2015-01-06T11:45:15Z</time>
      </trkpt>
      <trkpt lat="46.121924193575978" lon="8.663948345929384">
        <ele>1887.21</ele>
        <time>2015-01-06T11:45:23Z</time>
      </trkpt>
      <trkpt lat="46.121933329850435" lon="8.663970474153757">
        <ele>1886.24</ele>
        <time>2015-01-06T11:45:25Z</time>
      </trkpt>
      <trkpt lat="46.121939867734909" lon="8.66410399787128">
        <ele>1882.4000000000001</ele>
        <time>2015-01-06T11:45:32Z</time>
      </trkpt>
      <trkpt lat="46.121963001787663" lon="8.664177590981126">
        <ele>1879.03</ele>
        <time>2015-01-06T11:45:38Z</time>
      </trkpt>
      <trkpt lat="46.122003654018044" lon="8.664222098886967">
        <ele>1878.0699999999999</ele>
        <time>2015-01-06T11:45:43Z</time>
      </trkpt>
      <trkpt lat="46.122054783627391" lon="8.664306588470936">
        <ele>1876.1500000000001</ele>
        <time>2015-01-06T11:45:50Z</time>
      </trkpt>
      <trkpt lat="46.122028715908527" lon="8.664375403895974">
        <ele>1874.23</ele>
        <time>2015-01-06T11:45:54Z</time>
      </trkpt>
      <trkpt lat="46.122007006779313" lon="8.664406249299645">
        <ele>1873.27</ele>
        <time>2015-01-06T11:45:57Z</time>
      </trkpt>
      <trkpt lat="46.122007928788662" lon="8.664469616487622">
        <ele>1870.3800000000001</ele>
        <time>2015-01-06T11:46:01Z</time>
      </trkpt>
      <trkpt lat="46.12203860655427" lon="8.664525020867586">
        <ele>1868.9400000000001</ele>
        <time>2015-01-06T11:46:06Z</time>
      </trkpt>
      <trkpt lat="46.122046569362283" lon="8.664565337821841">
        <ele>1867.5</ele>
        <time>2015-01-06T11:46:09Z</time>
      </trkpt>
      <trkpt lat="46.122060231864452" lon="8.664665417745709">
        <ele>1863.1700000000001</ele>
        <time>2015-01-06T11:46:15Z</time>
      </trkpt>
      <trkpt lat="46.122023770585656" lon="8.664733730256558">
        <ele>1859.8099999999999</ele>
        <time>2015-01-06T11:46:24Z</time>
      </trkpt>
      <trkpt lat="46.122007593512535" lon="8.664830457419157">
        <ele>1855.96</ele>
        <time>2015-01-06T11:46:30Z</time>
      </trkpt>
      <trkpt lat="46.122008264064789" lon="8.664890136569738">
        <ele>1854.04</ele>
        <time>2015-01-06T11:46:32Z</time>
      </trkpt>
      <trkpt lat="46.12201027572155" lon="8.664910588413477">
        <ele>1853.5599999999999</ele>
        <time>2015-01-06T11:46:33Z</time>
      </trkpt>
      <trkpt lat="46.122010862454772" lon="8.664934812113643">
        <ele>1852.5999999999999</ele>
        <time>2015-01-06T11:46:34Z</time>
      </trkpt>
      <trkpt lat="46.122013125568628" lon="8.664951408281922">
        <ele>1852.1199999999999</ele>
        <time>2015-01-06T11:46:35Z</time>
      </trkpt>
      <trkpt lat="46.122013377025723" lon="8.664967333897948">
        <ele>1851.1600000000001</ele>
        <time>2015-01-06T11:46:36Z</time>
      </trkpt>
      <trkpt lat="46.122012874111533" lon="8.664984852075577">
        <ele>1850.6800000000001</ele>
        <time>2015-01-06T11:46:37Z</time>
      </trkpt>
      <trkpt lat="46.122015556320548" lon="8.665037071332336">
        <ele>1848.75</ele>
        <time>2015-01-06T11:46:41Z</time>
      </trkpt>
      <trkpt lat="46.122018909081817" lon="8.665053835138679">
        <ele>1848.27</ele>
        <time>2015-01-06T11:46:42Z</time>
      </trkpt>
      <trkpt lat="46.1220180708915" lon="8.665071101859212">
        <ele>1847.79</ele>
        <time>2015-01-06T11:46:43Z</time>
      </trkpt>
      <trkpt lat="46.122026285156608" lon="8.665111334994435">
        <ele>1846.3499999999999</ele>
        <time>2015-01-06T11:46:46Z</time>
      </trkpt>
      <trkpt lat="46.122045563533902" lon="8.665173947811127">
        <ele>1844.9100000000001</ele>
        <time>2015-01-06T11:46:50Z</time>
      </trkpt>
      <trkpt lat="46.122074062004685" lon="8.665320463478565">
        <ele>1842.02</ele>
        <time>2015-01-06T11:46:59Z</time>
      </trkpt>
      <trkpt lat="46.122086383402348" lon="8.665415430441499">
        <ele>1839.6199999999999</ele>
        <time>2015-01-06T11:47:04Z</time>
      </trkpt>
      <trkpt lat="46.12209283746779" lon="8.665433283895254">
        <ele>1839.1400000000001</ele>
        <time>2015-01-06T11:47:05Z</time>
      </trkpt>
      <trkpt lat="46.122097950428724" lon="8.665451221168041">
        <ele>1838.6600000000001</ele>
        <time>2015-01-06T11:47:06Z</time>
      </trkpt>
      <trkpt lat="46.122100548818707" lon="8.66546873934567">
        <ele>1838.1800000000001</ele>
        <time>2015-01-06T11:47:07Z</time>
      </trkpt>
      <trkpt lat="46.12210163846612" lon="8.665484329685569">
        <ele>1837.7</ele>
        <time>2015-01-06T11:47:08Z</time>
      </trkpt>
      <trkpt lat="46.12213390879333" lon="8.665641322731972">
        <ele>1834.8099999999999</ele>
        <time>2015-01-06T11:47:17Z</time>
      </trkpt>
      <trkpt lat="46.122154528275132" lon="8.6657521314919">
        <ele>1831.9300000000001</ele>
        <time>2015-01-06T11:47:25Z</time>
      </trkpt>
      <trkpt lat="46.122163161635399" lon="8.665750790387392">
        <ele>1831.45</ele>
        <time>2015-01-06T11:47:37Z</time>
      </trkpt>
      <trkpt lat="46.122173890471458" lon="8.665763363242149">
        <ele>1831.45</ele>
        <time>2015-01-06T11:47:38Z</time>
      </trkpt>
      <trkpt lat="46.122183948755264" lon="8.665775014087558">
        <ele>1831.45</ele>
        <time>2015-01-06T11:47:39Z</time>
      </trkpt>
      <trkpt lat="46.122200125828385" lon="8.665798986330628">
        <ele>1830.97</ele>
        <time>2015-01-06T11:47:41Z</time>
      </trkpt>
      <trkpt lat="46.122199958190322" lon="8.665817677974701">
        <ele>1830.49</ele>
        <time>2015-01-06T11:47:42Z</time>
      </trkpt>
      <trkpt lat="46.122197695076466" lon="8.665838716551662">
        <ele>1830.01</ele>
        <time>2015-01-06T11:47:43Z</time>
      </trkpt>
      <trkpt lat="46.122190989553928" lon="8.665862437337637">
        <ele>1829.53</ele>
        <time>2015-01-06T11:47:44Z</time>
      </trkpt>
      <trkpt lat="46.122178081423044" lon="8.665883643552661">
        <ele>1829.05</ele>
        <time>2015-01-06T11:47:45Z</time>
      </trkpt>
      <trkpt lat="46.122161904349923" lon="8.66589579731226">
        <ele>1828.0799999999999</ele>
        <time>2015-01-06T11:47:46Z</time>
      </trkpt>
      <trkpt lat="46.122151678428054" lon="8.665907196700573">
        <ele>1828.0799999999999</ele>
        <time>2015-01-06T11:47:47Z</time>
      </trkpt>
      <trkpt lat="46.122146984562278" lon="8.665925217792392">
        <ele>1827.1199999999999</ele>
        <time>2015-01-06T11:47:48Z</time>
      </trkpt>
      <trkpt lat="46.12214170396328" lon="8.66594709455967">
        <ele>1826.6400000000001</ele>
        <time>2015-01-06T11:47:49Z</time>
      </trkpt>
      <trkpt lat="46.122194593772292" lon="8.666087323799729">
        <ele>1822.8</ele>
        <time>2015-01-06T11:47:57Z</time>
      </trkpt>
      <trkpt lat="46.122258380055428" lon="8.666229397058487">
        <ele>1818.95</ele>
        <time>2015-01-06T11:48:06Z</time>
      </trkpt>
      <trkpt lat="46.122271791100502" lon="8.666245071217418">
        <ele>1818.95</ele>
        <time>2015-01-06T11:48:08Z</time>
      </trkpt>
      <trkpt lat="46.122295595705509" lon="8.666317742317915">
        <ele>1817.51</ele>
        <time>2015-01-06T11:48:13Z</time>
      </trkpt>
      <trkpt lat="46.122296182438731" lon="8.666361328214407">
        <ele>1816.0699999999999</ele>
        <time>2015-01-06T11:48:16Z</time>
      </trkpt>
      <trkpt lat="46.122304480522871" lon="8.666418576613069">
        <ele>1814.6300000000001</ele>
        <time>2015-01-06T11:48:20Z</time>
      </trkpt>
      <trkpt lat="46.122315963730216" lon="8.666463000699878">
        <ele>1813.6600000000001</ele>
        <time>2015-01-06T11:48:23Z</time>
      </trkpt>
      <trkpt lat="46.122331637889147" lon="8.666499042883515">
        <ele>1812.22</ele>
        <time>2015-01-06T11:48:26Z</time>
      </trkpt>
      <trkpt lat="46.122316131368279" lon="8.666560985147953">
        <ele>1810.78</ele>
        <time>2015-01-06T11:48:30Z</time>
      </trkpt>
      <trkpt lat="46.122363992035389" lon="8.66662971675396">
        <ele>1808.8599999999999</ele>
        <time>2015-01-06T11:48:38Z</time>
      </trkpt>
      <trkpt lat="46.122330632060766" lon="8.666697945445776">
        <ele>1807.4200000000001</ele>
        <time>2015-01-06T11:48:42Z</time>
      </trkpt>
      <trkpt lat="46.122325854375958" lon="8.666740944609046">
        <ele>1806.45</ele>
        <time>2015-01-06T11:48:45Z</time>
      </trkpt>
      <trkpt lat="46.122298361733556" lon="8.666814370080829">
        <ele>1804.53</ele>
        <time>2015-01-06T11:48:49Z</time>
      </trkpt>
      <trkpt lat="46.122293751686811" lon="8.666831636801362">
        <ele>1804.53</ele>
        <time>2015-01-06T11:48:50Z</time>
      </trkpt>
      <trkpt lat="46.122297523543239" lon="8.666925178840756">
        <ele>1800.6900000000001</ele>
        <time>2015-01-06T11:48:56Z</time>
      </trkpt>
      <trkpt lat="46.122303726151586" lon="8.666925095021725">
        <ele>1800.21</ele>
        <time>2015-01-06T11:48:57Z</time>
      </trkpt>
      <trkpt lat="46.122318981215358" lon="8.666956191882491">
        <ele>1800.21</ele>
        <time>2015-01-06T11:49:12Z</time>
      </trkpt>
      <trkpt lat="46.122267013415694" lon="8.667070772498846">
        <ele>1797.3199999999999</ele>
        <time>2015-01-06T11:49:19Z</time>
      </trkpt>
      <trkpt lat="46.122260056436062" lon="8.6670973431319">
        <ele>1795.8800000000001</ele>
        <time>2015-01-06T11:49:21Z</time>
      </trkpt>
      <trkpt lat="46.12223893404007" lon="8.6670939065516">
        <ele>1794.9200000000001</ele>
        <time>2015-01-06T11:49:23Z</time>
      </trkpt>
      <trkpt lat="46.122229211032391" lon="8.667103881016374">
        <ele>1793.48</ele>
        <time>2015-01-06T11:49:26Z</time>
      </trkpt>
      <trkpt lat="46.122250081971288" lon="8.667101031169295">
        <ele>1793</ele>
        <time>2015-01-06T11:49:28Z</time>
      </trkpt>
      <trkpt lat="46.122306911274791" lon="8.667127350345254">
        <ele>1793.48</ele>
        <time>2015-01-06T11:49:41Z</time>
      </trkpt>
      <trkpt lat="46.122299870476127" lon="8.667134307324886">
        <ele>1793</ele>
        <time>2015-01-06T11:50:03Z</time>
      </trkpt>
      <trkpt lat="46.12231764011085" lon="8.667150568217039">
        <ele>1793.48</ele>
        <time>2015-01-06T11:50:16Z</time>
      </trkpt>
      <trkpt lat="46.12231470644474" lon="8.667146628722549">
        <ele>1793.48</ele>
        <time>2015-01-06T11:50:19Z</time>
      </trkpt>
      <trkpt lat="46.122305653989315" lon="8.667145203799009">
        <ele>1792.52</ele>
        <time>2015-01-06T11:50:30Z</time>
      </trkpt>
      <trkpt lat="46.122347228229046" lon="8.66715794429183">
        <ele>1792.52</ele>
        <time>2015-01-06T11:50:46Z</time>
      </trkpt>
      <trkpt lat="46.122339265421033" lon="8.66715693846345">
        <ele>1792.03</ele>
        <time>2015-01-06T11:51:00Z</time>
      </trkpt>
      <trkpt lat="46.122343959286809" lon="8.667139587923884">
        <ele>1792.52</ele>
        <time>2015-01-06T11:51:25Z</time>
      </trkpt>
      <trkpt lat="46.12235183827579" lon="8.667130367830396">
        <ele>1792.52</ele>
        <time>2015-01-06T11:51:49Z</time>
      </trkpt>
      <trkpt lat="46.122351670637727" lon="8.667127937078476">
        <ele>1792.52</ele>
        <time>2015-01-06T11:52:05Z</time>
      </trkpt>
      <trkpt lat="46.122347228229046" lon="8.667125422507525">
        <ele>1792.52</ele>
        <time>2015-01-06T11:52:28Z</time>
      </trkpt>
      <trkpt lat="46.122335158288479" lon="8.667139001190662">
        <ele>1792.52</ele>
        <time>2015-01-06T11:53:00Z</time>
      </trkpt>
      <trkpt lat="46.122324261814356" lon="8.66713397204876">
        <ele>1793</ele>
        <time>2015-01-06T11:53:32Z</time>
      </trkpt>
      <trkpt lat="46.12232593819499" lon="8.667139252647758">
        <ele>1793</ele>
        <time>2015-01-06T11:53:57Z</time>
      </trkpt>
      <trkpt lat="46.122331889346242" lon="8.667146125808358">
        <ele>1793</ele>
        <time>2015-01-06T11:54:21Z</time>
      </trkpt>
      <trkpt lat="46.122329458594322" lon="8.66714377887547">
        <ele>1793</ele>
        <time>2015-01-06T11:54:48Z</time>
      </trkpt>
      <trkpt lat="46.122321747243404" lon="8.667137827724218">
        <ele>1793</ele>
        <time>2015-01-06T11:55:24Z</time>
      </trkpt>
      <trkpt lat="46.122319316491485" lon="8.667141264304519">
        <ele>1793</ele>
        <time>2015-01-06T11:55:58Z</time>
      </trkpt>
      <trkpt lat="46.122325519099832" lon="8.66715744137764">
        <ele>1793</ele>
        <time>2015-01-06T11:56:25Z</time>
      </trkpt>
      <trkpt lat="46.122317053377628" lon="8.667157273739576">
        <ele>1793</ele>
        <time>2015-01-06T11:56:58Z</time>
      </trkpt>
      <trkpt lat="46.122322333976626" lon="8.667151406407356">
        <ele>1793</ele>
        <time>2015-01-06T11:57:28Z</time>
      </trkpt>
      <trkpt lat="46.122304815798998" lon="8.667152831330895">
        <ele>1793</ele>
        <time>2015-01-06T11:57:54Z</time>
      </trkpt>
      <trkpt lat="46.122305737808347" lon="8.667157525196672">
        <ele>1793.48</ele>
        <time>2015-01-06T11:58:21Z</time>
      </trkpt>
      <trkpt lat="46.122311102226377" lon="8.667147466912866">
        <ele>1793</ele>
        <time>2015-01-06T11:58:48Z</time>
      </trkpt>
      <trkpt lat="46.122309677302837" lon="8.667147802188993">
        <ele>1793.48</ele>
        <time>2015-01-06T11:59:15Z</time>
      </trkpt>
      <trkpt lat="46.122309593483806" lon="8.667149897664785">
        <ele>1793</ele>
        <time>2015-01-06T11:59:52Z</time>
      </trkpt>
      <trkpt lat="46.122310264036059" lon="8.667166912928224">
        <ele>1793.48</ele>
        <time>2015-01-06T12:00:26Z</time>
      </trkpt>
      <trkpt lat="46.122315376996994" lon="8.667164482176304">
        <ele>1793.48</ele>
        <time>2015-01-06T12:00:50Z</time>
      </trkpt>
      <trkpt lat="46.122296433895826" lon="8.66715794429183">
        <ele>1793.48</ele>
        <time>2015-01-06T12:01:16Z</time>
      </trkpt>
      <trkpt lat="46.122317472472787" lon="8.667168505489826">
        <ele>1793.48</ele>
        <time>2015-01-06T12:01:43Z</time>
      </trkpt>
      <trkpt lat="46.122319651767612" lon="8.667174037545919">
        <ele>1793.48</ele>
        <time>2015-01-06T12:02:11Z</time>
      </trkpt>
      <trkpt lat="46.122302552685142" lon="8.667172528803349">
        <ele>1793</ele>
        <time>2015-01-06T12:02:52Z</time>
      </trkpt>
      <trkpt lat="46.122311437502503" lon="8.667180575430393">
        <ele>1793.48</ele>
        <time>2015-01-06T12:03:29Z</time>
      </trkpt>
      <trkpt lat="46.12231663428247" lon="8.667196836322546">
        <ele>1793.48</ele>
        <time>2015-01-06T12:03:52Z</time>
      </trkpt>
      <trkpt lat="46.122315125539899" lon="8.66718920879066">
        <ele>1793</ele>
        <time>2015-01-06T12:04:23Z</time>
      </trkpt>
      <trkpt lat="46.122316969558597" lon="8.667172528803349">
        <ele>1793</ele>
        <time>2015-01-06T12:04:47Z</time>
      </trkpt>
      <trkpt lat="46.12232007086277" lon="8.667178899049759">
        <ele>1793.48</ele>
        <time>2015-01-06T12:05:16Z</time>
      </trkpt>
      <trkpt lat="46.122314874082804" lon="8.667196584865451">
        <ele>1793</ele>
        <time>2015-01-06T12:05:45Z</time>
      </trkpt>
      <trkpt lat="46.122318897396326" lon="8.667168589308858">
        <ele>1793</ele>
        <time>2015-01-06T12:06:21Z</time>
      </trkpt>
      <trkpt lat="46.122315628454089" lon="8.667178228497505">
        <ele>1793.48</ele>
        <time>2015-01-06T12:06:50Z</time>
      </trkpt>
      <trkpt lat="46.122312946245074" lon="8.667166912928224">
        <ele>1793.48</ele>
        <time>2015-01-06T12:07:15Z</time>
      </trkpt>
      <trkpt lat="46.122309593483806" lon="8.667172780260444">
        <ele>1793.48</ele>
        <time>2015-01-06T12:07:44Z</time>
      </trkpt>
      <trkpt lat="46.122300960123539" lon="8.667167332023382">
        <ele>1793.48</ele>
        <time>2015-01-06T12:08:12Z</time>
      </trkpt>
      <trkpt lat="46.122309425845742" lon="8.667168589308858">
        <ele>1793.48</ele>
        <time>2015-01-06T12:08:45Z</time>
      </trkpt>
      <trkpt lat="46.122295511886477" lon="8.667181916534901">
        <ele>1793.48</ele>
        <time>2015-01-06T12:09:13Z</time>
      </trkpt>
      <trkpt lat="46.122300624847412" lon="8.667167164385319">
        <ele>1793.96</ele>
        <time>2015-01-06T12:09:33Z</time>
      </trkpt>
      <trkpt lat="46.122309342026711" lon="8.667163224890828">
        <ele>1793.96</ele>
        <time>2015-01-06T12:09:51Z</time>
      </trkpt>
      <trkpt lat="46.122315125539899" lon="8.667168002575636">
        <ele>1793.48</ele>
        <time>2015-01-06T12:10:16Z</time>
      </trkpt>
      <trkpt lat="46.122312191873789" lon="8.667167834937573">
        <ele>1793.48</ele>
        <time>2015-01-06T12:10:59Z</time>
      </trkpt>
      <trkpt lat="46.122315963730216" lon="8.667174372822046">
        <ele>1793.48</ele>
        <time>2015-01-06T12:11:32Z</time>
      </trkpt>
      <trkpt lat="46.122323172166944" lon="8.667173450812697">
        <ele>1793.96</ele>
        <time>2015-01-06T12:12:09Z</time>
      </trkpt>
      <trkpt lat="46.122327782213688" lon="8.667162219062448">
        <ele>1793.96</ele>
        <time>2015-01-06T12:12:36Z</time>
      </trkpt>
      <trkpt lat="46.122317472472787" lon="8.667157189920545">
        <ele>1793.48</ele>
        <time>2015-01-06T12:13:10Z</time>
      </trkpt>
      <trkpt lat="46.122303977608681" lon="8.667150316759944">
        <ele>1793.48</ele>
        <time>2015-01-06T12:13:49Z</time>
      </trkpt>
      <trkpt lat="46.122307078912854" lon="8.66715450771153">
        <ele>1793.48</ele>
        <time>2015-01-06T12:14:21Z</time>
      </trkpt>
      <trkpt lat="46.122310431674123" lon="8.667150316759944">
        <ele>1793.48</ele>
        <time>2015-01-06T12:14:53Z</time>
      </trkpt>
      <trkpt lat="46.122316466644406" lon="8.667159536853433">
        <ele>1793.48</ele>
        <time>2015-01-06T12:15:33Z</time>
      </trkpt>
      <trkpt lat="46.122312108054757" lon="8.667160794138908">
        <ele>1793.96</ele>
        <time>2015-01-06T12:16:04Z</time>
      </trkpt>
      <trkpt lat="46.122316215187311" lon="8.667162721976638">
        <ele>1793.48</ele>
        <time>2015-01-06T12:16:47Z</time>
      </trkpt>
      <trkpt lat="46.122321328148246" lon="8.667159620672464">
        <ele>1793.48</ele>
        <time>2015-01-06T12:17:31Z</time>
      </trkpt>
      <trkpt lat="46.122334152460098" lon="8.66716381162405">
        <ele>1793.48</ele>
        <time>2015-01-06T12:18:10Z</time>
      </trkpt>
      <trkpt lat="46.122330129146576" lon="8.667162721976638">
        <ele>1793.48</ele>
        <time>2015-01-06T12:18:45Z</time>
      </trkpt>
      <trkpt lat="46.122320909053087" lon="8.667161045596004">
        <ele>1793</ele>
        <time>2015-01-06T12:19:17Z</time>
      </trkpt>
      <trkpt lat="46.122324680909514" lon="8.667159704491496">
        <ele>1793</ele>
        <time>2015-01-06T12:19:48Z</time>
      </trkpt>
      <trkpt lat="46.122333481907845" lon="8.667160458862782">
        <ele>1793.48</ele>
        <time>2015-01-06T12:20:26Z</time>
      </trkpt>
      <trkpt lat="46.122330548241735" lon="8.667164901271462">
        <ele>1793</ele>
        <time>2015-01-06T12:21:00Z</time>
      </trkpt>
      <trkpt lat="46.122343204915524" lon="8.667158363386989">
        <ele>1793</ele>
        <time>2015-01-06T12:21:39Z</time>
      </trkpt>
      <trkpt lat="46.122330883517861" lon="8.667166410014033">
        <ele>1793.48</ele>
        <time>2015-01-06T12:22:16Z</time>
      </trkpt>
      <trkpt lat="46.122332643717527" lon="8.667179653421044">
        <ele>1793.96</ele>
        <time>2015-01-06T12:22:46Z</time>
      </trkpt>
      <trkpt lat="46.1223254352808" lon="8.667164398357272">
        <ele>1793.48</ele>
        <time>2015-01-06T12:23:16Z</time>
      </trkpt>
      <trkpt lat="46.122319735586643" lon="8.667150316759944">
        <ele>1793.48</ele>
        <time>2015-01-06T12:23:49Z</time>
      </trkpt>
      <trkpt lat="46.122310515493155" lon="8.667133888229728">
        <ele>1793.48</ele>
        <time>2015-01-06T12:24:17Z</time>
      </trkpt>
      <trkpt lat="46.122313113883138" lon="8.667139336466789">
        <ele>1793.48</ele>
        <time>2015-01-06T12:24:47Z</time>
      </trkpt>
      <trkpt lat="46.122319232672453" lon="8.667161464691162">
        <ele>1793.48</ele>
        <time>2015-01-06T12:25:19Z</time>
      </trkpt>
      <trkpt lat="46.122330045327544" lon="8.667189292609692">
        <ele>1793.48</ele>
        <time>2015-01-06T12:25:50Z</time>
      </trkpt>
      <trkpt lat="46.122311605140567" lon="8.667149227112532">
        <ele>1793.48</ele>
        <time>2015-01-06T12:26:18Z</time>
      </trkpt>
      <trkpt lat="46.122320238500834" lon="8.66714277304709">
        <ele>1793.48</ele>
        <time>2015-01-06T12:26:57Z</time>
      </trkpt>
      <trkpt lat="46.122306659817696" lon="8.667111592367292">
        <ele>1793.48</ele>
        <time>2015-01-06T12:27:31Z</time>
      </trkpt>
      <trkpt lat="46.122299702838063" lon="8.667110502719879">
        <ele>1793.48</ele>
        <time>2015-01-06T12:28:01Z</time>
      </trkpt>
      <trkpt lat="46.122307498008013" lon="8.667126679793">
        <ele>1793.48</ele>
        <time>2015-01-06T12:28:30Z</time>
      </trkpt>
      <trkpt lat="46.122312778607011" lon="8.667117040604353">
        <ele>1793.48</ele>
        <time>2015-01-06T12:29:04Z</time>
      </trkpt>
      <trkpt lat="46.122313868254423" lon="8.667114777490497">
        <ele>1793.48</ele>
        <time>2015-01-06T12:29:40Z</time>
      </trkpt>
      <trkpt lat="46.122308420017362" lon="8.667114023119211">
        <ele>1793.48</ele>
        <time>2015-01-06T12:30:16Z</time>
      </trkpt>
      <trkpt lat="46.122339097782969" lon="8.667192561551929">
        <ele>1793.48</ele>
        <time>2015-01-06T12:30:50Z</time>
      </trkpt>
      <trkpt lat="46.122360723093152" lon="8.667199434712529">
        <ele>1793.96</ele>
        <time>2015-01-06T12:31:28Z</time>
      </trkpt>
      <trkpt lat="46.122361142188311" lon="8.667203793302178">
        <ele>1793.48</ele>
        <time>2015-01-06T12:32:01Z</time>
      </trkpt>
      <trkpt lat="46.122336247935891" lon="8.667181748896837">
        <ele>1793.48</ele>
        <time>2015-01-06T12:32:32Z</time>
      </trkpt>
      <trkpt lat="46.122332559898496" lon="8.667157692834735">
        <ele>1793.48</ele>
        <time>2015-01-06T12:33:10Z</time>
      </trkpt>
      <trkpt lat="46.12232250161469" lon="8.667134139686823">
        <ele>1793.48</ele>
        <time>2015-01-06T12:33:36Z</time>
      </trkpt>
      <trkpt lat="46.122325770556927" lon="8.66713397204876">
        <ele>1793.48</ele>
        <time>2015-01-06T12:34:09Z</time>
      </trkpt>
      <trkpt lat="46.122332140803337" lon="8.667146796360612">
        <ele>1793.48</ele>
        <time>2015-01-06T12:34:40Z</time>
      </trkpt>
      <trkpt lat="46.122329793870449" lon="8.667141934856772">
        <ele>1793.96</ele>
        <time>2015-01-06T12:35:07Z</time>
      </trkpt>
      <trkpt lat="46.122347228229046" lon="8.667193315923214">
        <ele>1793.96</ele>
        <time>2015-01-06T12:35:40Z</time>
      </trkpt>
      <trkpt lat="46.122334823012352" lon="8.667188119143248">
        <ele>1793.48</ele>
        <time>2015-01-06T12:36:11Z</time>
      </trkpt>
      <trkpt lat="46.122354688122869" lon="8.667189292609692">
        <ele>1793.48</ele>
        <time>2015-01-06T12:36:38Z</time>
      </trkpt>
      <trkpt lat="46.122353430837393" lon="8.667194657027721">
        <ele>1793.48</ele>
        <time>2015-01-06T12:37:01Z</time>
      </trkpt>
      <trkpt lat="46.12231370061636" lon="8.66721510887146">
        <ele>1793.48</ele>
        <time>2015-01-06T12:37:28Z</time>
      </trkpt>
      <trkpt lat="46.12229467369616" lon="8.667206978425384">
        <ele>1793.48</ele>
        <time>2015-01-06T12:38:12Z</time>
      </trkpt>
      <trkpt lat="46.122323842719197" lon="8.667201027274132">
        <ele>1793.48</ele>
        <time>2015-01-06T12:38:50Z</time>
      </trkpt>
      <trkpt lat="46.122330296784639" lon="8.667180994525552">
        <ele>1793.48</ele>
        <time>2015-01-06T12:39:35Z</time>
      </trkpt>
      <trkpt lat="46.122328536584973" lon="8.667188202962279">
        <ele>1793.48</ele>
        <time>2015-01-06T12:40:19Z</time>
      </trkpt>
      <trkpt lat="46.122327530756593" lon="8.667180743068457">
        <ele>1793.48</ele>
        <time>2015-01-06T12:40:58Z</time>
      </trkpt>
      <trkpt lat="46.12233079969883" lon="8.667199518531561">
        <ele>1793</ele>
        <time>2015-01-06T12:41:44Z</time>
      </trkpt>
      <trkpt lat="46.12232493236661" lon="8.667176384478807">
        <ele>1793.96</ele>
        <time>2015-01-06T12:42:18Z</time>
      </trkpt>
      <trkpt lat="46.122306492179632" lon="8.667142689228058">
        <ele>1793.96</ele>
        <time>2015-01-06T12:42:33Z</time>
      </trkpt>
      <trkpt lat="46.122305737808347" lon="8.667150149121881">
        <ele>1793.96</ele>
        <time>2015-01-06T12:42:59Z</time>
      </trkpt>
      <trkpt lat="46.122317556291819" lon="8.667122153565288">
        <ele>1793.48</ele>
        <time>2015-01-06T12:43:16Z</time>
      </trkpt>
      <trkpt lat="46.122318310663104" lon="8.667123913764954">
        <ele>1793.96</ele>
        <time>2015-01-06T12:43:33Z</time>
      </trkpt>
      <trkpt lat="46.122319819405675" lon="8.667121483013034">
        <ele>1793.96</ele>
        <time>2015-01-06T12:43:49Z</time>
      </trkpt>
      <trkpt lat="46.122313113883138" lon="8.667121985927224">
        <ele>1793.96</ele>
        <time>2015-01-06T12:44:07Z</time>
      </trkpt>
      <trkpt lat="46.122306324541569" lon="8.667119219899178">
        <ele>1793.48</ele>
        <time>2015-01-06T12:44:25Z</time>
      </trkpt>
      <trkpt lat="46.122315293177962" lon="8.6671232432127">
        <ele>1793.96</ele>
        <time>2015-01-06T12:44:45Z</time>
      </trkpt>
      <trkpt lat="46.122320154681802" lon="8.667128859087825">
        <ele>1794.4400000000001</ele>
        <time>2015-01-06T12:45:00Z</time>
      </trkpt>
      <trkpt lat="46.122317472472787" lon="8.667137240990996">
        <ele>1793.48</ele>
        <time>2015-01-06T12:45:15Z</time>
      </trkpt>
      <trkpt lat="46.122313449159265" lon="8.667143611237407">
        <ele>1793.48</ele>
        <time>2015-01-06T12:45:32Z</time>
      </trkpt>
      <trkpt lat="46.122313113883138" lon="8.66714964620769">
        <ele>1793.48</ele>
        <time>2015-01-06T12:45:49Z</time>
      </trkpt>
      <trkpt lat="46.122315041720867" lon="8.667162051424384">
        <ele>1793</ele>
        <time>2015-01-06T12:46:08Z</time>
      </trkpt>
      <trkpt lat="46.122290398925543" lon="8.667168589308858">
        <ele>1793</ele>
        <time>2015-01-06T12:46:26Z</time>
      </trkpt>
      <trkpt lat="46.122321160510182" lon="8.667205888777971">
        <ele>1793</ele>
        <time>2015-01-06T12:46:42Z</time>
      </trkpt>
      <trkpt lat="46.122325854375958" lon="8.667204799130559">
        <ele>1792.52</ele>
        <time>2015-01-06T12:46:59Z</time>
      </trkpt>
      <trkpt lat="46.12231177277863" lon="8.667206894606352">
        <ele>1793.48</ele>
        <time>2015-01-06T12:47:18Z</time>
      </trkpt>
      <trkpt lat="46.122296685352921" lon="8.667208319529891">
        <ele>1793</ele>
        <time>2015-01-06T12:47:35Z</time>
      </trkpt>
      <trkpt lat="46.122304145246744" lon="8.667150735855103">
        <ele>1793.48</ele>
        <time>2015-01-06T12:47:45Z</time>
      </trkpt>
      <trkpt lat="46.122310850769281" lon="8.667184012010694">
        <ele>1793.48</ele>
        <time>2015-01-06T12:47:58Z</time>
      </trkpt>
      <trkpt lat="46.122316466644406" lon="8.667204715311527">
        <ele>1793</ele>
        <time>2015-01-06T12:48:15Z</time>
      </trkpt>
      <trkpt lat="46.122308168560266" lon="8.667187783867121">
        <ele>1793</ele>
        <time>2015-01-06T12:48:37Z</time>
      </trkpt>
      <trkpt lat="46.122316718101501" lon="8.66716330870986">
        <ele>1793.48</ele>
        <time>2015-01-06T12:49:09Z</time>
      </trkpt>
      <trkpt lat="46.122309006750584" lon="8.667176552116871">
        <ele>1793.48</ele>
        <time>2015-01-06T12:49:26Z</time>
      </trkpt>
      <trkpt lat="46.122298948466778" lon="8.667166661471129">
        <ele>1793.48</ele>
        <time>2015-01-06T12:49:42Z</time>
      </trkpt>
      <trkpt lat="46.122295176610351" lon="8.667176468297839">
        <ele>1793.48</ele>
        <time>2015-01-06T12:49:58Z</time>
      </trkpt>
      <trkpt lat="46.122285705059767" lon="8.667188370600343">
        <ele>1793</ele>
        <time>2015-01-06T12:50:08Z</time>
      </trkpt>
      <trkpt lat="46.122277742251754" lon="8.667157106101513">
        <ele>1793.48</ele>
        <time>2015-01-06T12:50:26Z</time>
      </trkpt>
      <trkpt lat="46.122261481359601" lon="8.667134558781982">
        <ele>1793.48</ele>
        <time>2015-01-06T12:50:39Z</time>
      </trkpt>
      <trkpt lat="46.122240694239736" lon="8.667174037545919">
        <ele>1793.48</ele>
        <time>2015-01-06T12:50:54Z</time>
      </trkpt>
      <trkpt lat="46.122244969010353" lon="8.667183006182313">
        <ele>1793.48</ele>
        <time>2015-01-06T12:51:14Z</time>
      </trkpt>
      <trkpt lat="46.122233653441072" lon="8.66715744137764">
        <ele>1793.48</ele>
        <time>2015-01-06T12:51:27Z</time>
      </trkpt>
      <trkpt lat="46.122248489409685" lon="8.667175462469459">
        <ele>1793.48</ele>
        <time>2015-01-06T12:51:46Z</time>
      </trkpt>
      <trkpt lat="46.122241448611021" lon="8.66714620962739">
        <ele>1793</ele>
        <time>2015-01-06T12:52:04Z</time>
      </trkpt>
      <trkpt lat="46.122265169396996" lon="8.667128859087825">
        <ele>1793.48</ele>
        <time>2015-01-06T12:52:17Z</time>
      </trkpt>
      <trkpt lat="46.122288219630718" lon="8.667117292061448">
        <ele>1793</ele>
        <time>2015-01-06T12:52:33Z</time>
      </trkpt>
      <trkpt lat="46.12228193320334" lon="8.667143862694502">
        <ele>1793</ele>
        <time>2015-01-06T12:52:54Z</time>
      </trkpt>
      <trkpt lat="46.122258882969618" lon="8.667174875736237">
        <ele>1792.52</ele>
        <time>2015-01-06T12:53:16Z</time>
      </trkpt>
      <trkpt lat="46.122272126376629" lon="8.667134139686823">
        <ele>1793</ele>
        <time>2015-01-06T12:53:30Z</time>
      </trkpt>
      <trkpt lat="46.122296266257763" lon="8.667131625115871">
        <ele>1793</ele>
        <time>2015-01-06T12:53:46Z</time>
      </trkpt>
      <trkpt lat="46.122293835505843" lon="8.667113184928894">
        <ele>1793</ele>
        <time>2015-01-06T12:54:05Z</time>
      </trkpt>
      <trkpt lat="46.122295930981636" lon="8.667105557397008">
        <ele>1793.48</ele>
        <time>2015-01-06T12:54:27Z</time>
      </trkpt>
      <trkpt lat="46.122275982052088" lon="8.667107401415706">
        <ele>1793.48</ele>
        <time>2015-01-06T12:54:46Z</time>
      </trkpt>
      <trkpt lat="46.122272629290819" lon="8.667106311768293">
        <ele>1793.48</ele>
        <time>2015-01-06T12:55:09Z</time>
      </trkpt>
      <trkpt lat="46.122279837727547" lon="8.667112682014704">
        <ele>1793.48</ele>
        <time>2015-01-06T12:55:35Z</time>
      </trkpt>
      <trkpt lat="46.122289225459099" lon="8.667087955400348">
        <ele>1793.48</ele>
        <time>2015-01-06T12:55:53Z</time>
      </trkpt>
      <trkpt lat="46.122288471087813" lon="8.667093990370631">
        <ele>1793.48</ele>
        <time>2015-01-06T12:55:55Z</time>
      </trkpt>
      <trkpt lat="46.122293416410685" lon="8.667127350345254">
        <ele>1793.48</ele>
        <time>2015-01-06T12:56:08Z</time>
      </trkpt>
      <trkpt lat="46.122287046164274" lon="8.667130451649427">
        <ele>1793.96</ele>
        <time>2015-01-06T12:56:23Z</time>
      </trkpt>
      <trkpt lat="46.122289393097162" lon="8.667152496054769">
        <ele>1793.48</ele>
        <time>2015-01-06T12:56:41Z</time>
      </trkpt>
      <trkpt lat="46.122286291792989" lon="8.667154088616371">
        <ele>1793.48</ele>
        <time>2015-01-06T12:56:57Z</time>
      </trkpt>
      <trkpt lat="46.122282687574625" lon="8.667130284011364">
        <ele>1793.48</ele>
        <time>2015-01-06T12:57:10Z</time>
      </trkpt>
      <trkpt lat="46.122287381440401" lon="8.667121650651097">
        <ele>1793.48</ele>
        <time>2015-01-06T12:57:33Z</time>
      </trkpt>
      <trkpt lat="46.122283525764942" lon="8.667112765833736">
        <ele>1793.48</ele>
        <time>2015-01-06T12:57:45Z</time>
      </trkpt>
      <trkpt lat="46.122285956516862" lon="8.667124081403017">
        <ele>1793.48</ele>
        <time>2015-01-06T12:58:10Z</time>
      </trkpt>
      <trkpt lat="46.122280256822705" lon="8.667134307324886">
        <ele>1793</ele>
        <time>2015-01-06T12:58:22Z</time>
      </trkpt>
      <trkpt lat="46.122273467481136" lon="8.667131373658776">
        <ele>1793</ele>
        <time>2015-01-06T12:58:41Z</time>
      </trkpt>
      <trkpt lat="46.122251758351922" lon="8.66712131537497">
        <ele>1793</ele>
        <time>2015-01-06T12:58:53Z</time>
      </trkpt>
      <trkpt lat="46.122234491631389" lon="8.667116621509194">
        <ele>1793.48</ele>
        <time>2015-01-06T12:59:05Z</time>
      </trkpt>
      <trkpt lat="46.122242286801338" lon="8.667101450264454">
        <ele>1793.48</ele>
        <time>2015-01-06T12:59:20Z</time>
      </trkpt>
      <trkpt lat="46.12224337644875" lon="8.667112262919545">
        <ele>1793.48</ele>
        <time>2015-01-06T12:59:35Z</time>
      </trkpt>
      <trkpt lat="46.122247567400336" lon="8.667108323425055">
        <ele>1793.48</ele>
        <time>2015-01-06T12:59:50Z</time>
      </trkpt>
      <trkpt lat="46.122247064486146" lon="8.667099354788661">
        <ele>1793</ele>
        <time>2015-01-06T13:00:06Z</time>
      </trkpt>
      <trkpt lat="46.122305653989315" lon="8.667153501883149">
        <ele>1792.03</ele>
        <time>2015-01-06T13:00:20Z</time>
      </trkpt>
      <trkpt lat="46.122294338420033" lon="8.66720337420702">
        <ele>1791.0699999999999</ele>
        <time>2015-01-06T13:00:24Z</time>
      </trkpt>
      <trkpt lat="46.122214877977967" lon="8.66726590320468">
        <ele>1788.1900000000001</ele>
        <time>2015-01-06T13:00:35Z</time>
      </trkpt>
      <trkpt lat="46.122158635407686" lon="8.667333964258432">
        <ele>1785.79</ele>
        <time>2015-01-06T13:00:48Z</time>
      </trkpt>
      <trkpt lat="46.122180176898837" lon="8.667393140494824">
        <ele>1783.3800000000001</ele>
        <time>2015-01-06T13:00:58Z</time>
      </trkpt>
      <trkpt lat="46.122183864936233" lon="8.667432451620698">
        <ele>1781.46</ele>
        <time>2015-01-06T13:01:08Z</time>
      </trkpt>
      <trkpt lat="46.122193085029721" lon="8.667441587895155">
        <ele>1780.5</ele>
        <time>2015-01-06T13:01:11Z</time>
      </trkpt>
      <trkpt lat="46.122214375063777" lon="8.667492801323533">
        <ele>1779.0599999999999</ele>
        <time>2015-01-06T13:01:19Z</time>
      </trkpt>
      <trkpt lat="46.122287381440401" lon="8.667634623125196">
        <ele>1775.21</ele>
        <time>2015-01-06T13:01:31Z</time>
      </trkpt>
      <trkpt lat="46.122305570170283" lon="8.667657673358917">
        <ele>1774.25</ele>
        <time>2015-01-06T13:01:34Z</time>
      </trkpt>
      <trkpt lat="46.122338511049747" lon="8.667681226506829">
        <ele>1773.29</ele>
        <time>2015-01-06T13:01:38Z</time>
      </trkpt>
      <trkpt lat="46.122434567660093" lon="8.667757334187627">
        <ele>1769.9200000000001</ele>
        <time>2015-01-06T13:01:51Z</time>
      </trkpt>
      <trkpt lat="46.122421240434051" lon="8.667781222611666">
        <ele>1769.4400000000001</ele>
        <time>2015-01-06T13:02:01Z</time>
      </trkpt>
      <trkpt lat="46.122455522418022" lon="8.667825311422348">
        <ele>1767.52</ele>
        <time>2015-01-06T13:02:14Z</time>
      </trkpt>
      <trkpt lat="46.122468682006001" lon="8.66783956065774">
        <ele>1767.52</ele>
        <time>2015-01-06T13:02:19Z</time>
      </trkpt>
      <trkpt lat="46.122522410005331" lon="8.667914662510157">
        <ele>1764.1600000000001</ele>
        <time>2015-01-06T13:02:28Z</time>
      </trkpt>
      <trkpt lat="46.12255753017962" lon="8.66797685623169">
        <ele>1761.27</ele>
        <time>2015-01-06T13:02:37Z</time>
      </trkpt>
      <trkpt lat="46.122560044750571" lon="8.668006528168917">
        <ele>1759.8299999999999</ele>
        <time>2015-01-06T13:02:43Z</time>
      </trkpt>
      <trkpt lat="46.122583765536547" lon="8.668068470433354">
        <ele>1757.9100000000001</ele>
        <time>2015-01-06T13:02:49Z</time>
      </trkpt>
      <trkpt lat="46.122607989236712" lon="8.668063608929515">
        <ele>1757.4300000000001</ele>
        <time>2015-01-06T13:02:51Z</time>
      </trkpt>
      <trkpt lat="46.122685689479113" lon="8.66802086122334">
        <ele>1754.54</ele>
        <time>2015-01-06T13:03:00Z</time>
      </trkpt>
      <trkpt lat="46.122687282040715" lon="8.66807316429913">
        <ele>1753.0999999999999</ele>
        <time>2015-01-06T13:03:05Z</time>
      </trkpt>
      <trkpt lat="46.122739752754569" lon="8.668013317510486">
        <ele>1751.1800000000001</ele>
        <time>2015-01-06T13:03:12Z</time>
      </trkpt>
      <trkpt lat="46.122768670320511" lon="8.667997643351555">
        <ele>1749.74</ele>
        <time>2015-01-06T13:03:15Z</time>
      </trkpt>
      <trkpt lat="46.122797168791294" lon="8.668006528168917">
        <ele>1747.8099999999999</ele>
        <time>2015-01-06T13:03:21Z</time>
      </trkpt>
      <trkpt lat="46.12282088957727" lon="8.667972665280104">
        <ele>1747.3299999999999</ele>
        <time>2015-01-06T13:03:24Z</time>
      </trkpt>
      <trkpt lat="46.122913509607315" lon="8.667980041354895">
        <ele>1743.97</ele>
        <time>2015-01-06T13:03:33Z</time>
      </trkpt>
      <trkpt lat="46.122945193201303" lon="8.667987668886781">
        <ele>1743.01</ele>
        <time>2015-01-06T13:03:38Z</time>
      </trkpt>
      <trkpt lat="46.122986013069749" lon="8.667949782684445">
        <ele>1741.5699999999999</ele>
        <time>2015-01-06T13:03:43Z</time>
      </trkpt>
      <trkpt lat="46.123081231489778" lon="8.66791432723403">
        <ele>1737.72</ele>
        <time>2015-01-06T13:03:51Z</time>
      </trkpt>
      <trkpt lat="46.123092127963901" lon="8.667908878996968">
        <ele>1737.72</ele>
        <time>2015-01-06T13:03:52Z</time>
      </trkpt>
      <trkpt lat="46.123087350279093" lon="8.667985489591956">
        <ele>1737.24</ele>
        <time>2015-01-06T13:03:58Z</time>
      </trkpt>
      <trkpt lat="46.123078214004636" lon="8.668021615594626">
        <ele>1736.28</ele>
        <time>2015-01-06T13:04:13Z</time>
      </trkpt>
      <trkpt lat="46.123032951727509" lon="8.668165029957891">
        <ele>1736.28</ele>
        <time>2015-01-06T13:04:27Z</time>
      </trkpt>
      <trkpt lat="46.122908564284444" lon="8.668299224227667">
        <ele>1736.28</ele>
        <time>2015-01-06T13:04:42Z</time>
      </trkpt>
      <trkpt lat="46.122825751081109" lon="8.668357646092773">
        <ele>1735.8</ele>
        <time>2015-01-06T13:04:53Z</time>
      </trkpt>
      <trkpt lat="46.122744027525187" lon="8.668451774865389">
        <ele>1736.76</ele>
        <time>2015-01-06T13:05:06Z</time>
      </trkpt>
      <trkpt lat="46.122727012261748" lon="8.668469460681081">
        <ele>1737.24</ele>
        <time>2015-01-06T13:05:10Z</time>
      </trkpt>
      <trkpt lat="46.122684013098478" lon="8.668507179245353">
        <ele>1737.72</ele>
        <time>2015-01-06T13:05:16Z</time>
      </trkpt>
      <trkpt lat="46.122594745829701" lon="8.668493097648025">
        <ele>1738.2</ele>
        <time>2015-01-06T13:05:26Z</time>
      </trkpt>
      <trkpt lat="46.122533725574613" lon="8.668450685217977">
        <ele>1737.72</ele>
        <time>2015-01-06T13:05:32Z</time>
      </trkpt>
      <trkpt lat="46.122492989525199" lon="8.668406764045358">
        <ele>1737.24</ele>
        <time>2015-01-06T13:05:37Z</time>
      </trkpt>
      <trkpt lat="46.122474884614348" lon="8.668384803459048">
        <ele>1736.76</ele>
        <time>2015-01-06T13:05:39Z</time>
      </trkpt>
      <trkpt lat="46.122421659529209" lon="8.668373739346862">
        <ele>1736.76</ele>
        <time>2015-01-06T13:05:45Z</time>
      </trkpt>
      <trkpt lat="46.122393244877458" lon="8.668367369100452">
        <ele>1735.8</ele>
        <time>2015-01-06T13:05:49Z</time>
      </trkpt>
      <trkpt lat="46.122353347018361" lon="8.668357310816646">
        <ele>1734.3599999999999</ele>
        <time>2015-01-06T13:05:55Z</time>
      </trkpt>
      <trkpt lat="46.122328117489815" lon="8.66831892170012">
        <ele>1734.8399999999999</ele>
        <time>2015-01-06T13:06:00Z</time>
      </trkpt>
      <trkpt lat="46.122308503836393" lon="8.668309114873409">
        <ele>1734.3599999999999</ele>
        <time>2015-01-06T13:06:02Z</time>
      </trkpt>
      <trkpt lat="46.122197108343244" lon="8.66832478903234">
        <ele>1730.99</ele>
        <time>2015-01-06T13:06:13Z</time>
      </trkpt>
      <trkpt lat="46.122095603495836" lon="8.66833845153451">
        <ele>1730.03</ele>
        <time>2015-01-06T13:06:27Z</time>
      </trkpt>
      <trkpt lat="46.12209141254425" lon="8.668350353837013">
        <ele>1729.55</ele>
        <time>2015-01-06T13:06:28Z</time>
      </trkpt>
      <trkpt lat="46.121999965980649" lon="8.668438196182251">
        <ele>1727.6300000000001</ele>
        <time>2015-01-06T13:06:42Z</time>
      </trkpt>
      <trkpt lat="46.121933329850435" lon="8.668479435145855">
        <ele>1726.6700000000001</ele>
        <time>2015-01-06T13:06:57Z</time>
      </trkpt>
      <trkpt lat="46.121924193575978" lon="8.668506676331163">
        <ele>1725.7</ele>
        <time>2015-01-06T13:06:59Z</time>
      </trkpt>
      <trkpt lat="46.121830986812711" lon="8.668596865609288">
        <ele>1723.78</ele>
        <time>2015-01-06T13:07:13Z</time>
      </trkpt>
      <trkpt lat="46.121767619624734" lon="8.668664759024978">
        <ele>1720.9000000000001</ele>
        <time>2015-01-06T13:07:23Z</time>
      </trkpt>
      <trkpt lat="46.121737947687507" lon="8.668666603043675">
        <ele>1719.46</ele>
        <time>2015-01-06T13:07:26Z</time>
      </trkpt>
      <trkpt lat="46.121744988486171" lon="8.668677164241672">
        <ele>1718.97</ele>
        <time>2015-01-06T13:07:32Z</time>
      </trkpt>
      <trkpt lat="46.12174884416163" lon="8.668759055435658">
        <ele>1715.1300000000001</ele>
        <time>2015-01-06T13:07:40Z</time>
      </trkpt>
      <trkpt lat="46.12174398265779" lon="8.668768610805273">
        <ele>1715.1300000000001</ele>
        <time>2015-01-06T13:07:41Z</time>
      </trkpt>
      <trkpt lat="46.121757309883833" lon="8.668829295784235">
        <ele>1712.25</ele>
        <time>2015-01-06T13:07:47Z</time>
      </trkpt>
      <trkpt lat="46.121730990707874" lon="8.668863158673048">
        <ele>1709.8399999999999</ele>
        <time>2015-01-06T13:07:55Z</time>
      </trkpt>
      <trkpt lat="46.121758483350277" lon="8.668973296880722">
        <ele>1707.4400000000001</ele>
        <time>2015-01-06T13:08:06Z</time>
      </trkpt>
      <trkpt lat="46.12180701456964" lon="8.669063737615943">
        <ele>1704.55</ele>
        <time>2015-01-06T13:08:20Z</time>
      </trkpt>
      <trkpt lat="46.121749179437757" lon="8.669122997671366">
        <ele>1701.6700000000001</ele>
        <time>2015-01-06T13:08:31Z</time>
      </trkpt>
      <trkpt lat="46.121740378439426" lon="8.669180497527123">
        <ele>1698.79</ele>
        <time>2015-01-06T13:08:42Z</time>
      </trkpt>
      <trkpt lat="46.121706599369645" lon="8.669223329052329">
        <ele>1695.9000000000001</ele>
        <time>2015-01-06T13:08:56Z</time>
      </trkpt>
      <trkpt lat="46.121691176667809" lon="8.669256269931793">
        <ele>1693.98</ele>
        <time>2015-01-06T13:09:02Z</time>
      </trkpt>
      <trkpt lat="46.121675670146942" lon="8.669323408976197">
        <ele>1691.0999999999999</ele>
        <time>2015-01-06T13:09:14Z</time>
      </trkpt>
      <trkpt lat="46.121700061485171" lon="8.669384429231286">
        <ele>1688.21</ele>
        <time>2015-01-06T13:09:25Z</time>
      </trkpt>
      <trkpt lat="46.121698217466474" lon="8.669451735913754">
        <ele>1685.8099999999999</ele>
        <time>2015-01-06T13:09:37Z</time>
      </trkpt>
      <trkpt lat="46.121712550520897" lon="8.669461207464337">
        <ele>1684.8499999999999</ele>
        <time>2015-01-06T13:09:40Z</time>
      </trkpt>
      <trkpt lat="46.12167701125145" lon="8.669513761997223">
        <ele>1683.4100000000001</ele>
        <time>2015-01-06T13:09:48Z</time>
      </trkpt>
      <trkpt lat="46.121620936319232" lon="8.669559191912413">
        <ele>1680.04</ele>
        <time>2015-01-06T13:09:59Z</time>
      </trkpt>
      <trkpt lat="46.121618254110217" lon="8.669581823050976">
        <ele>1679.0799999999999</ele>
        <time>2015-01-06T13:10:09Z</time>
      </trkpt>
      <trkpt lat="46.12162571400404" lon="8.669620798900724">
        <ele>1677.1600000000001</ele>
        <time>2015-01-06T13:10:18Z</time>
      </trkpt>
      <trkpt lat="46.121612805873156" lon="8.669633958488703">
        <ele>1676.2</ele>
        <time>2015-01-06T13:10:20Z</time>
      </trkpt>
      <trkpt lat="46.121560335159302" lon="8.669682238250971">
        <ele>1673.79</ele>
        <time>2015-01-06T13:10:31Z</time>
      </trkpt>
      <trkpt lat="46.121560586616397" lon="8.669744515791535">
        <ele>1670.9100000000001</ele>
        <time>2015-01-06T13:10:43Z</time>
      </trkpt>
      <trkpt lat="46.121558826416731" lon="8.669805368408561">
        <ele>1668.02</ele>
        <time>2015-01-06T13:10:54Z</time>
      </trkpt>
      <trkpt lat="46.121536949649453" lon="8.66981852799654">
        <ele>1667.54</ele>
        <time>2015-01-06T13:11:09Z</time>
      </trkpt>
      <trkpt lat="46.121536195278168" lon="8.669824982061982">
        <ele>1667.54</ele>
        <time>2015-01-06T13:11:30Z</time>
      </trkpt>
      <trkpt lat="46.121454806998372" lon="8.669865047559142">
        <ele>1664.1800000000001</ele>
        <time>2015-01-06T13:11:42Z</time>
      </trkpt>
      <trkpt lat="46.121410131454468" lon="8.669845936819911">
        <ele>1662.74</ele>
        <time>2015-01-06T13:11:50Z</time>
      </trkpt>
      <trkpt lat="46.121407281607389" lon="8.66992212831974">
        <ele>1659.8499999999999</ele>
        <time>2015-01-06T13:12:02Z</time>
      </trkpt>
      <trkpt lat="46.121400073170662" lon="8.669996140524745">
        <ele>1657.45</ele>
        <time>2015-01-06T13:12:12Z</time>
      </trkpt>
      <trkpt lat="46.121411975473166" lon="8.67007602006197">
        <ele>1654.5699999999999</ele>
        <time>2015-01-06T13:12:26Z</time>
      </trkpt>
      <trkpt lat="46.12142882309854" lon="8.670167131349444">
        <ele>1651.2</ele>
        <time>2015-01-06T13:12:38Z</time>
      </trkpt>
      <trkpt lat="46.121473917737603" lon="8.670255560427904">
        <ele>1648.3199999999999</ele>
        <time>2015-01-06T13:12:51Z</time>
      </trkpt>
      <trkpt lat="46.121498141437769" lon="8.670303756371141">
        <ele>1646.4000000000001</ele>
        <time>2015-01-06T13:13:02Z</time>
      </trkpt>
      <trkpt lat="46.121410634368658" lon="8.670364189893007">
        <ele>1643.51</ele>
        <time>2015-01-06T13:13:14Z</time>
      </trkpt>
      <trkpt lat="46.12139169126749" lon="8.67037802003324">
        <ele>1642.0699999999999</ele>
        <time>2015-01-06T13:13:24Z</time>
      </trkpt>
      <trkpt lat="46.12142588943243" lon="8.67045127786696">
        <ele>1639.1900000000001</ele>
        <time>2015-01-06T13:13:37Z</time>
      </trkpt>
      <trkpt lat="46.121451538056135" lon="8.670555464923382">
        <ele>1636.3</ele>
        <time>2015-01-06T13:13:51Z</time>
      </trkpt>
      <trkpt lat="46.121450616046786" lon="8.670567534863949">
        <ele>1635.8199999999999</ele>
        <time>2015-01-06T13:13:52Z</time>
      </trkpt>
      <trkpt lat="46.121446844190359" lon="8.670601481571794">
        <ele>1634.3800000000001</ele>
        <time>2015-01-06T13:13:56Z</time>
      </trkpt>
      <trkpt lat="46.121435780078173" lon="8.670648420229554">
        <ele>1632.46</ele>
        <time>2015-01-06T13:14:09Z</time>
      </trkpt>
      <trkpt lat="46.121430164203048" lon="8.670715475454927">
        <ele>1630.05</ele>
        <time>2015-01-06T13:14:19Z</time>
      </trkpt>
      <trkpt lat="46.121445335447788" lon="8.670771550387144">
        <ele>1627.6500000000001</ele>
        <time>2015-01-06T13:14:29Z</time>
      </trkpt>
      <trkpt lat="46.121444748714566" lon="8.670795857906342">
        <ele>1626.21</ele>
        <time>2015-01-06T13:14:39Z</time>
      </trkpt>
      <trkpt lat="46.121438965201378" lon="8.67083097808063">
        <ele>1624.77</ele>
        <time>2015-01-06T13:14:50Z</time>
      </trkpt>
      <trkpt lat="46.121440976858139" lon="8.67083290591836">
        <ele>1624.77</ele>
        <time>2015-01-06T13:15:11Z</time>
      </trkpt>
      <trkpt lat="46.121438127011061" lon="8.670839527621865">
        <ele>1624.77</ele>
        <time>2015-01-06T13:15:27Z</time>
      </trkpt>
      <trkpt lat="46.121415328234434" lon="8.670912785455585">
        <ele>1621.8800000000001</ele>
        <time>2015-01-06T13:15:41Z</time>
      </trkpt>
      <trkpt lat="46.121406694874167" lon="8.670925358310342">
        <ele>1621.8800000000001</ele>
        <time>2015-01-06T13:15:43Z</time>
      </trkpt>
      <trkpt lat="46.12139018252492" lon="8.671003561466932">
        <ele>1619</ele>
        <time>2015-01-06T13:15:51Z</time>
      </trkpt>
      <trkpt lat="46.121386410668492" lon="8.671126356348395">
        <ele>1614.6700000000001</ele>
        <time>2015-01-06T13:16:03Z</time>
      </trkpt>
      <trkpt lat="46.121392529457808" lon="8.671225011348724">
        <ele>1611.79</ele>
        <time>2015-01-06T13:16:12Z</time>
      </trkpt>
      <trkpt lat="46.121384482830763" lon="8.671315116807818">
        <ele>1608.9000000000001</ele>
        <time>2015-01-06T13:16:22Z</time>
      </trkpt>
      <trkpt lat="46.121393283829093" lon="8.671346884220839">
        <ele>1607.46</ele>
        <time>2015-01-06T13:16:25Z</time>
      </trkpt>
      <trkpt lat="46.12139655277133" lon="8.671353673562408">
        <ele>1607.46</ele>
        <time>2015-01-06T13:16:26Z</time>
      </trkpt>
      <trkpt lat="46.121393032371998" lon="8.671452244743705">
        <ele>1603.6199999999999</ele>
        <time>2015-01-06T13:16:36Z</time>
      </trkpt>
      <trkpt lat="46.121397893875837" lon="8.671524077653885">
        <ele>1600.73</ele>
        <time>2015-01-06T13:16:46Z</time>
      </trkpt>
      <trkpt lat="46.121389344334602" lon="8.671558443456888">
        <ele>1598.8099999999999</ele>
        <time>2015-01-06T13:16:51Z</time>
      </trkpt>
      <trkpt lat="46.121390014886856" lon="8.671567412093282">
        <ele>1598.8099999999999</ele>
        <time>2015-01-06T13:16:52Z</time>
      </trkpt>
      <trkpt lat="46.121413568034768" lon="8.671672353520989">
        <ele>1594.96</ele>
        <time>2015-01-06T13:17:03Z</time>
      </trkpt>
      <trkpt lat="46.12141951918602" lon="8.67176572792232">
        <ele>1591.1199999999999</ele>
        <time>2015-01-06T13:17:13Z</time>
      </trkpt>
      <trkpt lat="46.121443575248122" lon="8.671851390972734">
        <ele>1588.24</ele>
        <time>2015-01-06T13:17:25Z</time>
      </trkpt>
      <trkpt lat="46.121446173638105" lon="8.671930097043514">
        <ele>1584.8699999999999</ele>
        <time>2015-01-06T13:17:34Z</time>
      </trkpt>
      <trkpt lat="46.121447430923581" lon="8.671937892213464">
        <ele>1584.3900000000001</ele>
        <time>2015-01-06T13:17:35Z</time>
      </trkpt>
      <trkpt lat="46.121425135061145" lon="8.672030093148351">
        <ele>1581.51</ele>
        <time>2015-01-06T13:17:47Z</time>
      </trkpt>
      <trkpt lat="46.121413400396705" lon="8.672110978513956">
        <ele>1578.6199999999999</ele>
        <time>2015-01-06T13:17:55Z</time>
      </trkpt>
      <trkpt lat="46.121411304920912" lon="8.672216003760696">
        <ele>1575.26</ele>
        <time>2015-01-06T13:18:05Z</time>
      </trkpt>
      <trkpt lat="46.121370065957308" lon="8.672320945188403">
        <ele>1572.3699999999999</ele>
        <time>2015-01-06T13:18:15Z</time>
      </trkpt>
      <trkpt lat="46.121378615498543" lon="8.672439884394407">
        <ele>1569.01</ele>
        <time>2015-01-06T13:18:26Z</time>
      </trkpt>
      <trkpt lat="46.121367299929261" lon="8.672502413392067">
        <ele>1566.6099999999999</ele>
        <time>2015-01-06T13:18:38Z</time>
      </trkpt>
      <trkpt lat="46.121350871399045" lon="8.672508113086224">
        <ele>1566.6099999999999</ele>
        <time>2015-01-06T13:19:01Z</time>
      </trkpt>
      <trkpt lat="46.121341902762651" lon="8.672526134178042">
        <ele>1565.1600000000001</ele>
        <time>2015-01-06T13:19:20Z</time>
      </trkpt>
      <trkpt lat="46.121303597465158" lon="8.672549016773701">
        <ele>1563.24</ele>
        <time>2015-01-06T13:19:34Z</time>
      </trkpt>
      <trkpt lat="46.121288845315576" lon="8.672664938494563">
        <ele>1560.3599999999999</ele>
        <time>2015-01-06T13:19:45Z</time>
      </trkpt>
      <trkpt lat="46.121275518089533" lon="8.672693185508251">
        <ele>1558.9200000000001</ele>
        <time>2015-01-06T13:19:48Z</time>
      </trkpt>
      <trkpt lat="46.121270908042789" lon="8.672833666205406">
        <ele>1555.55</ele>
        <time>2015-01-06T13:20:01Z</time>
      </trkpt>
      <trkpt lat="46.121265962719917" lon="8.672905750572681">
        <ele>1553.6300000000001</ele>
        <time>2015-01-06T13:20:15Z</time>
      </trkpt>
      <trkpt lat="46.121254563331604" lon="8.672942211851478">
        <ele>1552.1900000000001</ele>
        <time>2015-01-06T13:20:32Z</time>
      </trkpt>
      <trkpt lat="46.121228076517582" lon="8.673014044761658">
        <ele>1549.3</ele>
        <time>2015-01-06T13:20:41Z</time>
      </trkpt>
      <trkpt lat="46.121225645765662" lon="8.673020079731941">
        <ele>1548.8199999999999</ele>
        <time>2015-01-06T13:20:42Z</time>
      </trkpt>
      <trkpt lat="46.121174180880189" lon="8.673068778589368">
        <ele>1545.46</ele>
        <time>2015-01-06T13:20:52Z</time>
      </trkpt>
      <trkpt lat="46.121158925816417" lon="8.673159973695874">
        <ele>1542.5699999999999</ele>
        <time>2015-01-06T13:21:00Z</time>
      </trkpt>
      <trkpt lat="46.12115222029388" lon="8.673165254294872">
        <ele>1542.5699999999999</ele>
        <time>2015-01-06T13:21:01Z</time>
      </trkpt>
      <trkpt lat="46.121108131483197" lon="8.673223424702883">
        <ele>1539.21</ele>
        <time>2015-01-06T13:21:11Z</time>
      </trkpt>
      <trkpt lat="46.121100001037121" lon="8.673266172409058">
        <ele>1537.77</ele>
        <time>2015-01-06T13:21:15Z</time>
      </trkpt>
      <trkpt lat="46.12107502296567" lon="8.673347812145948">
        <ele>1534.4000000000001</ele>
        <time>2015-01-06T13:21:24Z</time>
      </trkpt>
      <trkpt lat="46.121067311614752" lon="8.67334546521306">
        <ele>1534.4000000000001</ele>
        <time>2015-01-06T13:21:25Z</time>
      </trkpt>
      <trkpt lat="46.121015846729279" lon="8.673388715833426">
        <ele>1531.04</ele>
        <time>2015-01-06T13:21:35Z</time>
      </trkpt>
      <trkpt lat="46.121016936376691" lon="8.673431882634759">
        <ele>1530.0799999999999</ele>
        <time>2015-01-06T13:21:38Z</time>
      </trkpt>
      <trkpt lat="46.12102079205215" lon="8.673458872362971">
        <ele>1529.1099999999999</ele>
        <time>2015-01-06T13:21:40Z</time>
      </trkpt>
      <trkpt lat="46.120989276096225" lon="8.673533722758293">
        <ele>1525.75</ele>
        <time>2015-01-06T13:21:47Z</time>
      </trkpt>
      <trkpt lat="46.1209870968014" lon="8.673619804903865">
        <ele>1522.8699999999999</ele>
        <time>2015-01-06T13:21:56Z</time>
      </trkpt>
      <trkpt lat="46.120989108458161" lon="8.673666827380657">
        <ele>1520.9400000000001</ele>
        <time>2015-01-06T13:22:00Z</time>
      </trkpt>
      <trkpt lat="46.120997238904238" lon="8.67369138635695">
        <ele>1520.46</ele>
        <time>2015-01-06T13:22:02Z</time>
      </trkpt>
      <trkpt lat="46.120929261669517" lon="8.673725165426731">
        <ele>1516.6199999999999</ele>
        <time>2015-01-06T13:22:13Z</time>
      </trkpt>
      <trkpt lat="46.120924651622772" lon="8.673723740503192">
        <ele>1516.1400000000001</ele>
        <time>2015-01-06T13:22:14Z</time>
      </trkpt>
      <trkpt lat="46.120913084596395" lon="8.673753496259451">
        <ele>1514.6900000000001</ele>
        <time>2015-01-06T13:22:19Z</time>
      </trkpt>
      <trkpt lat="46.120898080989718" lon="8.673800686374307">
        <ele>1512.29</ele>
        <time>2015-01-06T13:22:28Z</time>
      </trkpt>
      <trkpt lat="46.120877712965012" lon="8.673815773800015">
        <ele>1510.8499999999999</ele>
        <time>2015-01-06T13:22:32Z</time>
      </trkpt>
      <trkpt lat="46.120856171473861" lon="8.673805464059115">
        <ele>1509.8900000000001</ele>
        <time>2015-01-06T13:22:34Z</time>
      </trkpt>
      <trkpt lat="46.120818285271525" lon="8.673805296421051">
        <ele>1507.97</ele>
        <time>2015-01-06T13:22:42Z</time>
      </trkpt>
      <trkpt lat="46.120798084884882" lon="8.673815438523889">
        <ele>1506.52</ele>
        <time>2015-01-06T13:22:45Z</time>
      </trkpt>
      <trkpt lat="46.120795905590057" lon="8.673824490979314">
        <ele>1506.04</ele>
        <time>2015-01-06T13:22:47Z</time>
      </trkpt>
      <trkpt lat="46.120764808729291" lon="8.673868328332901">
        <ele>1502.6800000000001</ele>
        <time>2015-01-06T13:22:56Z</time>
      </trkpt>
      <trkpt lat="46.120719630271196" lon="8.673874447122216">
        <ele>1499.79</ele>
        <time>2015-01-06T13:23:05Z</time>
      </trkpt>
      <trkpt lat="46.120714852586389" lon="8.673900095745921">
        <ele>1499.3099999999999</ele>
        <time>2015-01-06T13:23:23Z</time>
      </trkpt>
      <trkpt lat="46.120690209791064" lon="8.673936054110527">
        <ele>1496.9100000000001</ele>
        <time>2015-01-06T13:23:40Z</time>
      </trkpt>
      <trkpt lat="46.12069490365684" lon="8.673981484025717">
        <ele>1494.99</ele>
        <time>2015-01-06T13:23:45Z</time>
      </trkpt>
      <trkpt lat="46.120695909485221" lon="8.674015179276466">
        <ele>1494.03</ele>
        <time>2015-01-06T13:23:48Z</time>
      </trkpt>
      <trkpt lat="46.120637403801084" lon="8.673987099900842">
        <ele>1491.6199999999999</ele>
        <time>2015-01-06T13:23:56Z</time>
      </trkpt>
      <trkpt lat="46.120613431558013" lon="8.674006210640073">
        <ele>1489.22</ele>
        <time>2015-01-06T13:24:06Z</time>
      </trkpt>
      <trkpt lat="46.120585268363357" lon="8.674087515100837">
        <ele>1485.8499999999999</ele>
        <time>2015-01-06T13:24:16Z</time>
      </trkpt>
      <trkpt lat="46.120594572275877" lon="8.674127580597997">
        <ele>1484.8900000000001</ele>
        <time>2015-01-06T13:24:39Z</time>
      </trkpt>
      <trkpt lat="46.120599182322621" lon="8.674159096553922">
        <ele>1483.9300000000001</ele>
        <time>2015-01-06T13:24:41Z</time>
      </trkpt>
      <trkpt lat="46.120593147352338" lon="8.674254650250077">
        <ele>1480.5699999999999</ele>
        <time>2015-01-06T13:24:50Z</time>
      </trkpt>
      <trkpt lat="46.120602283626795" lon="8.674356322735548">
        <ele>1477.2</ele>
        <time>2015-01-06T13:24:59Z</time>
      </trkpt>
      <trkpt lat="46.120594991371036" lon="8.674365542829037">
        <ele>1477.2</ele>
        <time>2015-01-06T13:25:00Z</time>
      </trkpt>
      <trkpt lat="46.120544616132975" lon="8.674387000501156">
        <ele>1474.8</ele>
        <time>2015-01-06T13:25:07Z</time>
      </trkpt>
      <trkpt lat="46.120505388826132" lon="8.67445413954556">
        <ele>1470.95</ele>
        <time>2015-01-06T13:25:17Z</time>
      </trkpt>
      <trkpt lat="46.12051117233932" lon="8.674484230577946">
        <ele>1469.99</ele>
        <time>2015-01-06T13:25:21Z</time>
      </trkpt>
      <trkpt lat="46.120503544807434" lon="8.674567798152566">
        <ele>1466.6300000000001</ele>
        <time>2015-01-06T13:25:30Z</time>
      </trkpt>
      <trkpt lat="46.120423413813114" lon="8.674599397927523">
        <ele>1463.26</ele>
        <time>2015-01-06T13:25:40Z</time>
      </trkpt>
      <trkpt lat="46.120408326387405" lon="8.674653293564916">
        <ele>1460.8599999999999</ele>
        <time>2015-01-06T13:25:48Z</time>
      </trkpt>
      <trkpt lat="46.12035577185452" lon="8.674709871411324">
        <ele>1458.46</ele>
        <time>2015-01-06T13:25:57Z</time>
      </trkpt>
      <trkpt lat="46.120359459891915" lon="8.674758737906814">
        <ele>1456.53</ele>
        <time>2015-01-06T13:26:01Z</time>
      </trkpt>
      <trkpt lat="46.120354933664203" lon="8.674770053476095">
        <ele>1456.53</ele>
        <time>2015-01-06T13:26:02Z</time>
      </trkpt>
      <trkpt lat="46.120303301140666" lon="8.674830319359899">
        <ele>1454.6099999999999</ele>
        <time>2015-01-06T13:26:08Z</time>
      </trkpt>
      <trkpt lat="46.120226019993424" lon="8.674863260239363">
        <ele>1451.73</ele>
        <time>2015-01-06T13:26:17Z</time>
      </trkpt>
      <trkpt lat="46.120181679725647" lon="8.674922520294786">
        <ele>1448.3599999999999</ele>
        <time>2015-01-06T13:26:26Z</time>
      </trkpt>
      <trkpt lat="46.120171789079905" lon="8.67497893050313">
        <ele>1445</ele>
        <time>2015-01-06T13:26:36Z</time>
      </trkpt>
      <trkpt lat="46.120187966153026" lon="8.675068449229002">
        <ele>1442.1099999999999</ele>
        <time>2015-01-06T13:26:44Z</time>
      </trkpt>
      <trkpt lat="46.120134405791759" lon="8.67510256357491">
        <ele>1440.1900000000001</ele>
        <time>2015-01-06T13:26:49Z</time>
      </trkpt>
      <trkpt lat="46.120098447427154" lon="8.675160147249699">
        <ele>1438.75</ele>
        <time>2015-01-06T13:26:53Z</time>
      </trkpt>
      <trkpt lat="46.120062656700611" lon="8.67521689273417">
        <ele>1438.27</ele>
        <time>2015-01-06T13:26:57Z</time>
      </trkpt>
      <trkpt lat="46.120051005855203" lon="8.675249665975571">
        <ele>1436.8299999999999</ele>
        <time>2015-01-06T13:27:00Z</time>
      </trkpt>
      <trkpt lat="46.120018986985087" lon="8.675364917144179">
        <ele>1434.9100000000001</ele>
        <time>2015-01-06T13:27:07Z</time>
      </trkpt>
      <trkpt lat="46.119948495179415" lon="8.675519227981567">
        <ele>1431.54</ele>
        <time>2015-01-06T13:27:19Z</time>
      </trkpt>
      <trkpt lat="46.119908345863223" lon="8.675655517727137">
        <ele>1428.1800000000001</ele>
        <time>2015-01-06T13:27:32Z</time>
      </trkpt>
      <trkpt lat="46.119824526831508" lon="8.675710670650005">
        <ele>1424.8099999999999</ele>
        <time>2015-01-06T13:27:42Z</time>
      </trkpt>
      <trkpt lat="46.119769290089607" lon="8.675785269588232">
        <ele>1421.9300000000001</ele>
        <time>2015-01-06T13:27:53Z</time>
      </trkpt>
      <trkpt lat="46.119748000055552" lon="8.675839081406593">
        <ele>1420</ele>
        <time>2015-01-06T13:28:00Z</time>
      </trkpt>
      <trkpt lat="46.119726374745369" lon="8.675871519371867">
        <ele>1418.5599999999999</ele>
        <time>2015-01-06T13:28:06Z</time>
      </trkpt>
      <trkpt lat="46.119696786627173" lon="8.675948465242982">
        <ele>1415.2</ele>
        <time>2015-01-06T13:28:17Z</time>
      </trkpt>
      <trkpt lat="46.119685554876924" lon="8.675959948450327">
        <ele>1414.72</ele>
        <time>2015-01-06T13:28:19Z</time>
      </trkpt>
      <trkpt lat="46.11967021599412" lon="8.676001438871026">
        <ele>1413.28</ele>
        <time>2015-01-06T13:28:23Z</time>
      </trkpt>
      <trkpt lat="46.119643393903971" lon="8.676079222932458">
        <ele>1409.4300000000001</ele>
        <time>2015-01-06T13:28:32Z</time>
      </trkpt>
      <trkpt lat="46.119609782472253" lon="8.676106464117765">
        <ele>1407.51</ele>
        <time>2015-01-06T13:28:39Z</time>
      </trkpt>
      <trkpt lat="46.119581200182438" lon="8.676137812435627">
        <ele>1405.0999999999999</ele>
        <time>2015-01-06T13:28:45Z</time>
      </trkpt>
      <trkpt lat="46.119538117200136" lon="8.676187600940466">
        <ele>1401.74</ele>
        <time>2015-01-06T13:28:56Z</time>
      </trkpt>
      <trkpt lat="46.11952118575573" lon="8.676191791892052">
        <ele>1401.74</ele>
        <time>2015-01-06T13:29:07Z</time>
      </trkpt>
      <trkpt lat="46.119480533525348" lon="8.676242670044303">
        <ele>1397.8900000000001</ele>
        <time>2015-01-06T13:29:18Z</time>
      </trkpt>
      <trkpt lat="46.119474917650223" lon="8.676290363073349">
        <ele>1395.97</ele>
        <time>2015-01-06T13:29:25Z</time>
      </trkpt>
      <trkpt lat="46.119434684514999" lon="8.676305953413248">
        <ele>1394.53</ele>
        <time>2015-01-06T13:29:29Z</time>
      </trkpt>
      <trkpt lat="46.119417333975434" lon="8.676368314772844">
        <ele>1391.6500000000001</ele>
        <time>2015-01-06T13:29:39Z</time>
      </trkpt>
      <trkpt lat="46.119334353134036" lon="8.676306707784534">
        <ele>1387.8</ele>
        <time>2015-01-06T13:29:50Z</time>
      </trkpt>
      <trkpt lat="46.119300490245223" lon="8.676340067759156">
        <ele>1383.96</ele>
        <time>2015-01-06T13:29:59Z</time>
      </trkpt>
      <trkpt lat="46.119282133877277" lon="8.676341325044632">
        <ele>1383.47</ele>
        <time>2015-01-06T13:30:01Z</time>
      </trkpt>
      <trkpt lat="46.119260592386127" lon="8.676418354734778">
        <ele>1380.1099999999999</ele>
        <time>2015-01-06T13:30:11Z</time>
      </trkpt>
      <trkpt lat="46.119254138320684" lon="8.676418941468">
        <ele>1379.6300000000001</ele>
        <time>2015-01-06T13:30:16Z</time>
      </trkpt>
      <trkpt lat="46.119238967075944" lon="8.676439058035612">
        <ele>1378.1900000000001</ele>
        <time>2015-01-06T13:30:26Z</time>
      </trkpt>
      <trkpt lat="46.119222035631537" lon="8.676445009186864">
        <ele>1378.1900000000001</ele>
        <time>2015-01-06T13:30:50Z</time>
      </trkpt>
      <trkpt lat="46.119239972904325" lon="8.676439309492707">
        <ele>1379.1500000000001</ele>
        <time>2015-01-06T13:31:05Z</time>
      </trkpt>
      <trkpt lat="46.119226142764091" lon="8.676460012793541">
        <ele>1379.1500000000001</ele>
        <time>2015-01-06T13:31:17Z</time>
      </trkpt>
      <trkpt lat="46.119218599051237" lon="8.676465125754476">
        <ele>1379.1500000000001</ele>
        <time>2015-01-06T13:31:20Z</time>
      </trkpt>
      <trkpt lat="46.119229914620519" lon="8.676574677228928">
        <ele>1375.78</ele>
        <time>2015-01-06T13:31:29Z</time>
      </trkpt>
      <trkpt lat="46.119184736162424" lon="8.676602086052299">
        <ele>1372.4200000000001</ele>
        <time>2015-01-06T13:31:40Z</time>
      </trkpt>
      <trkpt lat="46.119180461391807" lon="8.67661826312542">
        <ele>1371.9400000000001</ele>
        <time>2015-01-06T13:31:42Z</time>
      </trkpt>
      <trkpt lat="46.119138887152076" lon="8.6766417324543">
        <ele>1370.02</ele>
        <time>2015-01-06T13:31:46Z</time>
      </trkpt>
      <trkpt lat="46.119071580469608" lon="8.676588926464319">
        <ele>1367.6099999999999</ele>
        <time>2015-01-06T13:31:53Z</time>
      </trkpt>
      <trkpt lat="46.119053475558758" lon="8.67656696587801">
        <ele>1366.6500000000001</ele>
        <time>2015-01-06T13:31:56Z</time>
      </trkpt>
      <trkpt lat="46.119034448638558" lon="8.676580376923084">
        <ele>1365.6900000000001</ele>
        <time>2015-01-06T13:31:59Z</time>
      </trkpt>
      <trkpt lat="46.119042998179793" lon="8.676686575636268">
        <ele>1362.3299999999999</ele>
        <time>2015-01-06T13:32:11Z</time>
      </trkpt>
      <trkpt lat="46.119050625711679" lon="8.676720354706049">
        <ele>1361.3599999999999</ele>
        <time>2015-01-06T13:32:14Z</time>
      </trkpt>
      <trkpt lat="46.118961861357093" lon="8.676693364977837">
        <ele>1358</ele>
        <time>2015-01-06T13:32:26Z</time>
      </trkpt>
      <trkpt lat="46.118958927690983" lon="8.67669889703393">
        <ele>1358.96</ele>
        <time>2015-01-06T13:32:40Z</time>
      </trkpt>
      <trkpt lat="46.118912491947412" lon="8.676689090207219">
        <ele>1356.0799999999999</ele>
        <time>2015-01-06T13:32:51Z</time>
      </trkpt>
      <trkpt lat="46.118897069245577" lon="8.67665397003293">
        <ele>1354.6300000000001</ele>
        <time>2015-01-06T13:32:57Z</time>
      </trkpt>
      <trkpt lat="46.11886739730835" lon="8.676647264510393">
        <ele>1352.71</ele>
        <time>2015-01-06T13:33:02Z</time>
      </trkpt>
      <trkpt lat="46.118847448378801" lon="8.676608372479677">
        <ele>1350.3099999999999</ele>
        <time>2015-01-06T13:33:12Z</time>
      </trkpt>
      <trkpt lat="46.118814339861274" lon="8.676627650856972">
        <ele>1348.3900000000001</ele>
        <time>2015-01-06T13:33:18Z</time>
      </trkpt>
      <trkpt lat="46.118776202201843" lon="8.676741058006883">
        <ele>1345.98</ele>
        <time>2015-01-06T13:33:27Z</time>
      </trkpt>
      <trkpt lat="46.118741417303681" lon="8.676782380789518">
        <ele>1343.0999999999999</ele>
        <time>2015-01-06T13:33:37Z</time>
      </trkpt>
      <trkpt lat="46.118780728429556" lon="8.676838036626577">
        <ele>1341.1800000000001</ele>
        <time>2015-01-06T13:33:48Z</time>
      </trkpt>
      <trkpt lat="46.118773855268955" lon="8.676859578117728">
        <ele>1340.22</ele>
        <time>2015-01-06T13:33:50Z</time>
      </trkpt>
      <trkpt lat="46.118726078420877" lon="8.676856560632587">
        <ele>1338.77</ele>
        <time>2015-01-06T13:33:53Z</time>
      </trkpt>
      <trkpt lat="46.118679558858275" lon="8.676829151809216">
        <ele>1335.8900000000001</ele>
        <time>2015-01-06T13:34:06Z</time>
      </trkpt>
      <trkpt lat="46.118685426190495" lon="8.676847340539098">
        <ele>1335.4100000000001</ele>
        <time>2015-01-06T13:34:08Z</time>
      </trkpt>
      <trkpt lat="46.118634128943086" lon="8.676882460713387">
        <ele>1332.04</ele>
        <time>2015-01-06T13:34:19Z</time>
      </trkpt>
      <trkpt lat="46.118634715676308" lon="8.676916155964136">
        <ele>1331.5599999999999</ele>
        <time>2015-01-06T13:34:22Z</time>
      </trkpt>
      <trkpt lat="46.118579395115376" lon="8.676886400207877">
        <ele>1329.1600000000001</ele>
        <time>2015-01-06T13:34:35Z</time>
      </trkpt>
      <trkpt lat="46.118570845574141" lon="8.676856392994523">
        <ele>1329.6400000000001</ele>
        <time>2015-01-06T13:34:54Z</time>
      </trkpt>
      <trkpt lat="46.118567911908031" lon="8.676861673593521">
        <ele>1329.6400000000001</ele>
        <time>2015-01-06T13:35:17Z</time>
      </trkpt>
      <trkpt lat="46.118526756763458" lon="8.676911545917392">
        <ele>1327.24</ele>
        <time>2015-01-06T13:35:39Z</time>
      </trkpt>
      <trkpt lat="46.118508065119386" lon="8.677029982209206">
        <ele>1324.3499999999999</ele>
        <time>2015-01-06T13:35:50Z</time>
      </trkpt>
      <trkpt lat="46.11847017891705" lon="8.677030820399523">
        <ele>1322.9100000000001</ele>
        <time>2015-01-06T13:35:56Z</time>
      </trkpt>
      <trkpt lat="46.118421731516719" lon="8.677046913653612">
        <ele>1320.51</ele>
        <time>2015-01-06T13:36:02Z</time>
      </trkpt>
      <trkpt lat="46.118379319086671" lon="8.677125535905361">
        <ele>1319.0699999999999</ele>
        <time>2015-01-06T13:36:09Z</time>
      </trkpt>
      <trkpt lat="46.118310168385506" lon="8.677152022719383">
        <ele>1316.1800000000001</ele>
        <time>2015-01-06T13:36:16Z</time>
      </trkpt>
      <trkpt lat="46.118268510326743" lon="8.677224777638912">
        <ele>1314.26</ele>
        <time>2015-01-06T13:36:23Z</time>
      </trkpt>
      <trkpt lat="46.118243364617229" lon="8.677231566980481">
        <ele>1312.8199999999999</ele>
        <time>2015-01-06T13:36:26Z</time>
      </trkpt>
      <trkpt lat="46.118226014077663" lon="8.677227208390832">
        <ele>1312.3399999999999</ele>
        <time>2015-01-06T13:36:28Z</time>
      </trkpt>
      <trkpt lat="46.118181003257632" lon="8.677234500646591">
        <ele>1310.9000000000001</ele>
        <time>2015-01-06T13:36:32Z</time>
      </trkpt>
      <trkpt lat="46.118163820356131" lon="8.677249001339078">
        <ele>1310.4100000000001</ele>
        <time>2015-01-06T13:36:34Z</time>
      </trkpt>
      <trkpt lat="46.118160970509052" lon="8.677281774580479">
        <ele>1309.45</ele>
        <time>2015-01-06T13:36:37Z</time>
      </trkpt>
      <trkpt lat="46.118077570572495" lon="8.677256461232901">
        <ele>1307.53</ele>
        <time>2015-01-06T13:36:44Z</time>
      </trkpt>
      <trkpt lat="46.118047395721078" lon="8.677249755710363">
        <ele>1306.5699999999999</ele>
        <time>2015-01-06T13:36:47Z</time>
      </trkpt>
      <trkpt lat="46.117973886430264" lon="8.67727305740118">
        <ele>1303.6900000000001</ele>
        <time>2015-01-06T13:37:01Z</time>
      </trkpt>
      <trkpt lat="46.117961648851633" lon="8.677312536165118">
        <ele>1302.72</ele>
        <time>2015-01-06T13:37:14Z</time>
      </trkpt>
      <trkpt lat="46.117958296090364" lon="8.677323265001178">
        <ele>1302.24</ele>
        <time>2015-01-06T13:37:15Z</time>
      </trkpt>
      <trkpt lat="46.117968438193202" lon="8.677380932494998">
        <ele>1300.8</ele>
        <time>2015-01-06T13:37:21Z</time>
      </trkpt>
      <trkpt lat="46.118033230304718" lon="8.677442288026214">
        <ele>1296.96</ele>
        <time>2015-01-06T13:37:33Z</time>
      </trkpt>
      <trkpt lat="46.118031889200211" lon="8.67746165022254">
        <ele>1296.48</ele>
        <time>2015-01-06T13:37:35Z</time>
      </trkpt>
      <trkpt lat="46.118007330223918" lon="8.677539518103004">
        <ele>1292.6300000000001</ele>
        <time>2015-01-06T13:37:47Z</time>
      </trkpt>
      <trkpt lat="46.117990482598543" lon="8.677561143413186">
        <ele>1291.6700000000001</ele>
        <time>2015-01-06T13:37:49Z</time>
      </trkpt>
      <trkpt lat="46.117930132895708" lon="8.67761948145926">
        <ele>1288.78</ele>
        <time>2015-01-06T13:37:58Z</time>
      </trkpt>
      <trkpt lat="46.117914626374841" lon="8.677708161994815">
        <ele>1285.9000000000001</ele>
        <time>2015-01-06T13:38:05Z</time>
      </trkpt>
      <trkpt lat="46.117750927805901" lon="8.677703551948071">
        <ele>1282.54</ele>
        <time>2015-01-06T13:38:19Z</time>
      </trkpt>
      <trkpt lat="46.117727626115084" lon="8.677705228328705">
        <ele>1282.0599999999999</ele>
        <time>2015-01-06T13:38:22Z</time>
      </trkpt>
      <trkpt lat="46.117713879793882" lon="8.677759794518352">
        <ele>1281.0899999999999</ele>
        <time>2015-01-06T13:38:26Z</time>
      </trkpt>
      <trkpt lat="46.117624528706074" lon="8.67778804153204">
        <ele>1277.73</ele>
        <time>2015-01-06T13:38:36Z</time>
      </trkpt>
      <trkpt lat="46.117540122941136" lon="8.677816037088633">
        <ele>1273.8800000000001</ele>
        <time>2015-01-06T13:38:46Z</time>
      </trkpt>
      <trkpt lat="46.117482539266348" lon="8.677833555266261">
        <ele>1271.96</ele>
        <time>2015-01-06T13:38:52Z</time>
      </trkpt>
      <trkpt lat="46.117438701912761" lon="8.677832968533039">
        <ele>1270.52</ele>
        <time>2015-01-06T13:38:56Z</time>
      </trkpt>
      <trkpt lat="46.117293694987893" lon="8.67784520611167">
        <ele>1266.6700000000001</ele>
        <time>2015-01-06T13:39:07Z</time>
      </trkpt>
      <trkpt lat="46.117218676954508" lon="8.677764907479286">
        <ele>1264.75</ele>
        <time>2015-01-06T13:39:14Z</time>
      </trkpt>
      <trkpt lat="46.117197470739484" lon="8.677764236927033">
        <ele>1264.27</ele>
        <time>2015-01-06T13:39:16Z</time>
      </trkpt>
      <trkpt lat="46.117108035832644" lon="8.677626186981797">
        <ele>1263.3099999999999</ele>
        <time>2015-01-06T13:39:27Z</time>
      </trkpt>
      <trkpt lat="46.117080962285399" lon="8.677518479526043">
        <ele>1263.79</ele>
        <time>2015-01-06T13:39:34Z</time>
      </trkpt>
      <trkpt lat="46.117080710828304" lon="8.677473636344075">
        <ele>1264.27</ele>
        <time>2015-01-06T13:39:37Z</time>
      </trkpt>
      <trkpt lat="46.117039639502764" lon="8.67735218256712">
        <ele>1260.9100000000001</ele>
        <time>2015-01-06T13:39:50Z</time>
      </trkpt>
      <trkpt lat="46.117026563733816" lon="8.677213881164789">
        <ele>1258.02</ele>
        <time>2015-01-06T13:40:00Z</time>
      </trkpt>
      <trkpt lat="46.117026144638658" lon="8.677187478169799">
        <ele>1257.54</ele>
        <time>2015-01-06T13:40:02Z</time>
      </trkpt>
      <trkpt lat="46.117058750241995" lon="8.677108772099018">
        <ele>1254.6600000000001</ele>
        <time>2015-01-06T13:40:10Z</time>
      </trkpt>
      <trkpt lat="46.117044417187572" lon="8.677047081291676">
        <ele>1253.7</ele>
        <time>2015-01-06T13:40:25Z</time>
      </trkpt>
      <trkpt lat="46.1170325987041" lon="8.67702922783792">
        <ele>1253.7</ele>
        <time>2015-01-06T13:40:41Z</time>
      </trkpt>
      <trkpt lat="46.117083309218287" lon="8.676971644163132">
        <ele>1252.25</ele>
        <time>2015-01-06T13:40:55Z</time>
      </trkpt>
      <trkpt lat="46.117059672251344" lon="8.676934847608209">
        <ele>1250.8099999999999</ele>
        <time>2015-01-06T13:40:59Z</time>
      </trkpt>
      <trkpt lat="46.117044417187572" lon="8.676885981112719">
        <ele>1249.8499999999999</ele>
        <time>2015-01-06T13:41:13Z</time>
      </trkpt>
      <trkpt lat="46.117020780220628" lon="8.67684306576848">
        <ele>1250.8099999999999</ele>
        <time>2015-01-06T13:41:31Z</time>
      </trkpt>
      <trkpt lat="46.116997897624969" lon="8.676811130717397">
        <ele>1250.8099999999999</ele>
        <time>2015-01-06T13:41:35Z</time>
      </trkpt>
      <trkpt lat="46.116907624527812" lon="8.676841808483005">
        <ele>1250.3299999999999</ele>
        <time>2015-01-06T13:41:44Z</time>
      </trkpt>
      <trkpt lat="46.116780051961541" lon="8.676923699676991">
        <ele>1248.8900000000001</ele>
        <time>2015-01-06T13:41:56Z</time>
      </trkpt>
      <trkpt lat="46.116757337003946" lon="8.676937026903033">
        <ele>1249.3699999999999</ele>
        <time>2015-01-06T13:41:59Z</time>
      </trkpt>
      <trkpt lat="46.116732778027654" lon="8.676963346078992">
        <ele>1249.8499999999999</ele>
        <time>2015-01-06T13:42:03Z</time>
      </trkpt>
      <trkpt lat="46.116726659238338" lon="8.677035346627235">
        <ele>1248.8900000000001</ele>
        <time>2015-01-06T13:42:07Z</time>
      </trkpt>
      <trkpt lat="46.116725904867053" lon="8.677186639979482">
        <ele>1248.4100000000001</ele>
        <time>2015-01-06T13:42:16Z</time>
      </trkpt>
      <trkpt lat="46.116773849353194" lon="8.677283031865954">
        <ele>1248.4100000000001</ele>
        <time>2015-01-06T13:42:23Z</time>
      </trkpt>
      <trkpt lat="46.116800336167216" lon="8.677341118454933">
        <ele>1248.4100000000001</ele>
        <time>2015-01-06T13:42:27Z</time>
      </trkpt>
      <trkpt lat="46.116801341995597" lon="8.677394846454263">
        <ele>1248.4100000000001</ele>
        <time>2015-01-06T13:42:30Z</time>
      </trkpt>
      <trkpt lat="46.116759181022644" lon="8.677483610808849">
        <ele>1247.9300000000001</ele>
        <time>2015-01-06T13:42:35Z</time>
      </trkpt>
      <trkpt lat="46.116730011999607" lon="8.677532477304339">
        <ele>1247.45</ele>
        <time>2015-01-06T13:42:39Z</time>
      </trkpt>
      <trkpt lat="46.116689862683415" lon="8.677553180605173">
        <ele>1246.01</ele>
        <time>2015-01-06T13:42:43Z</time>
      </trkpt>
      <trkpt lat="46.116553992033005" lon="8.677549157291651">
        <ele>1242.6400000000001</ele>
        <time>2015-01-06T13:42:54Z</time>
      </trkpt>
      <trkpt lat="46.116539994254708" lon="8.677554354071617">
        <ele>1242.1600000000001</ele>
        <time>2015-01-06T13:42:55Z</time>
      </trkpt>
      <trkpt lat="46.116465227678418" lon="8.677596263587475">
        <ele>1240.72</ele>
        <time>2015-01-06T13:43:02Z</time>
      </trkpt>
      <trkpt lat="46.116374870762229" lon="8.677628198638558">
        <ele>1238.8</ele>
        <time>2015-01-06T13:43:15Z</time>
      </trkpt>
      <trkpt lat="46.116308653727174" lon="8.677667090669274">
        <ele>1238.3199999999999</ele>
        <time>2015-01-06T13:43:39Z</time>
      </trkpt>
      <trkpt lat="46.116156857460737" lon="8.677702797576785">
        <ele>1236.8699999999999</ele>
        <time>2015-01-06T13:43:54Z</time>
      </trkpt>
      <trkpt lat="46.116130203008652" lon="8.677684022113681">
        <ele>1236.8699999999999</ele>
        <time>2015-01-06T13:44:06Z</time>
      </trkpt>
      <trkpt lat="46.116128191351891" lon="8.677690057083964">
        <ele>1237.3499999999999</ele>
        <time>2015-01-06T13:44:09Z</time>
      </trkpt>
      <trkpt lat="46.116053927689791" lon="8.677706653252244">
        <ele>1235.4300000000001</ele>
        <time>2015-01-06T13:44:16Z</time>
      </trkpt>
      <trkpt lat="46.115990057587624" lon="8.67766004987061">
        <ele>1233.51</ele>
        <time>2015-01-06T13:44:22Z</time>
      </trkpt>
      <trkpt lat="46.115912022069097" lon="8.677646638825536">
        <ele>1232.0699999999999</ele>
        <time>2015-01-06T13:44:28Z</time>
      </trkpt>
      <trkpt lat="46.115790400654078" lon="8.677592491731048">
        <ele>1229.1800000000001</ele>
        <time>2015-01-06T13:44:38Z</time>
      </trkpt>
      <trkpt lat="46.115773469209671" lon="8.677524346858263">
        <ele>1229.1800000000001</ele>
        <time>2015-01-06T13:44:55Z</time>
      </trkpt>
      <trkpt lat="46.115764752030373" lon="8.677531136199832">
        <ele>1228.7</ele>
        <time>2015-01-06T13:45:13Z</time>
      </trkpt>
      <trkpt lat="46.115761063992977" lon="8.677465924993157">
        <ele>1227.74</ele>
        <time>2015-01-06T13:45:17Z</time>
      </trkpt>
      <trkpt lat="46.115750838071108" lon="8.677444718778133">
        <ele>1227.26</ele>
        <time>2015-01-06T13:45:19Z</time>
      </trkpt>
      <trkpt lat="46.115733403712511" lon="8.677279930561781">
        <ele>1224.3800000000001</ele>
        <time>2015-01-06T13:45:29Z</time>
      </trkpt>
      <trkpt lat="46.115688560530543" lon="8.67720365524292">
        <ele>1222.9300000000001</ele>
        <time>2015-01-06T13:45:34Z</time>
      </trkpt>
      <trkpt lat="46.115571800619364" lon="8.676957478746772">
        <ele>1219.5699999999999</ele>
        <time>2015-01-06T13:45:49Z</time>
      </trkpt>
      <trkpt lat="46.115487394854426" lon="8.676809202879667">
        <ele>1219.0899999999999</ele>
        <time>2015-01-06T13:45:59Z</time>
      </trkpt>
      <trkpt lat="46.115406593307853" lon="8.676715744659305">
        <ele>1218.1300000000001</ele>
        <time>2015-01-06T13:46:12Z</time>
      </trkpt>
      <trkpt lat="46.115373484790325" lon="8.676782045513392">
        <ele>1216.6900000000001</ele>
        <time>2015-01-06T13:46:20Z</time>
      </trkpt>
      <trkpt lat="46.115365102887154" lon="8.676817249506712">
        <ele>1216.21</ele>
        <time>2015-01-06T13:46:23Z</time>
      </trkpt>
      <trkpt lat="46.115276170894504" lon="8.676998717710376">
        <ele>1212.3599999999999</ele>
        <time>2015-01-06T13:46:36Z</time>
      </trkpt>
      <trkpt lat="46.115215988829732" lon="8.677071891725063">
        <ele>1211.4000000000001</ele>
        <time>2015-01-06T13:46:43Z</time>
      </trkpt>
      <trkpt lat="46.11518464051187" lon="8.677173480391502">
        <ele>1209</ele>
        <time>2015-01-06T13:46:49Z</time>
      </trkpt>
      <trkpt lat="46.115094786509871" lon="8.677383279427886">
        <ele>1205.6300000000001</ele>
        <time>2015-01-06T13:47:03Z</time>
      </trkpt>
      <trkpt lat="46.115015912801027" lon="8.677476570010185">
        <ele>1203.71</ele>
        <time>2015-01-06T13:47:12Z</time>
      </trkpt>
      <trkpt lat="46.114937290549278" lon="8.677556198090315">
        <ele>1201.3</ele>
        <time>2015-01-06T13:47:19Z</time>
      </trkpt>
      <trkpt lat="46.114857411012053" lon="8.677610345184803">
        <ele>1198.4200000000001</ele>
        <time>2015-01-06T13:47:31Z</time>
      </trkpt>
      <trkpt lat="46.114858668297529" lon="8.677617134526372">
        <ele>1198.9000000000001</ele>
        <time>2015-01-06T13:47:35Z</time>
      </trkpt>
      <trkpt lat="46.114828241989017" lon="8.677649404853582">
        <ele>1197.9400000000001</ele>
        <time>2015-01-06T13:47:38Z</time>
      </trkpt>
      <trkpt lat="46.11476294696331" lon="8.677677651867271">
        <ele>1196.02</ele>
        <time>2015-01-06T13:47:44Z</time>
      </trkpt>
      <trkpt lat="46.114711565896869" lon="8.677744036540389">
        <ele>1194.5799999999999</ele>
        <time>2015-01-06T13:47:50Z</time>
      </trkpt>
      <trkpt lat="46.114705866202712" lon="8.677769182249904">
        <ele>1193.6099999999999</ele>
        <time>2015-01-06T13:47:52Z</time>
      </trkpt>
      <trkpt lat="46.114689689129591" lon="8.677797261625528">
        <ele>1193.1300000000001</ele>
        <time>2015-01-06T13:47:54Z</time>
      </trkpt>
      <trkpt lat="46.114544346928596" lon="8.677844200283289">
        <ele>1189.29</ele>
        <time>2015-01-06T13:48:05Z</time>
      </trkpt>
      <trkpt lat="46.114377295598388" lon="8.677927851676941">
        <ele>1185.9200000000001</ele>
        <time>2015-01-06T13:48:18Z</time>
      </trkpt>
      <trkpt lat="46.114309653639793" lon="8.677986273542047">
        <ele>1184.96</ele>
        <time>2015-01-06T13:48:24Z</time>
      </trkpt>
      <trkpt lat="46.114172860980034" lon="8.677978981286287">
        <ele>1181.5999999999999</ele>
        <time>2015-01-06T13:48:36Z</time>
      </trkpt>
      <trkpt lat="46.114184595644474" lon="8.678001025691629">
        <ele>1181.1199999999999</ele>
        <time>2015-01-06T13:48:39Z</time>
      </trkpt>
      <trkpt lat="46.114236060529947" lon="8.678058106452227">
        <ele>1179.1900000000001</ele>
        <time>2015-01-06T13:48:45Z</time>
      </trkpt>
      <trkpt lat="46.114280484616756" lon="8.678136980161071">
        <ele>1177.75</ele>
        <time>2015-01-06T13:48:51Z</time>
      </trkpt>
      <trkpt lat="46.11433588899672" lon="8.678140416741371">
        <ele>1176.3099999999999</ele>
        <time>2015-01-06T13:48:57Z</time>
      </trkpt>
      <trkpt lat="46.11436128616333" lon="8.678133627399802">
        <ele>1175.3499999999999</ele>
        <time>2015-01-06T13:49:00Z</time>
      </trkpt>
      <trkpt lat="46.114346450194716" lon="8.678257260471582">
        <ele>1173.4300000000001</ele>
        <time>2015-01-06T13:49:07Z</time>
      </trkpt>
      <trkpt lat="46.114236311987042" lon="8.678275030106306">
        <ele>1170.54</ele>
        <time>2015-01-06T13:49:17Z</time>
      </trkpt>
      <trkpt lat="46.11420982517302" lon="8.678237646818161">
        <ele>1170.0599999999999</ele>
        <time>2015-01-06T13:49:20Z</time>
      </trkpt>
      <trkpt lat="46.11418979242444" lon="8.678231611847878">
        <ele>1169.5799999999999</ele>
        <time>2015-01-06T13:49:22Z</time>
      </trkpt>
      <trkpt lat="46.114142686128616" lon="8.678315682336688">
        <ele>1166.22</ele>
        <time>2015-01-06T13:49:34Z</time>
      </trkpt>
      <trkpt lat="46.114076804369688" lon="8.678340241312981">
        <ele>1163.3299999999999</ele>
        <time>2015-01-06T13:49:41Z</time>
      </trkpt>
      <trkpt lat="46.114044114947319" lon="8.678392795845866">
        <ele>1162.3699999999999</ele>
        <time>2015-01-06T13:49:45Z</time>
      </trkpt>
      <trkpt lat="46.113963732495904" lon="8.678455576300621">
        <ele>1159.97</ele>
        <time>2015-01-06T13:49:53Z</time>
      </trkpt>
      <trkpt lat="46.113836662843823" lon="8.678380390629172">
        <ele>1156.5999999999999</ele>
        <time>2015-01-06T13:50:05Z</time>
      </trkpt>
      <trkpt lat="46.113818977028131" lon="8.678354993462563">
        <ele>1155.6400000000001</ele>
        <time>2015-01-06T13:50:07Z</time>
      </trkpt>
      <trkpt lat="46.113689644262195" lon="8.678276371210814">
        <ele>1152.28</ele>
        <time>2015-01-06T13:50:18Z</time>
      </trkpt>
      <trkpt lat="46.113578584045172" lon="8.678223481401801">
        <ele>1148.9100000000001</ele>
        <time>2015-01-06T13:50:28Z</time>
      </trkpt>
      <trkpt lat="46.113556120544672" lon="8.678246699273586">
        <ele>1147.95</ele>
        <time>2015-01-06T13:50:34Z</time>
      </trkpt>
      <trkpt lat="46.113549247384071" lon="8.678311407566071">
        <ele>1146.51</ele>
        <time>2015-01-06T13:50:38Z</time>
      </trkpt>
      <trkpt lat="46.113597610965371" lon="8.678481141105294">
        <ele>1143.6300000000001</ele>
        <time>2015-01-06T13:50:50Z</time>
      </trkpt>
      <trkpt lat="46.113605406135321" lon="8.678536964580417">
        <ele>1141.7</ele>
        <time>2015-01-06T13:51:07Z</time>
      </trkpt>
      <trkpt lat="46.113608172163367" lon="8.678582729771733">
        <ele>1141.22</ele>
        <time>2015-01-06T13:51:23Z</time>
      </trkpt>
      <trkpt lat="46.113634156063199" lon="8.678605780005455">
        <ele>1141.22</ele>
        <time>2015-01-06T13:51:46Z</time>
      </trkpt>
      <trkpt lat="46.113632479682565" lon="8.678634697571397">
        <ele>1140.74</ele>
        <time>2015-01-06T13:51:48Z</time>
      </trkpt>
      <trkpt lat="46.113678412511945" lon="8.678759168833494">
        <ele>1137.8599999999999</ele>
        <time>2015-01-06T13:51:59Z</time>
      </trkpt>
      <trkpt lat="46.11369232647121" lon="8.678787164390087">
        <ele>1137.3800000000001</ele>
        <time>2015-01-06T13:52:01Z</time>
      </trkpt>
      <trkpt lat="46.113672209903598" lon="8.678823374211788">
        <ele>1135.9400000000001</ele>
        <time>2015-01-06T13:52:04Z</time>
      </trkpt>
      <trkpt lat="46.113633820787072" lon="8.678815998136997">
        <ele>1134.97</ele>
        <time>2015-01-06T13:52:07Z</time>
      </trkpt>
      <trkpt lat="46.113544721156359" lon="8.678830163553357">
        <ele>1132.0899999999999</ele>
        <time>2015-01-06T13:52:21Z</time>
      </trkpt>
      <trkpt lat="46.11355260014534" lon="8.678834857419133">
        <ele>1131.6099999999999</ele>
        <time>2015-01-06T13:52:22Z</time>
      </trkpt>
      <trkpt lat="46.113591827452183" lon="8.678898811340332">
        <ele>1128.73</ele>
        <time>2015-01-06T13:52:31Z</time>
      </trkpt>
      <trkpt lat="46.113467440009117" lon="8.678965028375387">
        <ele>1125.3599999999999</ele>
        <time>2015-01-06T13:52:42Z</time>
      </trkpt>
      <trkpt lat="46.113377586007118" lon="8.678948516026139">
        <ele>1123.4400000000001</ele>
        <time>2015-01-06T13:52:49Z</time>
      </trkpt>
      <trkpt lat="46.11325747333467" lon="8.67882052436471">
        <ele>1120.0699999999999</ele>
        <time>2015-01-06T13:53:02Z</time>
      </trkpt>
      <trkpt lat="46.113210115581751" lon="8.678790181875229">
        <ele>1117.6700000000001</ele>
        <time>2015-01-06T13:53:11Z</time>
      </trkpt>
      <trkpt lat="46.113223442807794" lon="8.678817423060536">
        <ele>1117.1900000000001</ele>
        <time>2015-01-06T13:53:13Z</time>
      </trkpt>
      <trkpt lat="46.11328924074769" lon="8.679048847407103">
        <ele>1113.8199999999999</ele>
        <time>2015-01-06T13:53:27Z</time>
      </trkpt>
      <trkpt lat="46.113296365365386" lon="8.679062006995082">
        <ele>1113.3399999999999</ele>
        <time>2015-01-06T13:53:28Z</time>
      </trkpt>
      <trkpt lat="46.113266944885254" lon="8.679113304242492">
        <ele>1111.9000000000001</ele>
        <time>2015-01-06T13:53:33Z</time>
      </trkpt>
      <trkpt lat="46.113158734515309" lon="8.679086063057184">
        <ele>1108.54</ele>
        <time>2015-01-06T13:53:42Z</time>
      </trkpt>
      <trkpt lat="46.113104922696948" lon="8.67911959066987">
        <ele>1105.6500000000001</ele>
        <time>2015-01-06T13:53:54Z</time>
      </trkpt>
      <trkpt lat="46.113118585199118" lon="8.679169379174709">
        <ele>1103.73</ele>
        <time>2015-01-06T13:53:57Z</time>
      </trkpt>
      <trkpt lat="46.113169966265559" lon="8.679302232339978">
        <ele>1102.29</ele>
        <time>2015-01-06T13:54:06Z</time>
      </trkpt>
      <trkpt lat="46.113169379532337" lon="8.679332658648491">
        <ele>1101.8099999999999</ele>
        <time>2015-01-06T13:54:08Z</time>
      </trkpt>
      <trkpt lat="46.113122357055545" lon="8.679336849600077">
        <ele>1099.8900000000001</ele>
        <time>2015-01-06T13:54:12Z</time>
      </trkpt>
      <trkpt lat="46.113034347072244" lon="8.679290162399411">
        <ele>1096.52</ele>
        <time>2015-01-06T13:54:20Z</time>
      </trkpt>
      <trkpt lat="46.112966537475586" lon="8.679276499897242">
        <ele>1094.5999999999999</ele>
        <time>2015-01-06T13:54:26Z</time>
      </trkpt>
      <trkpt lat="46.112774088978767" lon="8.679274907335639">
        <ele>1091.71</ele>
        <time>2015-01-06T13:54:41Z</time>
      </trkpt>
      <trkpt lat="46.112733939662576" lon="8.67928571999073">
        <ele>1090.27</ele>
        <time>2015-01-06T13:54:44Z</time>
      </trkpt>
      <trkpt lat="46.112617515027523" lon="8.679163679480553">
        <ele>1086.9100000000001</ele>
        <time>2015-01-06T13:54:57Z</time>
      </trkpt>
      <trkpt lat="46.112576527521014" lon="8.679121099412441">
        <ele>1085.95</ele>
        <time>2015-01-06T13:55:01Z</time>
      </trkpt>
      <trkpt lat="46.112546604126692" lon="8.679125206544995">
        <ele>1085.47</ele>
        <time>2015-01-06T13:55:11Z</time>
      </trkpt>
      <trkpt lat="46.112536378204823" lon="8.679194189608097">
        <ele>1083.54</ele>
        <time>2015-01-06T13:55:16Z</time>
      </trkpt>
      <trkpt lat="46.112542748451233" lon="8.679284043610096">
        <ele>1082.0999999999999</ele>
        <time>2015-01-06T13:55:22Z</time>
      </trkpt>
      <trkpt lat="46.112580550834537" lon="8.679412957280874">
        <ele>1079.7</ele>
        <time>2015-01-06T13:55:30Z</time>
      </trkpt>
      <trkpt lat="46.112599493935704" lon="8.679536171257496">
        <ele>1076.3299999999999</ele>
        <time>2015-01-06T13:55:40Z</time>
      </trkpt>
      <trkpt lat="46.112540401518345" lon="8.679548157379031">
        <ele>1074.8900000000001</ele>
        <time>2015-01-06T13:55:46Z</time>
      </trkpt>
      <trkpt lat="46.112572336569428" lon="8.679604232311249">
        <ele>1073.45</ele>
        <time>2015-01-06T13:55:52Z</time>
      </trkpt>
      <trkpt lat="46.112700160592794" lon="8.679646141827107">
        <ele>1070.0799999999999</ele>
        <time>2015-01-06T13:56:04Z</time>
      </trkpt>
      <trkpt lat="46.112763108685613" lon="8.679685536772013">
        <ele>1068.1600000000001</ele>
        <time>2015-01-06T13:56:10Z</time>
      </trkpt>
      <trkpt lat="46.112874085083604" lon="8.679754352197051">
        <ele>1066.72</ele>
        <time>2015-01-06T13:56:22Z</time>
      </trkpt>
      <trkpt lat="46.112877689301968" lon="8.679767679423094">
        <ele>1066.72</ele>
        <time>2015-01-06T13:56:23Z</time>
      </trkpt>
      <trkpt lat="46.112851453945041" lon="8.679838003590703">
        <ele>1066.72</ele>
        <time>2015-01-06T13:56:28Z</time>
      </trkpt>
      <trkpt lat="46.112779621034861" lon="8.679975131526589">
        <ele>1067.2</ele>
        <time>2015-01-06T13:56:37Z</time>
      </trkpt>
      <trkpt lat="46.112728659063578" lon="8.68028056807816">
        <ele>1064.8</ele>
        <time>2015-01-06T13:56:53Z</time>
      </trkpt>
      <trkpt lat="46.112778699025512" lon="8.680538730695844">
        <ele>1065.28</ele>
        <time>2015-01-06T13:57:08Z</time>
      </trkpt>
      <trkpt lat="46.112778782844543" lon="8.680571420118213">
        <ele>1065.28</ele>
        <time>2015-01-06T13:57:10Z</time>
      </trkpt>
      <trkpt lat="46.112722959369421" lon="8.680657418444753">
        <ele>1063.3599999999999</ele>
        <time>2015-01-06T13:57:17Z</time>
      </trkpt>
      <trkpt lat="46.112672332674265" lon="8.680765712633729">
        <ele>1060.95</ele>
        <time>2015-01-06T13:57:26Z</time>
      </trkpt>
      <trkpt lat="46.112621957436204" lon="8.680748613551259">
        <ele>1059.99</ele>
        <time>2015-01-06T13:57:30Z</time>
      </trkpt>
      <trkpt lat="46.112491535022855" lon="8.680553482845426">
        <ele>1057.1099999999999</ele>
        <time>2015-01-06T13:57:44Z</time>
      </trkpt>
      <trkpt lat="46.11246001906693" lon="8.680537389591336">
        <ele>1056.1500000000001</ele>
        <time>2015-01-06T13:57:47Z</time>
      </trkpt>
      <trkpt lat="46.112394724041224" lon="8.680762527510524">
        <ele>1053.26</ele>
        <time>2015-01-06T13:58:01Z</time>
      </trkpt>
      <trkpt lat="46.112344767898321" lon="8.680964028462768">
        <ele>1050.3800000000001</ele>
        <time>2015-01-06T13:58:13Z</time>
      </trkpt>
      <trkpt lat="46.112316604703665" lon="8.681029072031379">
        <ele>1049.4200000000001</ele>
        <time>2015-01-06T13:58:17Z</time>
      </trkpt>
      <trkpt lat="46.11227042041719" lon="8.681101994588971">
        <ele>1047.97</ele>
        <time>2015-01-06T13:58:22Z</time>
      </trkpt>
      <trkpt lat="46.112171681597829" lon="8.681162763386965">
        <ele>1046.05</ele>
        <time>2015-01-06T13:58:30Z</time>
      </trkpt>
      <trkpt lat="46.112121473997831" lon="8.681391840800643">
        <ele>1043.1700000000001</ele>
        <time>2015-01-06T13:58:43Z</time>
      </trkpt>
      <trkpt lat="46.112111080437899" lon="8.681597113609314">
        <ele>1040.28</ele>
        <time>2015-01-06T13:58:54Z</time>
      </trkpt>
      <trkpt lat="46.112161623314023" lon="8.681840356439352">
        <ele>1036.9200000000001</ele>
        <time>2015-01-06T13:59:09Z</time>
      </trkpt>
      <trkpt lat="46.112110326066613" lon="8.681857706978917">
        <ele>1036.4400000000001</ele>
        <time>2015-01-06T13:59:13Z</time>
      </trkpt>
      <trkpt lat="46.111957943066955" lon="8.681754358112812">
        <ele>1033.0699999999999</ele>
        <time>2015-01-06T13:59:25Z</time>
      </trkpt>
      <trkpt lat="46.111768176779151" lon="8.681586384773254">
        <ele>1030.1900000000001</ele>
        <time>2015-01-06T13:59:41Z</time>
      </trkpt>
      <trkpt lat="46.11163716763258" lon="8.681449675932527">
        <ele>1027.3099999999999</ele>
        <time>2015-01-06T13:59:53Z</time>
      </trkpt>
      <trkpt lat="46.111498698592186" lon="8.681303076446056">
        <ele>1023.9400000000001</ele>
        <time>2015-01-06T14:00:06Z</time>
      </trkpt>
      <trkpt lat="46.111474726349115" lon="8.681232081726193">
        <ele>1022.5</ele>
        <time>2015-01-06T14:00:10Z</time>
      </trkpt>
      <trkpt lat="46.111437594518065" lon="8.681053044274449">
        <ele>1020.58</ele>
        <time>2015-01-06T14:00:20Z</time>
      </trkpt>
      <trkpt lat="46.111393505707383" lon="8.681162931025028">
        <ele>1018.17</ele>
        <time>2015-01-06T14:00:30Z</time>
      </trkpt>
      <trkpt lat="46.111381184309721" lon="8.681471971794963">
        <ele>1015.29</ele>
        <time>2015-01-06T14:00:46Z</time>
      </trkpt>
      <trkpt lat="46.111346902325749" lon="8.681713873520494">
        <ele>1011.9299999999999</ele>
        <time>2015-01-06T14:00:59Z</time>
      </trkpt>
      <trkpt lat="46.111221676692367" lon="8.681880170479417">
        <ele>1008.5599999999999</ele>
        <time>2015-01-06T14:01:13Z</time>
      </trkpt>
      <trkpt lat="46.111069209873676" lon="8.682016544044018">
        <ele>1005.6799999999999</ele>
        <time>2015-01-06T14:01:27Z</time>
      </trkpt>
      <trkpt lat="46.111023612320423" lon="8.682231791317463">
        <ele>1003.27</ele>
        <time>2015-01-06T14:01:39Z</time>
      </trkpt>
      <trkpt lat="46.111009614542127" lon="8.682265486568213">
        <ele>1002.3099999999999</ele>
        <time>2015-01-06T14:01:53Z</time>
      </trkpt>
      <trkpt lat="46.111015984788537" lon="8.68225215934217">
        <ele>1002.79</ele>
        <time>2015-01-06T14:02:03Z</time>
      </trkpt>
      <trkpt lat="46.111025623977184" lon="8.682279149070382">
        <ele>1002.79</ele>
        <time>2015-01-06T14:02:22Z</time>
      </trkpt>
      <trkpt lat="46.111010788008571" lon="8.682292476296425">
        <ele>1002.79</ele>
        <time>2015-01-06T14:02:32Z</time>
      </trkpt>
      <trkpt lat="46.110980613157153" lon="8.682302199304104">
        <ele>1002.79</ele>
        <time>2015-01-06T14:02:35Z</time>
      </trkpt>
      <trkpt lat="46.110843317583203" lon="8.68235575966537">
        <ele>999.90999999999997</ele>
        <time>2015-01-06T14:02:45Z</time>
      </trkpt>
      <trkpt lat="46.110657323151827" lon="8.682397501543164">
        <ele>997.01999999999998</ele>
        <time>2015-01-06T14:02:58Z</time>
      </trkpt>
      <trkpt lat="46.110498486086726" lon="8.682417785748839">
        <ele>994.13999999999999</ele>
        <time>2015-01-06T14:03:10Z</time>
      </trkpt>
      <trkpt lat="46.110305031761527" lon="8.682413510978222">
        <ele>990.77999999999997</ele>
        <time>2015-01-06T14:03:25Z</time>
      </trkpt>
      <trkpt lat="46.110114930197597" lon="8.682401943951845">
        <ele>987.40999999999997</ele>
        <time>2015-01-06T14:03:39Z</time>
      </trkpt>
      <trkpt lat="46.109956176951528" lon="8.682434130460024">
        <ele>984.04999999999995</ele>
        <time>2015-01-06T14:03:51Z</time>
      </trkpt>
      <trkpt lat="46.109832543879747" lon="8.682560948655009">
        <ele>981.15999999999997</ele>
        <time>2015-01-06T14:04:03Z</time>
      </trkpt>
      <trkpt lat="46.109767165035009" lon="8.682507975026965">
        <ele>979.72000000000003</ele>
        <time>2015-01-06T14:04:09Z</time>
      </trkpt>
      <trkpt lat="46.109791807830334" lon="8.682138165459037">
        <ele>976.36000000000001</ele>
        <time>2015-01-06T14:04:27Z</time>
      </trkpt>
      <trkpt lat="46.109905634075403" lon="8.681972622871399">
        <ele>974.42999999999995</ele>
        <time>2015-01-06T14:04:39Z</time>
      </trkpt>
      <trkpt lat="46.109895659610629" lon="8.68190816603601">
        <ele>972.99000000000001</ele>
        <time>2015-01-06T14:04:44Z</time>
      </trkpt>
      <trkpt lat="46.10971293412149" lon="8.681903220713139">
        <ele>969.63</ele>
        <time>2015-01-06T14:05:00Z</time>
      </trkpt>
      <trkpt lat="46.109678065404296" lon="8.681883020326495">
        <ele>969.14999999999998</ele>
        <time>2015-01-06T14:05:21Z</time>
      </trkpt>
      <trkpt lat="46.109656104817986" lon="8.681872878223658">
        <ele>969.14999999999998</ele>
        <time>2015-01-06T14:05:28Z</time>
      </trkpt>
      <trkpt lat="46.109511097893119" lon="8.682075804099441">
        <ele>965.77999999999997</ele>
        <time>2015-01-06T14:05:44Z</time>
      </trkpt>
      <trkpt lat="46.109492070972919" lon="8.682308988645673">
        <ele>962.41999999999996</ele>
        <time>2015-01-06T14:05:57Z</time>
      </trkpt>
      <trkpt lat="46.109491651877761" lon="8.682378893718123">
        <ele>961.46000000000004</ele>
        <time>2015-01-06T14:06:01Z</time>
      </trkpt>
      <trkpt lat="46.109490562230349" lon="8.682427927851677">
        <ele>960.98000000000002</ele>
        <time>2015-01-06T14:06:04Z</time>
      </trkpt>
      <trkpt lat="46.109494837000966" lon="8.682756498456001">
        <ele>957.61000000000001</ele>
        <time>2015-01-06T14:06:19Z</time>
      </trkpt>
      <trkpt lat="46.109449323266745" lon="8.683050787076354">
        <ele>954.73000000000002</ele>
        <time>2015-01-06T14:06:33Z</time>
      </trkpt>
      <trkpt lat="46.109422501176596" lon="8.683353373780847">
        <ele>951.36000000000001</ele>
        <time>2015-01-06T14:06:49Z</time>
      </trkpt>
      <trkpt lat="46.109405988827348" lon="8.683390421792865">
        <ele>951.36000000000001</ele>
        <time>2015-01-06T14:06:51Z</time>
      </trkpt>
      <trkpt lat="46.109285624697804" lon="8.683264944702387">
        <ele>948.96000000000004</ele>
        <time>2015-01-06T14:07:02Z</time>
      </trkpt>
      <trkpt lat="46.10926441848278" lon="8.683170396834612">
        <ele>948</ele>
        <time>2015-01-06T14:07:18Z</time>
      </trkpt>
      <trkpt lat="46.109264334663749" lon="8.683165032416582">
        <ele>948</ele>
        <time>2015-01-06T14:07:19Z</time>
      </trkpt>
      <trkpt lat="46.10926098190248" lon="8.683060426265001">
        <ele>947.03999999999996</ele>
        <time>2015-01-06T14:07:24Z</time>
      </trkpt>
      <trkpt lat="46.109269531443715" lon="8.68289421312511">
        <ele>947.51999999999998</ele>
        <time>2015-01-06T14:07:37Z</time>
      </trkpt>
      <trkpt lat="46.109295515343547" lon="8.682896560057998">
        <ele>947.03999999999996</ele>
        <time>2015-01-06T14:07:53Z</time>
      </trkpt>
      <trkpt lat="46.10930398106575" lon="8.682916928082705">
        <ele>946.55999999999995</ele>
        <time>2015-01-06T14:08:16Z</time>
      </trkpt>
      <trkpt lat="46.109321666881442" lon="8.682877700775862">
        <ele>948</ele>
        <time>2015-01-06T14:08:42Z</time>
      </trkpt>
      <trkpt lat="46.109311357140541" lon="8.682876024395227">
        <ele>947.51999999999998</ele>
        <time>2015-01-06T14:08:57Z</time>
      </trkpt>
      <trkpt lat="46.109321247786283" lon="8.682873928919435">
        <ele>948.48000000000002</ele>
        <time>2015-01-06T14:09:21Z</time>
      </trkpt>
    </trkseg>
  </trk>

</gpx>